<?xml version="1.0" encoding="UTF-8" standalone="no" ?>
<gpx xmlns="http://www.topografix.com/GPX/1/1" xmlns:xsi="http://www.w3.org/2001/XMLSchema-instance" xsi:schemaLocation="http://www.topografix.com/GPX/1/1 http://www.topografix.com/GPX/1/1/gpx.xsd" version="1.1" creator="VisuGPX - https://www.visugpx.com">
  <metadata>
    <name>UTV20 </name>
  </metadata>
  <trk>
    <name><![CDATA[UTV20 sur TraceDeTrail.fr]]></name>
    <trkseg>
      <trkpt lat="45.0326" lon="5.52603">
        <ele>1099</ele>
        <time>2000-01-01T02:16:23.000Z</time>
      </trkpt>
      <trkpt lat="45.03251" lon="5.52563">
        <ele>1097</ele>
        <time>2000-01-01T02:16:33.000Z</time>
      </trkpt>
      <trkpt lat="45.03227" lon="5.52546">
        <ele>1096</ele>
        <time>2000-01-01T02:16:43.000Z</time>
      </trkpt>
      <trkpt lat="45.03241" lon="5.52506">
        <ele>1096</ele>
        <time>2000-01-01T02:16:53.000Z</time>
      </trkpt>
      <trkpt lat="45.03253" lon="5.52473">
        <ele>1097</ele>
        <time>2000-01-01T02:17:03.000Z</time>
      </trkpt>
      <trkpt lat="45.03269" lon="5.52431">
        <ele>1099</ele>
        <time>2000-01-01T02:17:13.000Z</time>
      </trkpt>
      <trkpt lat="45.03286" lon="5.524">
        <ele>1104</ele>
        <time>2000-01-01T02:17:23.000Z</time>
      </trkpt>
      <trkpt lat="45.0331" lon="5.52358">
        <ele>1111</ele>
        <time>2000-01-01T02:17:33.000Z</time>
      </trkpt>
      <trkpt lat="45.03337" lon="5.52312">
        <ele>1111</ele>
        <time>2000-01-01T02:17:43.000Z</time>
      </trkpt>
      <trkpt lat="45.03308" lon="5.52305">
        <ele>1110</ele>
        <time>2000-01-01T02:17:53.000Z</time>
      </trkpt>
      <trkpt lat="45.03272" lon="5.52297">
        <ele>1109</ele>
        <time>2000-01-01T02:18:03.000Z</time>
      </trkpt>
      <trkpt lat="45.03235" lon="5.52289">
        <ele>1108</ele>
        <time>2000-01-01T02:18:13.000Z</time>
      </trkpt>
      <trkpt lat="45.03199" lon="5.52282">
        <ele>1108</ele>
        <time>2000-01-01T02:18:23.000Z</time>
      </trkpt>
      <trkpt lat="45.03175" lon="5.52276">
        <ele>1105</ele>
        <time>2000-01-01T02:18:33.000Z</time>
      </trkpt>
      <trkpt lat="45.03149" lon="5.52271">
        <ele>1105</ele>
        <time>2000-01-01T02:18:43.000Z</time>
      </trkpt>
      <trkpt lat="45.0312" lon="5.52257">
        <ele>1105</ele>
        <time>2000-01-01T02:18:53.000Z</time>
      </trkpt>
      <trkpt lat="45.03097" lon="5.52245">
        <ele>1110</ele>
        <time>2000-01-01T02:19:03.000Z</time>
      </trkpt>
      <trkpt lat="45.03072" lon="5.52233">
        <ele>1110</ele>
        <time>2000-01-01T02:19:13.000Z</time>
      </trkpt>
      <trkpt lat="45.0304" lon="5.52208">
        <ele>1117</ele>
        <time>2000-01-01T02:19:23.000Z</time>
      </trkpt>
      <trkpt lat="45.03008" lon="5.52182">
        <ele>1115</ele>
        <time>2000-01-01T02:19:33.000Z</time>
      </trkpt>
      <trkpt lat="45.02976" lon="5.52157">
        <ele>1113</ele>
        <time>2000-01-01T02:19:43.000Z</time>
      </trkpt>
      <trkpt lat="45.02955" lon="5.5214">
        <ele>1113</ele>
        <time>2000-01-01T02:19:53.000Z</time>
      </trkpt>
      <trkpt lat="45.02933" lon="5.52123">
        <ele>1114</ele>
        <time>2000-01-01T02:20:03.000Z</time>
      </trkpt>
      <trkpt lat="45.0291" lon="5.52106">
        <ele>1114</ele>
        <time>2000-01-01T02:20:13.000Z</time>
      </trkpt>
      <trkpt lat="45.02884" lon="5.52086">
        <ele>1114</ele>
        <time>2000-01-01T02:20:23.000Z</time>
      </trkpt>
      <trkpt lat="45.02841" lon="5.52091">
        <ele>1110</ele>
        <time>2000-01-01T02:20:33.000Z</time>
      </trkpt>
      <trkpt lat="45.02814" lon="5.52116">
        <ele>1110</ele>
        <time>2000-01-01T02:20:43.000Z</time>
      </trkpt>
      <trkpt lat="45.02789" lon="5.5211">
        <ele>1111</ele>
        <time>2000-01-01T02:20:53.000Z</time>
      </trkpt>
      <trkpt lat="45.02759" lon="5.52103">
        <ele>1115</ele>
        <time>2000-01-01T02:21:03.000Z</time>
      </trkpt>
      <trkpt lat="45.0274" lon="5.52138">
        <ele>1118</ele>
        <time>2000-01-01T02:21:13.000Z</time>
      </trkpt>
      <trkpt lat="45.02723" lon="5.52167">
        <ele>1119</ele>
        <time>2000-01-01T02:21:23.000Z</time>
      </trkpt>
      <trkpt lat="45.02702" lon="5.52205">
        <ele>1119</ele>
        <time>2000-01-01T02:21:33.000Z</time>
      </trkpt>
      <trkpt lat="45.02719" lon="5.52256">
        <ele>1120</ele>
        <time>2000-01-01T02:21:43.000Z</time>
      </trkpt>
      <trkpt lat="45.02736" lon="5.52306">
        <ele>1121</ele>
        <time>2000-01-01T02:21:53.000Z</time>
      </trkpt>
      <trkpt lat="45.02753" lon="5.52357">
        <ele>1122</ele>
        <time>2000-01-01T02:22:03.000Z</time>
      </trkpt>
      <trkpt lat="45.0277" lon="5.52408">
        <ele>1121</ele>
        <time>2000-01-01T02:22:13.000Z</time>
      </trkpt>
      <trkpt lat="45.02782" lon="5.52445">
        <ele>1120</ele>
        <time>2000-01-01T02:22:23.000Z</time>
      </trkpt>
      <trkpt lat="45.02802" lon="5.52505">
        <ele>1119</ele>
        <time>2000-01-01T02:22:33.000Z</time>
      </trkpt>
      <trkpt lat="45.02771" lon="5.52508">
        <ele>1119</ele>
        <time>2000-01-01T02:22:43.000Z</time>
      </trkpt>
      <trkpt lat="45.02746" lon="5.52511">
        <ele>1120</ele>
        <time>2000-01-01T02:22:53.000Z</time>
      </trkpt>
      <trkpt lat="45.02717" lon="5.52514">
        <ele>1120</ele>
        <time>2000-01-01T02:23:03.000Z</time>
      </trkpt>
      <trkpt lat="45.02688" lon="5.52519">
        <ele>1121</ele>
        <time>2000-01-01T02:23:13.000Z</time>
      </trkpt>
      <trkpt lat="45.02644" lon="5.52527">
        <ele>1121</ele>
        <time>2000-01-01T02:23:23.000Z</time>
      </trkpt>
      <trkpt lat="45.026" lon="5.52541">
        <ele>1138</ele>
        <time>2000-01-01T02:23:33.000Z</time>
      </trkpt>
      <trkpt lat="45.0257" lon="5.52529">
        <ele>1146</ele>
        <time>2000-01-01T02:23:43.000Z</time>
      </trkpt>
      <trkpt lat="45.02531" lon="5.52548">
        <ele>1152</ele>
        <time>2000-01-01T02:23:53.000Z</time>
      </trkpt>
      <trkpt lat="45.02507" lon="5.52501">
        <ele>1167</ele>
        <time>2000-01-01T02:24:03.000Z</time>
      </trkpt>
      <trkpt lat="45.02497" lon="5.52459">
        <ele>1168</ele>
        <time>2000-01-01T02:24:13.000Z</time>
      </trkpt>
      <trkpt lat="45.02476" lon="5.52433">
        <ele>1169</ele>
        <time>2000-01-01T02:24:23.000Z</time>
      </trkpt>
      <trkpt lat="45.02452" lon="5.52417">
        <ele>1169</ele>
        <time>2000-01-01T02:24:33.000Z</time>
      </trkpt>
      <trkpt lat="45.02421" lon="5.52418">
        <ele>1174</ele>
        <time>2000-01-01T02:24:43.000Z</time>
      </trkpt>
      <trkpt lat="45.02395" lon="5.52418">
        <ele>1176</ele>
        <time>2000-01-01T02:24:53.000Z</time>
      </trkpt>
      <trkpt lat="45.02363" lon="5.52419">
        <ele>1179</ele>
        <time>2000-01-01T02:25:03.000Z</time>
      </trkpt>
      <trkpt lat="45.0233" lon="5.52389">
        <ele>1181</ele>
        <time>2000-01-01T02:25:13.000Z</time>
      </trkpt>
      <trkpt lat="45.02306" lon="5.52371">
        <ele>1181</ele>
        <time>2000-01-01T02:25:23.000Z</time>
      </trkpt>
      <trkpt lat="45.02289" lon="5.52346">
        <ele>1180</ele>
        <time>2000-01-01T02:25:33.000Z</time>
      </trkpt>
      <trkpt lat="45.02254" lon="5.52344">
        <ele>1180</ele>
        <time>2000-01-01T02:25:43.000Z</time>
      </trkpt>
      <trkpt lat="45.02214" lon="5.52329">
        <ele>1181</ele>
        <time>2000-01-01T02:25:53.000Z</time>
      </trkpt>
      <trkpt lat="45.02189" lon="5.52335">
        <ele>1199</ele>
        <time>2000-01-01T02:26:03.000Z</time>
      </trkpt>
      <trkpt lat="45.02164" lon="5.5233">
        <ele>1199</ele>
        <time>2000-01-01T02:26:13.000Z</time>
      </trkpt>
      <trkpt lat="45.02137" lon="5.52325">
        <ele>1200</ele>
        <time>2000-01-01T02:26:23.000Z</time>
      </trkpt>
      <trkpt lat="45.02104" lon="5.52337">
        <ele>1202</ele>
        <time>2000-01-01T02:26:33.000Z</time>
      </trkpt>
      <trkpt lat="45.02061" lon="5.52344">
        <ele>1209</ele>
        <time>2000-01-01T02:26:43.000Z</time>
      </trkpt>
      <trkpt lat="45.02038" lon="5.52351">
        <ele>1217</ele>
        <time>2000-01-01T02:26:53.000Z</time>
      </trkpt>
      <trkpt lat="45.02014" lon="5.52359">
        <ele>1219</ele>
        <time>2000-01-01T02:27:03.000Z</time>
      </trkpt>
      <trkpt lat="45.01977" lon="5.52373">
        <ele>1223</ele>
        <time>2000-01-01T02:27:13.000Z</time>
      </trkpt>
      <trkpt lat="45.01956" lon="5.52391">
        <ele>1225</ele>
        <time>2000-01-01T02:27:23.000Z</time>
      </trkpt>
      <trkpt lat="45.01933" lon="5.5241">
        <ele>1228</ele>
        <time>2000-01-01T02:27:33.000Z</time>
      </trkpt>
      <trkpt lat="45.01892" lon="5.52433">
        <ele>1237</ele>
        <time>2000-01-01T02:27:43.000Z</time>
      </trkpt>
      <trkpt lat="45.01867" lon="5.52437">
        <ele>1237</ele>
        <time>2000-01-01T02:27:53.000Z</time>
      </trkpt>
      <trkpt lat="45.01837" lon="5.5243">
        <ele>1237</ele>
        <time>2000-01-01T02:28:03.000Z</time>
      </trkpt>
      <trkpt lat="45.01813" lon="5.52424">
        <ele>1237</ele>
        <time>2000-01-01T02:28:13.000Z</time>
      </trkpt>
      <trkpt lat="45.01787" lon="5.52418">
        <ele>1240</ele>
        <time>2000-01-01T02:28:23.000Z</time>
      </trkpt>
      <trkpt lat="45.01763" lon="5.5242">
        <ele>1243</ele>
        <time>2000-01-01T02:28:33.000Z</time>
      </trkpt>
      <trkpt lat="45.01733" lon="5.52418">
        <ele>1245</ele>
        <time>2000-01-01T02:28:43.000Z</time>
      </trkpt>
      <trkpt lat="45.01705" lon="5.52418">
        <ele>1245</ele>
        <time>2000-01-01T02:28:53.000Z</time>
      </trkpt>
      <trkpt lat="45.01664" lon="5.52418">
        <ele>1245</ele>
        <time>2000-01-01T02:29:03.000Z</time>
      </trkpt>
      <trkpt lat="45.01639" lon="5.52428">
        <ele>1248</ele>
        <time>2000-01-01T02:29:13.000Z</time>
      </trkpt>
      <trkpt lat="45.0161" lon="5.52439">
        <ele>1251</ele>
        <time>2000-01-01T02:29:23.000Z</time>
      </trkpt>
      <trkpt lat="45.01584" lon="5.52467">
        <ele>1264</ele>
        <time>2000-01-01T02:29:33.000Z</time>
      </trkpt>
      <trkpt lat="45.01558" lon="5.52478">
        <ele>1263</ele>
        <time>2000-01-01T02:29:43.000Z</time>
      </trkpt>
      <trkpt lat="45.01526" lon="5.52492">
        <ele>1263</ele>
        <time>2000-01-01T02:29:53.000Z</time>
      </trkpt>
      <trkpt lat="45.015" lon="5.52507">
        <ele>1263</ele>
        <time>2000-01-01T02:30:03.000Z</time>
      </trkpt>
      <trkpt lat="45.01463" lon="5.52527">
        <ele>1262</ele>
        <time>2000-01-01T02:30:13.000Z</time>
      </trkpt>
      <trkpt lat="45.01436" lon="5.52531">
        <ele>1262</ele>
        <time>2000-01-01T02:30:23.000Z</time>
      </trkpt>
      <trkpt lat="45.014" lon="5.52537">
        <ele>1264</ele>
        <time>2000-01-01T02:30:33.000Z</time>
      </trkpt>
      <trkpt lat="45.01368" lon="5.5255">
        <ele>1269</ele>
        <time>2000-01-01T02:30:43.000Z</time>
      </trkpt>
      <trkpt lat="45.01348" lon="5.52578">
        <ele>1270</ele>
        <time>2000-01-01T02:30:53.000Z</time>
      </trkpt>
      <trkpt lat="45.01318" lon="5.5262">
        <ele>1282</ele>
        <time>2000-01-01T02:31:03.000Z</time>
      </trkpt>
      <trkpt lat="45.01278" lon="5.52629">
        <ele>1281</ele>
        <time>2000-01-01T02:31:13.000Z</time>
      </trkpt>
      <trkpt lat="45.01248" lon="5.52629">
        <ele>1282</ele>
        <time>2000-01-01T02:31:23.000Z</time>
      </trkpt>
      <trkpt lat="45.01219" lon="5.52652">
        <ele>1284</ele>
        <time>2000-01-01T02:31:33.000Z</time>
      </trkpt>
      <trkpt lat="45.01186" lon="5.52659">
        <ele>1287</ele>
        <time>2000-01-01T02:31:43.000Z</time>
      </trkpt>
      <trkpt lat="45.01155" lon="5.52656">
        <ele>1288</ele>
        <time>2000-01-01T02:31:53.000Z</time>
      </trkpt>
      <trkpt lat="45.01126" lon="5.5265">
        <ele>1292</ele>
        <time>2000-01-01T02:32:03.000Z</time>
      </trkpt>
      <trkpt lat="45.01099" lon="5.52651">
        <ele>1297</ele>
        <time>2000-01-01T02:32:13.000Z</time>
      </trkpt>
      <trkpt lat="45.01062" lon="5.5264">
        <ele>1306</ele>
        <time>2000-01-01T02:32:23.000Z</time>
      </trkpt>
      <trkpt lat="45.01039" lon="5.52629">
        <ele>1307</ele>
        <time>2000-01-01T02:32:33.000Z</time>
      </trkpt>
      <trkpt lat="45.01013" lon="5.52616">
        <ele>1308</ele>
        <time>2000-01-01T02:32:43.000Z</time>
      </trkpt>
      <trkpt lat="45.00986" lon="5.52603">
        <ele>1310</ele>
        <time>2000-01-01T02:32:53.000Z</time>
      </trkpt>
      <trkpt lat="45.00962" lon="5.52584">
        <ele>1312</ele>
        <time>2000-01-01T02:33:03.000Z</time>
      </trkpt>
      <trkpt lat="45.00929" lon="5.52548">
        <ele>1324</ele>
        <time>2000-01-01T02:33:13.000Z</time>
      </trkpt>
      <trkpt lat="45.00906" lon="5.52524">
        <ele>1328</ele>
        <time>2000-01-01T02:33:23.000Z</time>
      </trkpt>
      <trkpt lat="45.00873" lon="5.52488">
        <ele>1332</ele>
        <time>2000-01-01T02:33:33.000Z</time>
      </trkpt>
      <trkpt lat="45.00852" lon="5.52469">
        <ele>1332</ele>
        <time>2000-01-01T02:33:43.000Z</time>
      </trkpt>
      <trkpt lat="45.00827" lon="5.52448">
        <ele>1335</ele>
        <time>2000-01-01T02:33:53.000Z</time>
      </trkpt>
      <trkpt lat="45.008" lon="5.52431">
        <ele>1341</ele>
        <time>2000-01-01T02:34:03.000Z</time>
      </trkpt>
      <trkpt lat="45.00771" lon="5.52424">
        <ele>1341</ele>
        <time>2000-01-01T02:34:13.000Z</time>
      </trkpt>
      <trkpt lat="45.00725" lon="5.52414">
        <ele>1355</ele>
        <time>2000-01-01T02:34:23.000Z</time>
      </trkpt>
      <trkpt lat="45.00692" lon="5.52446">
        <ele>1370</ele>
        <time>2000-01-01T02:34:33.000Z</time>
      </trkpt>
      <trkpt lat="45.0067" lon="5.52465">
        <ele>1386</ele>
        <time>2000-01-01T02:34:43.000Z</time>
      </trkpt>
      <trkpt lat="45.00645" lon="5.52486">
        <ele>1393</ele>
        <time>2000-01-01T02:34:53.000Z</time>
      </trkpt>
      <trkpt lat="45.00622" lon="5.52495">
        <ele>1401</ele>
        <time>2000-01-01T02:35:03.000Z</time>
      </trkpt>
      <trkpt lat="45.00598" lon="5.52503">
        <ele>1402</ele>
        <time>2000-01-01T02:35:13.000Z</time>
      </trkpt>
      <trkpt lat="45.00556" lon="5.52514">
        <ele>1406</ele>
        <time>2000-01-01T02:35:23.000Z</time>
      </trkpt>
      <trkpt lat="45.00527" lon="5.52526">
        <ele>1415</ele>
        <time>2000-01-01T02:35:33.000Z</time>
      </trkpt>
      <trkpt lat="45.00503" lon="5.52535">
        <ele>1415</ele>
        <time>2000-01-01T02:35:43.000Z</time>
      </trkpt>
      <trkpt lat="45.00478" lon="5.52546">
        <ele>1424</ele>
        <time>2000-01-01T02:35:53.000Z</time>
      </trkpt>
      <trkpt lat="45.00465" lon="5.52595">
        <ele>1437</ele>
        <time>2000-01-01T02:36:03.000Z</time>
      </trkpt>
      <trkpt lat="45.00453" lon="5.52644">
        <ele>1450</ele>
        <time>2000-01-01T02:36:13.000Z</time>
      </trkpt>
      <trkpt lat="45.0044" lon="5.52693">
        <ele>1466</ele>
        <time>2000-01-01T02:36:23.000Z</time>
      </trkpt>
      <trkpt lat="45.00423" lon="5.52748">
        <ele>1473</ele>
        <time>2000-01-01T02:36:33.000Z</time>
      </trkpt>
      <trkpt lat="45.00408" lon="5.52785">
        <ele>1481</ele>
        <time>2000-01-01T02:36:43.000Z</time>
      </trkpt>
      <trkpt lat="45.00401" lon="5.52845">
        <ele>1489</ele>
        <time>2000-01-01T02:36:53.000Z</time>
      </trkpt>
      <trkpt lat="45.00393" lon="5.52878">
        <ele>1493</ele>
        <time>2000-01-01T02:37:03.000Z</time>
      </trkpt>
      <trkpt lat="45.00385" lon="5.52913">
        <ele>1505</ele>
        <time>2000-01-01T02:37:13.000Z</time>
      </trkpt>
      <trkpt lat="45.00375" lon="5.5295">
        <ele>1515</ele>
        <time>2000-01-01T02:37:23.000Z</time>
      </trkpt>
      <trkpt lat="45.00361" lon="5.52998">
        <ele>1525</ele>
        <time>2000-01-01T02:37:33.000Z</time>
      </trkpt>
      <trkpt lat="45.00342" lon="5.53018">
        <ele>1535</ele>
        <time>2000-01-01T02:37:43.000Z</time>
      </trkpt>
      <trkpt lat="45.00322" lon="5.53039">
        <ele>1539</ele>
        <time>2000-01-01T02:37:53.000Z</time>
      </trkpt>
      <trkpt lat="45.00313" lon="5.53073">
        <ele>1560</ele>
        <time>2000-01-01T02:38:03.000Z</time>
      </trkpt>
      <trkpt lat="45.00304" lon="5.53113">
        <ele>1565</ele>
        <time>2000-01-01T02:38:13.000Z</time>
      </trkpt>
      <trkpt lat="45.00302" lon="5.53171">
        <ele>1570</ele>
        <time>2000-01-01T02:38:23.000Z</time>
      </trkpt>
      <trkpt lat="45.00298" lon="5.53209">
        <ele>1589</ele>
        <time>2000-01-01T02:38:33.000Z</time>
      </trkpt>
      <trkpt lat="45.00294" lon="5.53272">
        <ele>1593</ele>
        <time>2000-01-01T02:38:43.000Z</time>
      </trkpt>
      <trkpt lat="45.00273" lon="5.53247">
        <ele>1598</ele>
        <time>2000-01-01T02:38:53.000Z</time>
      </trkpt>
      <trkpt lat="45.00257" lon="5.53257">
        <ele>1598.9</ele>
        <time>2000-01-01T02:39:03.000Z</time>
      </trkpt>
      <trkpt lat="45.00253" lon="5.53324">
        <ele>1625</ele>
        <time>2000-01-01T02:39:13.000Z</time>
      </trkpt>
      <trkpt lat="45.00254" lon="5.53359">
        <ele>1631</ele>
        <time>2000-01-01T02:39:23.000Z</time>
      </trkpt>
      <trkpt lat="45.00255" lon="5.53397">
        <ele>1637</ele>
        <time>2000-01-01T02:39:33.000Z</time>
      </trkpt>
      <trkpt lat="45.00255" lon="5.53439">
        <ele>1642</ele>
        <time>2000-01-01T02:39:43.000Z</time>
      </trkpt>
      <trkpt lat="45.00243" lon="5.53445">
        <ele>1641.8</ele>
        <time>2000-01-01T02:39:53.000Z</time>
      </trkpt>
      <trkpt lat="45.00253" lon="5.53546">
        <ele>1663</ele>
        <time>2000-01-01T02:40:03.000Z</time>
      </trkpt>
      <trkpt lat="45.00255" lon="5.53599">
        <ele>1676</ele>
        <time>2000-01-01T02:40:13.000Z</time>
      </trkpt>
      <trkpt lat="45.00281" lon="5.53647">
        <ele>1687</ele>
        <time>2000-01-01T02:40:23.000Z</time>
      </trkpt>
      <trkpt lat="45.00302" lon="5.53683">
        <ele>1707</ele>
        <time>2000-01-01T02:40:33.000Z</time>
      </trkpt>
      <trkpt lat="45.0032" lon="5.53715">
        <ele>1732</ele>
        <time>2000-01-01T02:40:43.000Z</time>
      </trkpt>
      <trkpt lat="45.00349" lon="5.53766">
        <ele>1742</ele>
        <time>2000-01-01T02:40:53.000Z</time>
      </trkpt>
      <trkpt lat="45.00366" lon="5.538">
        <ele>1753</ele>
        <time>2000-01-01T02:41:03.000Z</time>
      </trkpt>
      <trkpt lat="45.00394" lon="5.53853">
        <ele>1767</ele>
        <time>2000-01-01T02:41:13.000Z</time>
      </trkpt>
      <trkpt lat="45.00411" lon="5.53894">
        <ele>1770</ele>
        <time>2000-01-01T02:41:23.000Z</time>
      </trkpt>
      <trkpt lat="45.00428" lon="5.53934">
        <ele>1776</ele>
        <time>2000-01-01T02:41:33.000Z</time>
      </trkpt>
      <trkpt lat="45.00451" lon="5.53989">
        <ele>1786</ele>
        <time>2000-01-01T02:41:43.000Z</time>
      </trkpt>
      <trkpt lat="45.00465" lon="5.54021">
        <ele>1789</ele>
        <time>2000-01-01T02:41:53.000Z</time>
      </trkpt>
      <trkpt lat="45.00481" lon="5.54059">
        <ele>1787</ele>
        <time>2000-01-01T02:42:03.000Z</time>
      </trkpt>
      <trkpt lat="45.00509" lon="5.5408">
        <ele>1785</ele>
        <time>2000-01-01T02:42:13.000Z</time>
      </trkpt>
      <trkpt lat="45.00546" lon="5.54095">
        <ele>1773</ele>
        <time>2000-01-01T02:42:23.000Z</time>
      </trkpt>
      <trkpt lat="45.00571" lon="5.541">
        <ele>1761</ele>
        <time>2000-01-01T02:42:33.000Z</time>
      </trkpt>
      <trkpt lat="45.00612" lon="5.54119">
        <ele>1750</ele>
        <time>2000-01-01T02:42:43.000Z</time>
      </trkpt>
      <trkpt lat="45.00638" lon="5.54133">
        <ele>1748</ele>
        <time>2000-01-01T02:42:53.000Z</time>
      </trkpt>
      <trkpt lat="45.00672" lon="5.54151">
        <ele>1740</ele>
        <time>2000-01-01T02:43:03.000Z</time>
      </trkpt>
      <trkpt lat="45.00698" lon="5.54168">
        <ele>1739</ele>
        <time>2000-01-01T02:43:13.000Z</time>
      </trkpt>
      <trkpt lat="45.0068" lon="5.54205">
        <ele>1736</ele>
        <time>2000-01-01T02:43:23.000Z</time>
      </trkpt>
      <trkpt lat="45.00664" lon="5.54236">
        <ele>1736</ele>
        <time>2000-01-01T02:43:33.000Z</time>
      </trkpt>
      <trkpt lat="45.00643" lon="5.54278">
        <ele>1736</ele>
        <time>2000-01-01T02:43:43.000Z</time>
      </trkpt>
      <trkpt lat="45.00635" lon="5.54312">
        <ele>1740</ele>
        <time>2000-01-01T02:43:53.000Z</time>
      </trkpt>
      <trkpt lat="45.00625" lon="5.54351">
        <ele>1736</ele>
        <time>2000-01-01T02:44:03.000Z</time>
      </trkpt>
      <trkpt lat="45.00643" lon="5.54378">
        <ele>1733</ele>
        <time>2000-01-01T02:44:13.000Z</time>
      </trkpt>
      <trkpt lat="45.00663" lon="5.5441">
        <ele>1725</ele>
        <time>2000-01-01T02:44:23.000Z</time>
      </trkpt>
      <trkpt lat="45.00665" lon="5.5445">
        <ele>1725</ele>
        <time>2000-01-01T02:44:33.000Z</time>
      </trkpt>
      <trkpt lat="45.00669" lon="5.54506">
        <ele>1725</ele>
        <time>2000-01-01T02:44:43.000Z</time>
      </trkpt>
      <trkpt lat="45.00688" lon="5.54533">
        <ele>1726</ele>
        <time>2000-01-01T02:44:53.000Z</time>
      </trkpt>
      <trkpt lat="45.00713" lon="5.5457">
        <ele>1727</ele>
        <time>2000-01-01T02:45:03.000Z</time>
      </trkpt>
      <trkpt lat="45.00716" lon="5.54604">
        <ele>1738</ele>
        <time>2000-01-01T02:45:13.000Z</time>
      </trkpt>
      <trkpt lat="45.0072" lon="5.5464">
        <ele>1745</ele>
        <time>2000-01-01T02:45:23.000Z</time>
      </trkpt>
      <trkpt lat="45.00741" lon="5.54695">
        <ele>1749</ele>
        <time>2000-01-01T02:45:33.000Z</time>
      </trkpt>
      <trkpt lat="45.00743" lon="5.54741">
        <ele>1751</ele>
        <time>2000-01-01T02:45:43.000Z</time>
      </trkpt>
      <trkpt lat="45.00746" lon="5.54788">
        <ele>1755</ele>
        <time>2000-01-01T02:45:53.000Z</time>
      </trkpt>
      <trkpt lat="45.00749" lon="5.54844">
        <ele>1764</ele>
        <time>2000-01-01T02:46:03.000Z</time>
      </trkpt>
      <trkpt lat="45.00755" lon="5.54877">
        <ele>1766</ele>
        <time>2000-01-01T02:46:13.000Z</time>
      </trkpt>
      <trkpt lat="45.00762" lon="5.54912">
        <ele>1771</ele>
        <time>2000-01-01T02:46:23.000Z</time>
      </trkpt>
      <trkpt lat="45.00754" lon="5.54952">
        <ele>1777</ele>
        <time>2000-01-01T02:46:33.000Z</time>
      </trkpt>
      <trkpt lat="45.00741" lon="5.55014">
        <ele>1786</ele>
        <time>2000-01-01T02:46:43.000Z</time>
      </trkpt>
      <trkpt lat="45.00743" lon="5.55058">
        <ele>1795</ele>
        <time>2000-01-01T02:46:53.000Z</time>
      </trkpt>
      <trkpt lat="45.00745" lon="5.55094">
        <ele>1800</ele>
        <time>2000-01-01T02:47:03.000Z</time>
      </trkpt>
      <trkpt lat="45.00747" lon="5.55139">
        <ele>1811</ele>
        <time>2000-01-01T02:47:13.000Z</time>
      </trkpt>
      <trkpt lat="45.00773" lon="5.55184">
        <ele>1814</ele>
        <time>2000-01-01T02:47:23.000Z</time>
      </trkpt>
      <trkpt lat="45.00788" lon="5.55222">
        <ele>1811</ele>
        <time>2000-01-01T02:47:33.000Z</time>
      </trkpt>
      <trkpt lat="45.00827" lon="5.55237">
        <ele>1811</ele>
        <time>2000-01-01T02:47:43.000Z</time>
      </trkpt>
      <trkpt lat="45.00833" lon="5.55278">
        <ele>1811</ele>
        <time>2000-01-01T02:47:53.000Z</time>
      </trkpt>
      <trkpt lat="45.00837" lon="5.55326">
        <ele>1809</ele>
        <time>2000-01-01T02:48:03.000Z</time>
      </trkpt>
      <trkpt lat="45.00852" lon="5.55362">
        <ele>1809</ele>
        <time>2000-01-01T02:48:13.000Z</time>
      </trkpt>
      <trkpt lat="45.00893" lon="5.5539">
        <ele>1810</ele>
        <time>2000-01-01T02:48:23.000Z</time>
      </trkpt>
      <trkpt lat="45.0092" lon="5.55431">
        <ele>1810</ele>
        <time>2000-01-01T02:48:33.000Z</time>
      </trkpt>
      <trkpt lat="45.00945" lon="5.55432">
        <ele>1807</ele>
        <time>2000-01-01T02:48:43.000Z</time>
      </trkpt>
      <trkpt lat="45.00974" lon="5.55433">
        <ele>1807</ele>
        <time>2000-01-01T02:48:53.000Z</time>
      </trkpt>
      <trkpt lat="45.01013" lon="5.55443">
        <ele>1808</ele>
        <time>2000-01-01T02:49:03.000Z</time>
      </trkpt>
      <trkpt lat="45.01044" lon="5.55456">
        <ele>1802</ele>
        <time>2000-01-01T02:49:13.000Z</time>
      </trkpt>
      <trkpt lat="45.01073" lon="5.5546">
        <ele>1796</ele>
        <time>2000-01-01T02:49:23.000Z</time>
      </trkpt>
      <trkpt lat="45.01098" lon="5.55445">
        <ele>1796</ele>
        <time>2000-01-01T02:49:33.000Z</time>
      </trkpt>
      <trkpt lat="45.01132" lon="5.55426">
        <ele>1784</ele>
        <time>2000-01-01T02:49:43.000Z</time>
      </trkpt>
      <trkpt lat="45.01152" lon="5.55439">
        <ele>1784</ele>
        <time>2000-01-01T02:49:53.000Z</time>
      </trkpt>
      <trkpt lat="45.01167" lon="5.55482">
        <ele>1786</ele>
        <time>2000-01-01T02:50:03.000Z</time>
      </trkpt>
      <trkpt lat="45.01145" lon="5.5552">
        <ele>1783</ele>
        <time>2000-01-01T02:50:13.000Z</time>
      </trkpt>
      <trkpt lat="45.01136" lon="5.55555">
        <ele>1786</ele>
        <time>2000-01-01T02:50:23.000Z</time>
      </trkpt>
      <trkpt lat="45.01123" lon="5.55599">
        <ele>1790</ele>
        <time>2000-01-01T02:50:33.000Z</time>
      </trkpt>
      <trkpt lat="45.0111" lon="5.55631">
        <ele>1795</ele>
        <time>2000-01-01T02:50:43.000Z</time>
      </trkpt>
      <trkpt lat="45.01094" lon="5.55669">
        <ele>1812</ele>
        <time>2000-01-01T02:50:53.000Z</time>
      </trkpt>
      <trkpt lat="45.0106" lon="5.55716">
        <ele>1828</ele>
        <time>2000-01-01T02:51:03.000Z</time>
      </trkpt>
      <trkpt lat="45.0103" lon="5.55767">
        <ele>1830</ele>
        <time>2000-01-01T02:51:13.000Z</time>
      </trkpt>
      <trkpt lat="45.00998" lon="5.55811">
        <ele>1851</ele>
        <time>2000-01-01T02:51:23.000Z</time>
      </trkpt>
      <trkpt lat="45.00964" lon="5.55854">
        <ele>1861</ele>
        <time>2000-01-01T02:51:33.000Z</time>
      </trkpt>
      <trkpt lat="45.00943" lon="5.55911">
        <ele>1881</ele>
        <time>2000-01-01T02:51:43.000Z</time>
      </trkpt>
      <trkpt lat="45.00935" lon="5.55944">
        <ele>1889</ele>
        <time>2000-01-01T02:51:53.000Z</time>
      </trkpt>
      <trkpt lat="45.00928" lon="5.55979">
        <ele>1890</ele>
        <time>2000-01-01T02:52:03.000Z</time>
      </trkpt>
      <trkpt lat="45.00935" lon="5.56022">
        <ele>1892</ele>
        <time>2000-01-01T02:52:13.000Z</time>
      </trkpt>
      <trkpt lat="45.00922" lon="5.56048">
        <ele>1892</ele>
        <time>2000-01-01T02:52:23.000Z</time>
      </trkpt>
      <trkpt lat="45.00916" lon="5.56088">
        <ele>1901</ele>
        <time>2000-01-01T02:52:33.000Z</time>
      </trkpt>
      <trkpt lat="45.00896" lon="5.56117">
        <ele>1910</ele>
        <time>2000-01-01T02:52:43.000Z</time>
      </trkpt>
      <trkpt lat="45.00872" lon="5.56164">
        <ele>1925</ele>
        <time>2000-01-01T02:52:53.000Z</time>
      </trkpt>
      <trkpt lat="45.00849" lon="5.56175">
        <ele>1933</ele>
        <time>2000-01-01T02:53:03.000Z</time>
      </trkpt>
      <trkpt lat="45.00824" lon="5.56188">
        <ele>1933</ele>
        <time>2000-01-01T02:53:13.000Z</time>
      </trkpt>
      <trkpt lat="45.00792" lon="5.56207">
        <ele>1963</ele>
        <time>2000-01-01T02:53:23.000Z</time>
      </trkpt>
      <trkpt lat="45.00768" lon="5.56241">
        <ele>1966</ele>
        <time>2000-01-01T02:53:33.000Z</time>
      </trkpt>
      <trkpt lat="45.00749" lon="5.56275">
        <ele>1967</ele>
        <time>2000-01-01T02:53:43.000Z</time>
      </trkpt>
      <trkpt lat="45.00755" lon="5.56309">
        <ele>1961</ele>
        <time>2000-01-01T02:53:53.000Z</time>
      </trkpt>
      <trkpt lat="45.00785" lon="5.56315">
        <ele>1961</ele>
        <time>2000-01-01T02:54:03.000Z</time>
      </trkpt>
      <trkpt lat="45.00786" lon="5.56345">
        <ele>1960</ele>
        <time>2000-01-01T02:54:13.000Z</time>
      </trkpt>
      <trkpt lat="45.0077" lon="5.56368">
        <ele>1960</ele>
        <time>2000-01-01T02:54:23.000Z</time>
      </trkpt>
      <trkpt lat="45.00749" lon="5.56383">
        <ele>1961</ele>
        <time>2000-01-01T02:54:33.000Z</time>
      </trkpt>
      <trkpt lat="45.00733" lon="5.56422">
        <ele>1970</ele>
        <time>2000-01-01T02:54:43.000Z</time>
      </trkpt>
      <trkpt lat="45.0074" lon="5.56472">
        <ele>1976</ele>
        <time>2000-01-01T02:54:53.000Z</time>
      </trkpt>
      <trkpt lat="45.00752" lon="5.56511">
        <ele>1976</ele>
        <time>2000-01-01T02:55:03.000Z</time>
      </trkpt>
      <trkpt lat="45.00755" lon="5.56546">
        <ele>1975</ele>
        <time>2000-01-01T02:55:13.000Z</time>
      </trkpt>
      <trkpt lat="45.00759" lon="5.56587">
        <ele>1975</ele>
        <time>2000-01-01T02:55:23.000Z</time>
      </trkpt>
      <trkpt lat="45.00755" lon="5.56647">
        <ele>1975</ele>
        <time>2000-01-01T02:55:33.000Z</time>
      </trkpt>
      <trkpt lat="45.00761" lon="5.56702">
        <ele>1981</ele>
        <time>2000-01-01T02:55:43.000Z</time>
      </trkpt>
      <trkpt lat="45.00763" lon="5.56741">
        <ele>1993</ele>
        <time>2000-01-01T02:55:53.000Z</time>
      </trkpt>
      <trkpt lat="45.00766" lon="5.56786">
        <ele>1995</ele>
        <time>2000-01-01T02:56:03.000Z</time>
      </trkpt>
      <trkpt lat="45.00769" lon="5.56824">
        <ele>1990</ele>
        <time>2000-01-01T02:56:13.000Z</time>
      </trkpt>
      <trkpt lat="45.00773" lon="5.56874">
        <ele>1986</ele>
        <time>2000-01-01T02:56:23.000Z</time>
      </trkpt>
      <trkpt lat="45.00786" lon="5.56934">
        <ele>1977</ele>
        <time>2000-01-01T02:56:33.000Z</time>
      </trkpt>
      <trkpt lat="45.00793" lon="5.56967">
        <ele>1966</ele>
        <time>2000-01-01T02:56:43.000Z</time>
      </trkpt>
      <trkpt lat="45.00801" lon="5.57004">
        <ele>1968</ele>
        <time>2000-01-01T02:56:53.000Z</time>
      </trkpt>
      <trkpt lat="45.00763" lon="5.57036">
        <ele>1967</ele>
        <time>2000-01-01T02:57:03.000Z</time>
      </trkpt>
      <trkpt lat="45.0075" lon="5.57067">
        <ele>1970</ele>
        <time>2000-01-01T02:57:13.000Z</time>
      </trkpt>
      <trkpt lat="45.00739" lon="5.57104">
        <ele>1974</ele>
        <time>2000-01-01T02:57:23.000Z</time>
      </trkpt>
      <trkpt lat="45.00735" lon="5.57146">
        <ele>1970</ele>
        <time>2000-01-01T02:57:33.000Z</time>
      </trkpt>
      <trkpt lat="45.00743" lon="5.57189">
        <ele>1974</ele>
        <time>2000-01-01T02:57:43.000Z</time>
      </trkpt>
      <trkpt lat="45.00719" lon="5.57197">
        <ele>1979</ele>
        <time>2000-01-01T02:57:53.000Z</time>
      </trkpt>
      <trkpt lat="45.00689" lon="5.57168">
        <ele>1994</ele>
        <time>2000-01-01T02:58:03.000Z</time>
      </trkpt>
      <trkpt lat="45.00653" lon="5.57186">
        <ele>2000</ele>
        <time>2000-01-01T02:58:13.000Z</time>
      </trkpt>
      <trkpt lat="45.0063" lon="5.57197">
        <ele>2003</ele>
        <time>2000-01-01T02:58:23.000Z</time>
      </trkpt>
      <trkpt lat="45.00604" lon="5.57209">
        <ele>2003</ele>
        <time>2000-01-01T02:58:33.000Z</time>
      </trkpt>
      <trkpt lat="45.00583" lon="5.57229">
        <ele>2014</ele>
        <time>2000-01-01T02:58:43.000Z</time>
      </trkpt>
      <trkpt lat="45.00558" lon="5.57252">
        <ele>2024</ele>
        <time>2000-01-01T02:58:53.000Z</time>
      </trkpt>
      <trkpt lat="45.00524" lon="5.57246">
        <ele>2037</ele>
        <time>2000-01-01T02:59:03.000Z</time>
      </trkpt>
      <trkpt lat="45.00499" lon="5.57265">
        <ele>2040</ele>
        <time>2000-01-01T02:59:13.000Z</time>
      </trkpt>
      <trkpt lat="45.00466" lon="5.5729">
        <ele>2046</ele>
        <time>2000-01-01T02:59:23.000Z</time>
      </trkpt>
      <trkpt lat="45.00437" lon="5.57308">
        <ele>2062</ele>
        <time>2000-01-01T02:59:33.000Z</time>
      </trkpt>
      <trkpt lat="45.00412" lon="5.57323">
        <ele>2064</ele>
        <time>2000-01-01T02:59:43.000Z</time>
      </trkpt>
      <trkpt lat="45.0038" lon="5.57344">
        <ele>2067</ele>
        <time>2000-01-01T02:59:53.000Z</time>
      </trkpt>
      <trkpt lat="45.00351" lon="5.57363">
        <ele>2084</ele>
        <time>2000-01-01T03:00:03.000Z</time>
      </trkpt>
      <trkpt lat="45.00314" lon="5.57361">
        <ele>2091</ele>
        <time>2000-01-01T03:00:13.000Z</time>
      </trkpt>
      <trkpt lat="45.00286" lon="5.57388">
        <ele>2098</ele>
        <time>2000-01-01T03:00:23.000Z</time>
      </trkpt>
      <trkpt lat="45.00258" lon="5.57415">
        <ele>2108</ele>
        <time>2000-01-01T03:00:33.000Z</time>
      </trkpt>
      <trkpt lat="45.00238" lon="5.57434">
        <ele>2115</ele>
        <time>2000-01-01T03:00:43.000Z</time>
      </trkpt>
      <trkpt lat="45.00216" lon="5.57455">
        <ele>2116</ele>
        <time>2000-01-01T03:00:53.000Z</time>
      </trkpt>
      <trkpt lat="45.00193" lon="5.57488">
        <ele>2130</ele>
        <time>2000-01-01T03:01:03.000Z</time>
      </trkpt>
      <trkpt lat="45.00169" lon="5.57521">
        <ele>2133</ele>
        <time>2000-01-01T03:01:13.000Z</time>
      </trkpt>
      <trkpt lat="45.00138" lon="5.57564">
        <ele>2123</ele>
        <time>2000-01-01T03:01:23.000Z</time>
      </trkpt>
      <trkpt lat="45.00111" lon="5.57571">
        <ele>2114</ele>
        <time>2000-01-01T03:01:33.000Z</time>
      </trkpt>
      <trkpt lat="45.00073" lon="5.57582">
        <ele>2070</ele>
        <time>2000-01-01T03:01:43.000Z</time>
      </trkpt>
      <trkpt lat="45.00031" lon="5.57608">
        <ele>2045</ele>
        <time>2000-01-01T03:01:53.000Z</time>
      </trkpt>
      <trkpt lat="45.00055" lon="5.57625">
        <ele>2054</ele>
        <time>2000-01-01T03:02:03.000Z</time>
      </trkpt>
      <trkpt lat="45.00089" lon="5.57648">
        <ele>2063</ele>
        <time>2000-01-01T03:02:13.000Z</time>
      </trkpt>
      <trkpt lat="45.00105" lon="5.57674">
        <ele>2049</ele>
        <time>2000-01-01T03:02:23.000Z</time>
      </trkpt>
      <trkpt lat="45.00122" lon="5.57701">
        <ele>2035</ele>
        <time>2000-01-01T03:02:33.000Z</time>
      </trkpt>
      <trkpt lat="45.00156" lon="5.57743">
        <ele>2022</ele>
        <time>2000-01-01T03:02:43.000Z</time>
      </trkpt>
      <trkpt lat="45.0018" lon="5.5775">
        <ele>2025</ele>
        <time>2000-01-01T03:02:53.000Z</time>
      </trkpt>
      <trkpt lat="45.00205" lon="5.57758">
        <ele>2029</ele>
        <time>2000-01-01T03:03:03.000Z</time>
      </trkpt>
      <trkpt lat="45.0025" lon="5.57748">
        <ele>2030</ele>
        <time>2000-01-01T03:03:13.000Z</time>
      </trkpt>
      <trkpt lat="45.00273" lon="5.57728">
        <ele>2044</ele>
        <time>2000-01-01T03:03:23.000Z</time>
      </trkpt>
      <trkpt lat="45.00304" lon="5.57701">
        <ele>2047</ele>
        <time>2000-01-01T03:03:33.000Z</time>
      </trkpt>
      <trkpt lat="45.00329" lon="5.57698">
        <ele>2047</ele>
        <time>2000-01-01T03:03:43.000Z</time>
      </trkpt>
      <trkpt lat="45.00357" lon="5.57696">
        <ele>2052</ele>
        <time>2000-01-01T03:03:53.000Z</time>
      </trkpt>
      <trkpt lat="45.00388" lon="5.57731">
        <ele>2052</ele>
        <time>2000-01-01T03:04:03.000Z</time>
      </trkpt>
      <trkpt lat="45.00422" lon="5.57701">
        <ele>2053</ele>
        <time>2000-01-01T03:04:13.000Z</time>
      </trkpt>
      <trkpt lat="45.00435" lon="5.57692">
        <ele>2043.1</ele>
        <time>2000-01-01T03:04:23.000Z</time>
      </trkpt>
      <trkpt lat="45.00491" lon="5.57715">
        <ele>2057</ele>
        <time>2000-01-01T03:04:33.000Z</time>
      </trkpt>
      <trkpt lat="45.00527" lon="5.57717">
        <ele>2058</ele>
        <time>2000-01-01T03:04:43.000Z</time>
      </trkpt>
      <trkpt lat="45.00556" lon="5.57714">
        <ele>2051</ele>
        <time>2000-01-01T03:04:53.000Z</time>
      </trkpt>
      <trkpt lat="45.00577" lon="5.57691">
        <ele>2052</ele>
        <time>2000-01-01T03:05:03.000Z</time>
      </trkpt>
      <trkpt lat="45.00587" lon="5.57706">
        <ele>2047.5</ele>
        <time>2000-01-01T03:05:13.000Z</time>
      </trkpt>
      <trkpt lat="45.00684" lon="5.57716">
        <ele>2053</ele>
        <time>2000-01-01T03:05:23.000Z</time>
      </trkpt>
      <trkpt lat="45.00719" lon="5.57747">
        <ele>2056</ele>
        <time>2000-01-01T03:05:33.000Z</time>
      </trkpt>
      <trkpt lat="45.00738" lon="5.57744">
        <ele>2056</ele>
        <time>2000-01-01T03:05:43.000Z</time>
      </trkpt>
      <trkpt lat="45.00753" lon="5.57747">
        <ele>2059.1</ele>
        <time>2000-01-01T03:05:53.000Z</time>
      </trkpt>
      <trkpt lat="45.00787" lon="5.57754">
        <ele>2056</ele>
        <time>2000-01-01T03:06:03.000Z</time>
      </trkpt>
      <trkpt lat="45.00816" lon="5.57776">
        <ele>2056</ele>
        <time>2000-01-01T03:06:13.000Z</time>
      </trkpt>
      <trkpt lat="45.00851" lon="5.57766">
        <ele>2046</ele>
        <time>2000-01-01T03:06:23.000Z</time>
      </trkpt>
      <trkpt lat="45.00866" lon="5.57765">
        <ele>2043.5</ele>
        <time>2000-01-01T03:06:33.000Z</time>
      </trkpt>
      <trkpt lat="45.00904" lon="5.57789">
        <ele>2041</ele>
        <time>2000-01-01T03:06:43.000Z</time>
      </trkpt>
      <trkpt lat="45.00929" lon="5.57784">
        <ele>2041</ele>
        <time>2000-01-01T03:06:53.000Z</time>
      </trkpt>
      <trkpt lat="45.00964" lon="5.57817">
        <ele>2038</ele>
        <time>2000-01-01T03:07:03.000Z</time>
      </trkpt>
      <trkpt lat="45.00993" lon="5.5782">
        <ele>2035</ele>
        <time>2000-01-01T03:07:13.000Z</time>
      </trkpt>
      <trkpt lat="45.01005" lon="5.57845">
        <ele>2035</ele>
        <time>2000-01-01T03:07:23.000Z</time>
      </trkpt>
      <trkpt lat="45.0102" lon="5.57845">
        <ele>2004.6</ele>
        <time>2000-01-01T03:07:33.000Z</time>
      </trkpt>
      <trkpt lat="45.01046" lon="5.57861">
        <ele>2035</ele>
        <time>2000-01-01T03:07:43.000Z</time>
      </trkpt>
      <trkpt lat="45.01049" lon="5.57879">
        <ele>1995.6</ele>
        <time>2000-01-01T03:07:53.000Z</time>
      </trkpt>
      <trkpt lat="45.01062" lon="5.57895">
        <ele>2015</ele>
        <time>2000-01-01T03:08:03.000Z</time>
      </trkpt>
      <trkpt lat="45.0108" lon="5.57918">
        <ele>2009</ele>
        <time>2000-01-01T03:08:13.000Z</time>
      </trkpt>
      <trkpt lat="45.01094" lon="5.57937">
        <ele>2009</ele>
        <time>2000-01-01T03:08:23.000Z</time>
      </trkpt>
      <trkpt lat="45.01116" lon="5.57945">
        <ele>2010</ele>
        <time>2000-01-01T03:08:33.000Z</time>
      </trkpt>
      <trkpt lat="45.0114" lon="5.57962">
        <ele>2011</ele>
        <time>2000-01-01T03:08:43.000Z</time>
      </trkpt>
      <trkpt lat="45.01166" lon="5.57964">
        <ele>2011</ele>
        <time>2000-01-01T03:08:53.000Z</time>
      </trkpt>
      <trkpt lat="45.0119" lon="5.57971">
        <ele>2014</ele>
        <time>2000-01-01T03:09:03.000Z</time>
      </trkpt>
      <trkpt lat="45.0122" lon="5.5799">
        <ele>2018</ele>
        <time>2000-01-01T03:09:13.000Z</time>
      </trkpt>
      <trkpt lat="45.01238" lon="5.58013">
        <ele>2021</ele>
        <time>2000-01-01T03:09:23.000Z</time>
      </trkpt>
      <trkpt lat="45.01252" lon="5.58029">
        <ele>2038.1</ele>
        <time>2000-01-01T03:09:33.000Z</time>
      </trkpt>
      <trkpt lat="45.01273" lon="5.58039">
        <ele>2023</ele>
        <time>2000-01-01T03:09:43.000Z</time>
      </trkpt>
      <trkpt lat="45.01299" lon="5.58034">
        <ele>2023</ele>
        <time>2000-01-01T03:09:53.000Z</time>
      </trkpt>
      <trkpt lat="45.01327" lon="5.58045">
        <ele>2023</ele>
        <time>2000-01-01T03:10:03.000Z</time>
      </trkpt>
      <trkpt lat="45.01353" lon="5.58034">
        <ele>2024</ele>
        <time>2000-01-01T03:10:13.000Z</time>
      </trkpt>
      <trkpt lat="45.01393" lon="5.58066">
        <ele>2024</ele>
        <time>2000-01-01T03:10:23.000Z</time>
      </trkpt>
      <trkpt lat="45.01414" lon="5.58082">
        <ele>2036</ele>
        <time>2000-01-01T03:10:33.000Z</time>
      </trkpt>
      <trkpt lat="45.01435" lon="5.58099">
        <ele>2036</ele>
        <time>2000-01-01T03:10:43.000Z</time>
      </trkpt>
      <trkpt lat="45.01473" lon="5.58129">
        <ele>2027</ele>
        <time>2000-01-01T03:10:53.000Z</time>
      </trkpt>
      <trkpt lat="45.01504" lon="5.58139">
        <ele>2027</ele>
        <time>2000-01-01T03:11:03.000Z</time>
      </trkpt>
      <trkpt lat="45.01537" lon="5.58159">
        <ele>2026</ele>
        <time>2000-01-01T03:11:13.000Z</time>
      </trkpt>
      <trkpt lat="45.01526" lon="5.58191">
        <ele>2025</ele>
        <time>2000-01-01T03:11:23.000Z</time>
      </trkpt>
      <trkpt lat="45.01514" lon="5.58226">
        <ele>2022</ele>
        <time>2000-01-01T03:11:33.000Z</time>
      </trkpt>
      <trkpt lat="45.01502" lon="5.58281">
        <ele>2007</ele>
        <time>2000-01-01T03:11:43.000Z</time>
      </trkpt>
      <trkpt lat="45.01504" lon="5.5832">
        <ele>1984</ele>
        <time>2000-01-01T03:11:53.000Z</time>
      </trkpt>
      <trkpt lat="45.0151" lon="5.58356">
        <ele>1970</ele>
        <time>2000-01-01T03:12:03.000Z</time>
      </trkpt>
      <trkpt lat="45.01522" lon="5.58392">
        <ele>1970</ele>
        <time>2000-01-01T03:12:13.000Z</time>
      </trkpt>
      <trkpt lat="45.01549" lon="5.58392">
        <ele>1970</ele>
        <time>2000-01-01T03:12:23.000Z</time>
      </trkpt>
      <trkpt lat="45.01583" lon="5.58392">
        <ele>1963</ele>
        <time>2000-01-01T03:12:33.000Z</time>
      </trkpt>
      <trkpt lat="45.0161" lon="5.58409">
        <ele>1958</ele>
        <time>2000-01-01T03:12:43.000Z</time>
      </trkpt>
      <trkpt lat="45.01628" lon="5.58396">
        <ele>1958</ele>
        <time>2000-01-01T03:12:53.000Z</time>
      </trkpt>
      <trkpt lat="45.01651" lon="5.58408">
        <ele>1955</ele>
        <time>2000-01-01T03:13:03.000Z</time>
      </trkpt>
      <trkpt lat="45.01671" lon="5.58412">
        <ele>1953</ele>
        <time>2000-01-01T03:13:13.000Z</time>
      </trkpt>
      <trkpt lat="45.0168" lon="5.58424">
        <ele>1940.9</ele>
        <time>2000-01-01T03:13:23.000Z</time>
      </trkpt>
      <trkpt lat="45.01714" lon="5.5842">
        <ele>1948</ele>
        <time>2000-01-01T03:13:33.000Z</time>
      </trkpt>
      <trkpt lat="45.01732" lon="5.58409">
        <ele>1944</ele>
        <time>2000-01-01T03:13:43.000Z</time>
      </trkpt>
      <trkpt lat="45.01761" lon="5.58423">
        <ele>1944</ele>
        <time>2000-01-01T03:13:53.000Z</time>
      </trkpt>
      <trkpt lat="45.01785" lon="5.58423">
        <ele>1944</ele>
        <time>2000-01-01T03:14:03.000Z</time>
      </trkpt>
      <trkpt lat="45.01809" lon="5.58423">
        <ele>1939</ele>
        <time>2000-01-01T03:14:13.000Z</time>
      </trkpt>
      <trkpt lat="45.01834" lon="5.58412">
        <ele>1931</ele>
        <time>2000-01-01T03:14:23.000Z</time>
      </trkpt>
      <trkpt lat="45.01865" lon="5.58398">
        <ele>1919</ele>
        <time>2000-01-01T03:14:33.000Z</time>
      </trkpt>
      <trkpt lat="45.01892" lon="5.58407">
        <ele>1911</ele>
        <time>2000-01-01T03:14:43.000Z</time>
      </trkpt>
      <trkpt lat="45.01915" lon="5.58397">
        <ele>1905</ele>
        <time>2000-01-01T03:14:53.000Z</time>
      </trkpt>
      <trkpt lat="45.0194" lon="5.58397">
        <ele>1899</ele>
        <time>2000-01-01T03:15:03.000Z</time>
      </trkpt>
      <trkpt lat="45.01971" lon="5.58396">
        <ele>1899</ele>
        <time>2000-01-01T03:15:13.000Z</time>
      </trkpt>
      <trkpt lat="45.0201" lon="5.58388">
        <ele>1899</ele>
        <time>2000-01-01T03:15:23.000Z</time>
      </trkpt>
      <trkpt lat="45.02044" lon="5.58392">
        <ele>1895</ele>
        <time>2000-01-01T03:15:33.000Z</time>
      </trkpt>
      <trkpt lat="45.02065" lon="5.58378">
        <ele>1888</ele>
        <time>2000-01-01T03:15:43.000Z</time>
      </trkpt>
      <trkpt lat="45.02068" lon="5.58367">
        <ele>1867.1</ele>
        <time>2000-01-01T03:15:53.000Z</time>
      </trkpt>
      <trkpt lat="45.02095" lon="5.58369">
        <ele>1886</ele>
        <time>2000-01-01T03:16:03.000Z</time>
      </trkpt>
      <trkpt lat="45.02126" lon="5.58363">
        <ele>1884</ele>
        <time>2000-01-01T03:16:13.000Z</time>
      </trkpt>
      <trkpt lat="45.02143" lon="5.58334">
        <ele>1837</ele>
        <time>2000-01-01T03:16:23.000Z</time>
      </trkpt>
      <trkpt lat="45.02176" lon="5.58348">
        <ele>1817</ele>
        <time>2000-01-01T03:16:33.000Z</time>
      </trkpt>
      <trkpt lat="45.02188" lon="5.58322">
        <ele>1817</ele>
        <time>2000-01-01T03:16:43.000Z</time>
      </trkpt>
      <trkpt lat="45.0221" lon="5.5829">
        <ele>1791</ele>
        <time>2000-01-01T03:16:53.000Z</time>
      </trkpt>
      <trkpt lat="45.02227" lon="5.58279">
        <ele>1785.2</ele>
        <time>2000-01-01T03:17:03.000Z</time>
      </trkpt>
      <trkpt lat="45.02253" lon="5.58317">
        <ele>1791</ele>
        <time>2000-01-01T03:17:13.000Z</time>
      </trkpt>
      <trkpt lat="45.02288" lon="5.58327">
        <ele>1792</ele>
        <time>2000-01-01T03:17:23.000Z</time>
      </trkpt>
      <trkpt lat="45.02309" lon="5.58346">
        <ele>1794</ele>
        <time>2000-01-01T03:17:33.000Z</time>
      </trkpt>
      <trkpt lat="45.02346" lon="5.58372">
        <ele>1800</ele>
        <time>2000-01-01T03:17:43.000Z</time>
      </trkpt>
      <trkpt lat="45.02371" lon="5.5837">
        <ele>1801</ele>
        <time>2000-01-01T03:17:53.000Z</time>
      </trkpt>
      <trkpt lat="45.02406" lon="5.58383">
        <ele>1800</ele>
        <time>2000-01-01T03:18:03.000Z</time>
      </trkpt>
      <trkpt lat="45.02443" lon="5.58383">
        <ele>1800</ele>
        <time>2000-01-01T03:18:13.000Z</time>
      </trkpt>
      <trkpt lat="45.02462" lon="5.58398">
        <ele>1799</ele>
        <time>2000-01-01T03:18:23.000Z</time>
      </trkpt>
      <trkpt lat="45.02486" lon="5.58403">
        <ele>1799</ele>
        <time>2000-01-01T03:18:33.000Z</time>
      </trkpt>
      <trkpt lat="45.02511" lon="5.58407">
        <ele>1802</ele>
        <time>2000-01-01T03:18:43.000Z</time>
      </trkpt>
      <trkpt lat="45.02536" lon="5.58414">
        <ele>1806</ele>
        <time>2000-01-01T03:18:53.000Z</time>
      </trkpt>
      <trkpt lat="45.02563" lon="5.58422">
        <ele>1806</ele>
        <time>2000-01-01T03:19:03.000Z</time>
      </trkpt>
      <trkpt lat="45.02588" lon="5.58422">
        <ele>1793</ele>
        <time>2000-01-01T03:19:13.000Z</time>
      </trkpt>
      <trkpt lat="45.02617" lon="5.58422">
        <ele>1788</ele>
        <time>2000-01-01T03:19:23.000Z</time>
      </trkpt>
      <trkpt lat="45.02642" lon="5.58429">
        <ele>1785</ele>
        <time>2000-01-01T03:19:33.000Z</time>
      </trkpt>
      <trkpt lat="45.02672" lon="5.58438">
        <ele>1776</ele>
        <time>2000-01-01T03:19:43.000Z</time>
      </trkpt>
      <trkpt lat="45.027" lon="5.58438">
        <ele>1776</ele>
        <time>2000-01-01T03:19:53.000Z</time>
      </trkpt>
      <trkpt lat="45.02738" lon="5.58438">
        <ele>1776</ele>
        <time>2000-01-01T03:20:03.000Z</time>
      </trkpt>
      <trkpt lat="45.02762" lon="5.58446">
        <ele>1776</ele>
        <time>2000-01-01T03:20:13.000Z</time>
      </trkpt>
      <trkpt lat="45.02789" lon="5.58455">
        <ele>1777</ele>
        <time>2000-01-01T03:20:23.000Z</time>
      </trkpt>
      <trkpt lat="45.02834" lon="5.58464">
        <ele>1777</ele>
        <time>2000-01-01T03:20:33.000Z</time>
      </trkpt>
      <trkpt lat="45.02878" lon="5.58488">
        <ele>1777</ele>
        <time>2000-01-01T03:20:43.000Z</time>
      </trkpt>
      <trkpt lat="45.02902" lon="5.58493">
        <ele>1777</ele>
        <time>2000-01-01T03:20:53.000Z</time>
      </trkpt>
      <trkpt lat="45.02926" lon="5.58499">
        <ele>1767</ele>
        <time>2000-01-01T03:21:03.000Z</time>
      </trkpt>
      <trkpt lat="45.02957" lon="5.58516">
        <ele>1764</ele>
        <time>2000-01-01T03:21:13.000Z</time>
      </trkpt>
      <trkpt lat="45.0298" lon="5.58532">
        <ele>1761</ele>
        <time>2000-01-01T03:21:23.000Z</time>
      </trkpt>
      <trkpt lat="45.03006" lon="5.58551">
        <ele>1754</ele>
        <time>2000-01-01T03:21:33.000Z</time>
      </trkpt>
      <trkpt lat="45.03044" lon="5.58586">
        <ele>1747</ele>
        <time>2000-01-01T03:21:43.000Z</time>
      </trkpt>
      <trkpt lat="45.03071" lon="5.58599">
        <ele>1744</ele>
        <time>2000-01-01T03:21:53.000Z</time>
      </trkpt>
      <trkpt lat="45.03097" lon="5.58653">
        <ele>1742</ele>
        <time>2000-01-01T03:22:03.000Z</time>
      </trkpt>
      <trkpt lat="45.03111" lon="5.58684">
        <ele>1735</ele>
        <time>2000-01-01T03:22:13.000Z</time>
      </trkpt>
      <trkpt lat="45.03129" lon="5.58723">
        <ele>1733</ele>
        <time>2000-01-01T03:22:23.000Z</time>
      </trkpt>
      <trkpt lat="45.03144" lon="5.58752">
        <ele>1727</ele>
        <time>2000-01-01T03:22:33.000Z</time>
      </trkpt>
      <trkpt lat="45.03161" lon="5.58788">
        <ele>1726</ele>
        <time>2000-01-01T03:22:43.000Z</time>
      </trkpt>
      <trkpt lat="45.03184" lon="5.58798">
        <ele>1726</ele>
        <time>2000-01-01T03:22:53.000Z</time>
      </trkpt>
      <trkpt lat="45.03207" lon="5.58807">
        <ele>1725</ele>
        <time>2000-01-01T03:23:03.000Z</time>
      </trkpt>
      <trkpt lat="45.03228" lon="5.58823">
        <ele>1725</ele>
        <time>2000-01-01T03:23:13.000Z</time>
      </trkpt>
      <trkpt lat="45.0325" lon="5.5884">
        <ele>1720</ele>
        <time>2000-01-01T03:23:23.000Z</time>
      </trkpt>
      <trkpt lat="45.03277" lon="5.58864">
        <ele>1715</ele>
        <time>2000-01-01T03:23:33.000Z</time>
      </trkpt>
      <trkpt lat="45.03301" lon="5.5887">
        <ele>1712</ele>
        <time>2000-01-01T03:23:43.000Z</time>
      </trkpt>
      <trkpt lat="45.03326" lon="5.58877">
        <ele>1703</ele>
        <time>2000-01-01T03:23:53.000Z</time>
      </trkpt>
      <trkpt lat="45.03361" lon="5.58899">
        <ele>1699</ele>
        <time>2000-01-01T03:24:03.000Z</time>
      </trkpt>
      <trkpt lat="45.03387" lon="5.58925">
        <ele>1696</ele>
        <time>2000-01-01T03:24:13.000Z</time>
      </trkpt>
      <trkpt lat="45.03423" lon="5.58908">
        <ele>1681</ele>
        <time>2000-01-01T03:24:23.000Z</time>
      </trkpt>
      <trkpt lat="45.03448" lon="5.58898">
        <ele>1687</ele>
        <time>2000-01-01T03:24:33.000Z</time>
      </trkpt>
      <trkpt lat="45.03478" lon="5.58886">
        <ele>1676</ele>
        <time>2000-01-01T03:24:43.000Z</time>
      </trkpt>
      <trkpt lat="45.03521" lon="5.5886">
        <ele>1666</ele>
        <time>2000-01-01T03:24:53.000Z</time>
      </trkpt>
      <trkpt lat="45.0355" lon="5.58844">
        <ele>1666</ele>
        <time>2000-01-01T03:25:03.000Z</time>
      </trkpt>
      <trkpt lat="45.03593" lon="5.58842">
        <ele>1666</ele>
        <time>2000-01-01T03:25:13.000Z</time>
      </trkpt>
      <trkpt lat="45.03617" lon="5.5885">
        <ele>1666</ele>
        <time>2000-01-01T03:25:23.000Z</time>
      </trkpt>
      <trkpt lat="45.03644" lon="5.5886">
        <ele>1664</ele>
        <time>2000-01-01T03:25:33.000Z</time>
      </trkpt>
      <trkpt lat="45.03668" lon="5.58874">
        <ele>1667</ele>
        <time>2000-01-01T03:25:43.000Z</time>
      </trkpt>
      <trkpt lat="45.03698" lon="5.58892">
        <ele>1670</ele>
        <time>2000-01-01T03:25:53.000Z</time>
      </trkpt>
      <trkpt lat="45.03739" lon="5.58918">
        <ele>1671</ele>
        <time>2000-01-01T03:26:03.000Z</time>
      </trkpt>
      <trkpt lat="45.03765" lon="5.58923">
        <ele>1672</ele>
        <time>2000-01-01T03:26:13.000Z</time>
      </trkpt>
      <trkpt lat="45.03798" lon="5.58929">
        <ele>1672</ele>
        <time>2000-01-01T03:26:23.000Z</time>
      </trkpt>
      <trkpt lat="45.03827" lon="5.58925">
        <ele>1673</ele>
        <time>2000-01-01T03:26:33.000Z</time>
      </trkpt>
      <trkpt lat="45.03853" lon="5.58948">
        <ele>1678</ele>
        <time>2000-01-01T03:26:43.000Z</time>
      </trkpt>
      <trkpt lat="45.03874" lon="5.58966">
        <ele>1677</ele>
        <time>2000-01-01T03:26:53.000Z</time>
      </trkpt>
      <trkpt lat="45.03899" lon="5.58988">
        <ele>1677</ele>
        <time>2000-01-01T03:27:03.000Z</time>
      </trkpt>
      <trkpt lat="45.03904" lon="5.59016">
        <ele>1678</ele>
        <time>2000-01-01T03:27:13.000Z</time>
      </trkpt>
      <trkpt lat="45.03927" lon="5.59032">
        <ele>1667</ele>
        <time>2000-01-01T03:27:23.000Z</time>
      </trkpt>
      <trkpt lat="45.03968" lon="5.59047">
        <ele>1668</ele>
        <time>2000-01-01T03:27:33.000Z</time>
      </trkpt>
      <trkpt lat="45.03995" lon="5.59075">
        <ele>1669</ele>
        <time>2000-01-01T03:27:43.000Z</time>
      </trkpt>
      <trkpt lat="45.04028" lon="5.59103">
        <ele>1669</ele>
        <time>2000-01-01T03:27:53.000Z</time>
      </trkpt>
      <trkpt lat="45.04053" lon="5.59109">
        <ele>1661</ele>
        <time>2000-01-01T03:28:03.000Z</time>
      </trkpt>
      <trkpt lat="45.04078" lon="5.59114">
        <ele>1661</ele>
        <time>2000-01-01T03:28:13.000Z</time>
      </trkpt>
      <trkpt lat="45.0411" lon="5.59138">
        <ele>1661</ele>
        <time>2000-01-01T03:28:23.000Z</time>
      </trkpt>
      <trkpt lat="45.04133" lon="5.59154">
        <ele>1653</ele>
        <time>2000-01-01T03:28:33.000Z</time>
      </trkpt>
      <trkpt lat="45.04161" lon="5.59173">
        <ele>1646</ele>
        <time>2000-01-01T03:28:43.000Z</time>
      </trkpt>
      <trkpt lat="45.04184" lon="5.59185">
        <ele>1646</ele>
        <time>2000-01-01T03:28:53.000Z</time>
      </trkpt>
      <trkpt lat="45.0421" lon="5.59199">
        <ele>1639</ele>
        <time>2000-01-01T03:29:03.000Z</time>
      </trkpt>
      <trkpt lat="45.04236" lon="5.59203">
        <ele>1633</ele>
        <time>2000-01-01T03:29:13.000Z</time>
      </trkpt>
      <trkpt lat="45.04268" lon="5.59208">
        <ele>1630</ele>
        <time>2000-01-01T03:29:23.000Z</time>
      </trkpt>
      <trkpt lat="45.04292" lon="5.59214">
        <ele>1628</ele>
        <time>2000-01-01T03:29:33.000Z</time>
      </trkpt>
      <trkpt lat="45.04319" lon="5.59221">
        <ele>1625</ele>
        <time>2000-01-01T03:29:43.000Z</time>
      </trkpt>
      <trkpt lat="45.04346" lon="5.59223">
        <ele>1621</ele>
        <time>2000-01-01T03:29:53.000Z</time>
      </trkpt>
      <trkpt lat="45.04379" lon="5.59225">
        <ele>1612</ele>
        <time>2000-01-01T03:30:03.000Z</time>
      </trkpt>
      <trkpt lat="45.04408" lon="5.59226">
        <ele>1612</ele>
        <time>2000-01-01T03:30:13.000Z</time>
      </trkpt>
      <trkpt lat="45.04451" lon="5.59227">
        <ele>1618</ele>
        <time>2000-01-01T03:30:23.000Z</time>
      </trkpt>
      <trkpt lat="45.04482" lon="5.59221">
        <ele>1620</ele>
        <time>2000-01-01T03:30:33.000Z</time>
      </trkpt>
      <trkpt lat="45.04505" lon="5.59191">
        <ele>1622</ele>
        <time>2000-01-01T03:30:43.000Z</time>
      </trkpt>
      <trkpt lat="45.04525" lon="5.59166">
        <ele>1621</ele>
        <time>2000-01-01T03:30:53.000Z</time>
      </trkpt>
      <trkpt lat="45.0455" lon="5.59134">
        <ele>1623</ele>
        <time>2000-01-01T03:31:03.000Z</time>
      </trkpt>
      <trkpt lat="45.04578" lon="5.59124">
        <ele>1625</ele>
        <time>2000-01-01T03:31:13.000Z</time>
      </trkpt>
      <trkpt lat="45.0462" lon="5.5911">
        <ele>1625</ele>
        <time>2000-01-01T03:31:23.000Z</time>
      </trkpt>
      <trkpt lat="45.04643" lon="5.59123">
        <ele>1625</ele>
        <time>2000-01-01T03:31:33.000Z</time>
      </trkpt>
      <trkpt lat="45.04668" lon="5.59138">
        <ele>1624</ele>
        <time>2000-01-01T03:31:43.000Z</time>
      </trkpt>
      <trkpt lat="45.04714" lon="5.59149">
        <ele>1606</ele>
        <time>2000-01-01T03:31:53.000Z</time>
      </trkpt>
      <trkpt lat="45.04746" lon="5.59188">
        <ele>1609</ele>
        <time>2000-01-01T03:32:03.000Z</time>
      </trkpt>
      <trkpt lat="45.04768" lon="5.59216">
        <ele>1604</ele>
        <time>2000-01-01T03:32:13.000Z</time>
      </trkpt>
      <trkpt lat="45.04805" lon="5.59219">
        <ele>1600</ele>
        <time>2000-01-01T03:32:23.000Z</time>
      </trkpt>
      <trkpt lat="45.04832" lon="5.59223">
        <ele>1593</ele>
        <time>2000-01-01T03:32:33.000Z</time>
      </trkpt>
      <trkpt lat="45.04871" lon="5.5923">
        <ele>1580</ele>
        <time>2000-01-01T03:32:43.000Z</time>
      </trkpt>
      <trkpt lat="45.04895" lon="5.59235">
        <ele>1578</ele>
        <time>2000-01-01T03:32:53.000Z</time>
      </trkpt>
      <trkpt lat="45.04922" lon="5.5924">
        <ele>1572</ele>
        <time>2000-01-01T03:33:03.000Z</time>
      </trkpt>
      <trkpt lat="45.04939" lon="5.59249">
        <ele>1579.6</ele>
        <time>2000-01-01T03:33:13.000Z</time>
      </trkpt>
      <trkpt lat="45.04975" lon="5.59236">
        <ele>1554</ele>
        <time>2000-01-01T03:33:23.000Z</time>
      </trkpt>
      <trkpt lat="45.05011" lon="5.59214">
        <ele>1553</ele>
        <time>2000-01-01T03:33:33.000Z</time>
      </trkpt>
      <trkpt lat="45.05043" lon="5.59186">
        <ele>1541</ele>
        <time>2000-01-01T03:33:43.000Z</time>
      </trkpt>
      <trkpt lat="45.05063" lon="5.59162">
        <ele>1535</ele>
        <time>2000-01-01T03:33:53.000Z</time>
      </trkpt>
      <trkpt lat="45.05088" lon="5.59131">
        <ele>1519</ele>
        <time>2000-01-01T03:34:03.000Z</time>
      </trkpt>
      <trkpt lat="45.05097" lon="5.59099">
        <ele>1514</ele>
        <time>2000-01-01T03:34:13.000Z</time>
      </trkpt>
      <trkpt lat="45.05107" lon="5.59064">
        <ele>1515</ele>
        <time>2000-01-01T03:34:23.000Z</time>
      </trkpt>
      <trkpt lat="45.0514" lon="5.59082">
        <ele>1516</ele>
        <time>2000-01-01T03:34:33.000Z</time>
      </trkpt>
      <trkpt lat="45.05173" lon="5.591">
        <ele>1518</ele>
        <time>2000-01-01T03:34:43.000Z</time>
      </trkpt>
      <trkpt lat="45.052" lon="5.59114">
        <ele>1529</ele>
        <time>2000-01-01T03:34:53.000Z</time>
      </trkpt>
      <trkpt lat="45.05239" lon="5.59135">
        <ele>1530</ele>
        <time>2000-01-01T03:35:03.000Z</time>
      </trkpt>
      <trkpt lat="45.05235" lon="5.59094">
        <ele>1525</ele>
        <time>2000-01-01T03:35:13.000Z</time>
      </trkpt>
      <trkpt lat="45.05231" lon="5.5906">
        <ele>1521</ele>
        <time>2000-01-01T03:35:23.000Z</time>
      </trkpt>
      <trkpt lat="45.05228" lon="5.59025">
        <ele>1510</ele>
        <time>2000-01-01T03:35:33.000Z</time>
      </trkpt>
      <trkpt lat="45.05251" lon="5.58992">
        <ele>1506</ele>
        <time>2000-01-01T03:35:43.000Z</time>
      </trkpt>
      <trkpt lat="45.05257" lon="5.58951">
        <ele>1492</ele>
        <time>2000-01-01T03:35:53.000Z</time>
      </trkpt>
      <trkpt lat="45.05237" lon="5.58928">
        <ele>1486</ele>
        <time>2000-01-01T03:36:03.000Z</time>
      </trkpt>
      <trkpt lat="45.05242" lon="5.58888">
        <ele>1478</ele>
        <time>2000-01-01T03:36:13.000Z</time>
      </trkpt>
      <trkpt lat="45.05249" lon="5.58839">
        <ele>1466</ele>
        <time>2000-01-01T03:36:23.000Z</time>
      </trkpt>
      <trkpt lat="45.05266" lon="5.58822">
        <ele>1466</ele>
        <time>2000-01-01T03:36:33.000Z</time>
      </trkpt>
      <trkpt lat="45.05264" lon="5.58799">
        <ele>1462.9</ele>
        <time>2000-01-01T03:36:43.000Z</time>
      </trkpt>
      <trkpt lat="45.05277" lon="5.58768">
        <ele>1453</ele>
        <time>2000-01-01T03:36:53.000Z</time>
      </trkpt>
      <trkpt lat="45.05292" lon="5.58734">
        <ele>1448</ele>
        <time>2000-01-01T03:37:03.000Z</time>
      </trkpt>
      <trkpt lat="45.05302" lon="5.58691">
        <ele>1443</ele>
        <time>2000-01-01T03:37:13.000Z</time>
      </trkpt>
      <trkpt lat="45.05297" lon="5.58643">
        <ele>1442</ele>
        <time>2000-01-01T03:37:23.000Z</time>
      </trkpt>
      <trkpt lat="45.05309" lon="5.58614">
        <ele>1439</ele>
        <time>2000-01-01T03:37:33.000Z</time>
      </trkpt>
      <trkpt lat="45.05322" lon="5.58585">
        <ele>1431</ele>
        <time>2000-01-01T03:37:43.000Z</time>
      </trkpt>
      <trkpt lat="45.05298" lon="5.58586">
        <ele>1427</ele>
        <time>2000-01-01T03:37:53.000Z</time>
      </trkpt>
      <trkpt lat="45.05258" lon="5.58605">
        <ele>1425</ele>
        <time>2000-01-01T03:38:03.000Z</time>
      </trkpt>
      <trkpt lat="45.0524" lon="5.58612">
        <ele>1438</ele>
        <time>2000-01-01T03:38:13.000Z</time>
      </trkpt>
      <trkpt lat="45.05207" lon="5.58659">
        <ele>1430</ele>
        <time>2000-01-01T03:38:23.000Z</time>
      </trkpt>
      <trkpt lat="45.05174" lon="5.5867">
        <ele>1436</ele>
        <time>2000-01-01T03:38:33.000Z</time>
      </trkpt>
      <trkpt lat="45.05152" lon="5.58622">
        <ele>1438</ele>
        <time>2000-01-01T03:38:43.000Z</time>
      </trkpt>
      <trkpt lat="45.05111" lon="5.58607">
        <ele>1434</ele>
        <time>2000-01-01T03:38:53.000Z</time>
      </trkpt>
      <trkpt lat="45.05103" lon="5.58544">
        <ele>1434</ele>
        <time>2000-01-01T03:39:03.000Z</time>
      </trkpt>
      <trkpt lat="45.05128" lon="5.58503">
        <ele>1434</ele>
        <time>2000-01-01T03:39:13.000Z</time>
      </trkpt>
      <trkpt lat="45.05157" lon="5.58466">
        <ele>1433</ele>
        <time>2000-01-01T03:39:23.000Z</time>
      </trkpt>
      <trkpt lat="45.05149" lon="5.58438">
        <ele>1433</ele>
        <time>2000-01-01T03:39:33.000Z</time>
      </trkpt>
      <trkpt lat="45.05125" lon="5.58431">
        <ele>1434</ele>
        <time>2000-01-01T03:39:43.000Z</time>
      </trkpt>
      <trkpt lat="45.05101" lon="5.58424">
        <ele>1434</ele>
        <time>2000-01-01T03:39:53.000Z</time>
      </trkpt>
      <trkpt lat="45.05074" lon="5.58424">
        <ele>1434</ele>
        <time>2000-01-01T03:40:03.000Z</time>
      </trkpt>
      <trkpt lat="45.05038" lon="5.58422">
        <ele>1422</ele>
        <time>2000-01-01T03:40:13.000Z</time>
      </trkpt>
      <trkpt lat="45.04997" lon="5.58433">
        <ele>1408</ele>
        <time>2000-01-01T03:40:23.000Z</time>
      </trkpt>
      <trkpt lat="45.04966" lon="5.58438">
        <ele>1403</ele>
        <time>2000-01-01T03:40:33.000Z</time>
      </trkpt>
      <trkpt lat="45.04937" lon="5.58429">
        <ele>1400</ele>
        <time>2000-01-01T03:40:43.000Z</time>
      </trkpt>
      <trkpt lat="45.04912" lon="5.58429">
        <ele>1400</ele>
        <time>2000-01-01T03:40:53.000Z</time>
      </trkpt>
      <trkpt lat="45.0488" lon="5.58468">
        <ele>1398</ele>
        <time>2000-01-01T03:41:03.000Z</time>
      </trkpt>
      <trkpt lat="45.04859" lon="5.5849">
        <ele>1398</ele>
        <time>2000-01-01T03:41:13.000Z</time>
      </trkpt>
      <trkpt lat="45.04834" lon="5.5847">
        <ele>1390</ele>
        <time>2000-01-01T03:41:23.000Z</time>
      </trkpt>
      <trkpt lat="45.04822" lon="5.58407">
        <ele>1383</ele>
        <time>2000-01-01T03:41:33.000Z</time>
      </trkpt>
      <trkpt lat="45.04809" lon="5.58346">
        <ele>1374</ele>
        <time>2000-01-01T03:41:43.000Z</time>
      </trkpt>
      <trkpt lat="45.04786" lon="5.58305">
        <ele>1375</ele>
        <time>2000-01-01T03:41:53.000Z</time>
      </trkpt>
      <trkpt lat="45.04761" lon="5.5832">
        <ele>1367</ele>
        <time>2000-01-01T03:42:03.000Z</time>
      </trkpt>
      <trkpt lat="45.04736" lon="5.5832">
        <ele>1359</ele>
        <time>2000-01-01T03:42:13.000Z</time>
      </trkpt>
      <trkpt lat="45.04733" lon="5.58294">
        <ele>1358.2</ele>
        <time>2000-01-01T03:42:23.000Z</time>
      </trkpt>
      <trkpt lat="45.047" lon="5.58264">
        <ele>1350</ele>
        <time>2000-01-01T03:42:33.000Z</time>
      </trkpt>
      <trkpt lat="45.04673" lon="5.58257">
        <ele>1348</ele>
        <time>2000-01-01T03:42:43.000Z</time>
      </trkpt>
      <trkpt lat="45.04637" lon="5.58248">
        <ele>1346</ele>
        <time>2000-01-01T03:42:53.000Z</time>
      </trkpt>
      <trkpt lat="45.04608" lon="5.58222">
        <ele>1341</ele>
        <time>2000-01-01T03:43:03.000Z</time>
      </trkpt>
      <trkpt lat="45.04591" lon="5.58194">
        <ele>1336</ele>
        <time>2000-01-01T03:43:13.000Z</time>
      </trkpt>
      <trkpt lat="45.04571" lon="5.58159">
        <ele>1330</ele>
        <time>2000-01-01T03:43:23.000Z</time>
      </trkpt>
      <trkpt lat="45.04549" lon="5.58139">
        <ele>1330</ele>
        <time>2000-01-01T03:43:33.000Z</time>
      </trkpt>
      <trkpt lat="45.04522" lon="5.58128">
        <ele>1329</ele>
        <time>2000-01-01T03:43:43.000Z</time>
      </trkpt>
      <trkpt lat="45.04487" lon="5.58122">
        <ele>1328</ele>
        <time>2000-01-01T03:43:53.000Z</time>
      </trkpt>
      <trkpt lat="45.04457" lon="5.58079">
        <ele>1326</ele>
        <time>2000-01-01T03:44:03.000Z</time>
      </trkpt>
      <trkpt lat="45.04479" lon="5.5803">
        <ele>1332</ele>
        <time>2000-01-01T03:44:13.000Z</time>
      </trkpt>
      <trkpt lat="45.04502" lon="5.57983">
        <ele>1335</ele>
        <time>2000-01-01T03:44:23.000Z</time>
      </trkpt>
      <trkpt lat="45.04505" lon="5.5795">
        <ele>1338</ele>
        <time>2000-01-01T03:44:33.000Z</time>
      </trkpt>
      <trkpt lat="45.04475" lon="5.5795">
        <ele>1338</ele>
        <time>2000-01-01T03:44:43.000Z</time>
      </trkpt>
      <trkpt lat="45.04451" lon="5.57946">
        <ele>1342</ele>
        <time>2000-01-01T03:44:53.000Z</time>
      </trkpt>
      <trkpt lat="45.04426" lon="5.57942">
        <ele>1341</ele>
        <time>2000-01-01T03:45:03.000Z</time>
      </trkpt>
      <trkpt lat="45.04384" lon="5.57941">
        <ele>1341</ele>
        <time>2000-01-01T03:45:13.000Z</time>
      </trkpt>
      <trkpt lat="45.04359" lon="5.57946">
        <ele>1337</ele>
        <time>2000-01-01T03:45:23.000Z</time>
      </trkpt>
      <trkpt lat="45.04334" lon="5.5795">
        <ele>1334</ele>
        <time>2000-01-01T03:45:33.000Z</time>
      </trkpt>
      <trkpt lat="45.04311" lon="5.57955">
        <ele>1329</ele>
        <time>2000-01-01T03:45:43.000Z</time>
      </trkpt>
      <trkpt lat="45.04287" lon="5.57959">
        <ele>1332</ele>
        <time>2000-01-01T03:45:53.000Z</time>
      </trkpt>
      <trkpt lat="45.04259" lon="5.57966">
        <ele>1330</ele>
        <time>2000-01-01T03:46:03.000Z</time>
      </trkpt>
      <trkpt lat="45.04219" lon="5.57976">
        <ele>1329</ele>
        <time>2000-01-01T03:46:13.000Z</time>
      </trkpt>
      <trkpt lat="45.04182" lon="5.57996">
        <ele>1328</ele>
        <time>2000-01-01T03:46:23.000Z</time>
      </trkpt>
      <trkpt lat="45.04153" lon="5.58013">
        <ele>1328</ele>
        <time>2000-01-01T03:46:33.000Z</time>
      </trkpt>
      <trkpt lat="45.04121" lon="5.58012">
        <ele>1329</ele>
        <time>2000-01-01T03:46:43.000Z</time>
      </trkpt>
      <trkpt lat="45.04088" lon="5.58004">
        <ele>1333</ele>
        <time>2000-01-01T03:46:53.000Z</time>
      </trkpt>
      <trkpt lat="45.04048" lon="5.57988">
        <ele>1338</ele>
        <time>2000-01-01T03:47:03.000Z</time>
      </trkpt>
      <trkpt lat="45.04019" lon="5.57972">
        <ele>1338</ele>
        <time>2000-01-01T03:47:13.000Z</time>
      </trkpt>
      <trkpt lat="45.03995" lon="5.5798">
        <ele>1338</ele>
        <time>2000-01-01T03:47:23.000Z</time>
      </trkpt>
      <trkpt lat="45.0397" lon="5.57989">
        <ele>1343</ele>
        <time>2000-01-01T03:47:33.000Z</time>
      </trkpt>
      <trkpt lat="45.03932" lon="5.58">
        <ele>1348</ele>
        <time>2000-01-01T03:47:43.000Z</time>
      </trkpt>
      <trkpt lat="45.03904" lon="5.58023">
        <ele>1361</ele>
        <time>2000-01-01T03:47:53.000Z</time>
      </trkpt>
      <trkpt lat="45.03875" lon="5.58046">
        <ele>1368</ele>
        <time>2000-01-01T03:48:03.000Z</time>
      </trkpt>
      <trkpt lat="45.03841" lon="5.58074">
        <ele>1381</ele>
        <time>2000-01-01T03:48:13.000Z</time>
      </trkpt>
      <trkpt lat="45.03818" lon="5.58031">
        <ele>1382</ele>
        <time>2000-01-01T03:48:23.000Z</time>
      </trkpt>
      <trkpt lat="45.03818" lon="5.57992">
        <ele>1383</ele>
        <time>2000-01-01T03:48:33.000Z</time>
      </trkpt>
      <trkpt lat="45.03789" lon="5.57972">
        <ele>1395</ele>
        <time>2000-01-01T03:48:43.000Z</time>
      </trkpt>
      <trkpt lat="45.03769" lon="5.5796">
        <ele>1410</ele>
        <time>2000-01-01T03:48:53.000Z</time>
      </trkpt>
      <trkpt lat="45.03738" lon="5.57948">
        <ele>1413</ele>
        <time>2000-01-01T03:49:03.000Z</time>
      </trkpt>
      <trkpt lat="45.03744" lon="5.57896">
        <ele>1417</ele>
        <time>2000-01-01T03:49:13.000Z</time>
      </trkpt>
      <trkpt lat="45.03756" lon="5.57841">
        <ele>1423</ele>
        <time>2000-01-01T03:49:23.000Z</time>
      </trkpt>
      <trkpt lat="45.03761" lon="5.57805">
        <ele>1426</ele>
        <time>2000-01-01T03:49:33.000Z</time>
      </trkpt>
      <trkpt lat="45.03766" lon="5.57763">
        <ele>1429</ele>
        <time>2000-01-01T03:49:43.000Z</time>
      </trkpt>
      <trkpt lat="45.03785" lon="5.57728">
        <ele>1430</ele>
        <time>2000-01-01T03:49:53.000Z</time>
      </trkpt>
      <trkpt lat="45.03802" lon="5.57699">
        <ele>1431</ele>
        <time>2000-01-01T03:50:03.000Z</time>
      </trkpt>
      <trkpt lat="45.03822" lon="5.57663">
        <ele>1435</ele>
        <time>2000-01-01T03:50:13.000Z</time>
      </trkpt>
      <trkpt lat="45.03809" lon="5.57633">
        <ele>1444</ele>
        <time>2000-01-01T03:50:23.000Z</time>
      </trkpt>
      <trkpt lat="45.03799" lon="5.57613">
        <ele>1437.1</ele>
        <time>2000-01-01T03:50:33.000Z</time>
      </trkpt>
      <trkpt lat="45.03812" lon="5.57587">
        <ele>1452</ele>
        <time>2000-01-01T03:50:43.000Z</time>
      </trkpt>
      <trkpt lat="45.03795" lon="5.57578">
        <ele>1451.6</ele>
        <time>2000-01-01T03:50:53.000Z</time>
      </trkpt>
      <trkpt lat="45.03822" lon="5.57561">
        <ele>1463</ele>
        <time>2000-01-01T03:51:03.000Z</time>
      </trkpt>
      <trkpt lat="45.03806" lon="5.57539">
        <ele>1475</ele>
        <time>2000-01-01T03:51:13.000Z</time>
      </trkpt>
      <trkpt lat="45.03776" lon="5.57541">
        <ele>1481</ele>
        <time>2000-01-01T03:51:23.000Z</time>
      </trkpt>
      <trkpt lat="45.03747" lon="5.57537">
        <ele>1491</ele>
        <time>2000-01-01T03:51:33.000Z</time>
      </trkpt>
      <trkpt lat="45.03701" lon="5.57532">
        <ele>1512</ele>
        <time>2000-01-01T03:51:43.000Z</time>
      </trkpt>
      <trkpt lat="45.03703" lon="5.575">
        <ele>1519</ele>
        <time>2000-01-01T03:51:53.000Z</time>
      </trkpt>
      <trkpt lat="45.03704" lon="5.57474">
        <ele>1504</ele>
        <time>2000-01-01T03:52:03.000Z</time>
      </trkpt>
      <trkpt lat="45.03735" lon="5.57456">
        <ele>1521</ele>
        <time>2000-01-01T03:52:13.000Z</time>
      </trkpt>
      <trkpt lat="45.03703" lon="5.57426">
        <ele>1524</ele>
        <time>2000-01-01T03:52:23.000Z</time>
      </trkpt>
      <trkpt lat="45.03698" lon="5.57378">
        <ele>1524</ele>
        <time>2000-01-01T03:52:33.000Z</time>
      </trkpt>
      <trkpt lat="45.03732" lon="5.57352">
        <ele>1524</ele>
        <time>2000-01-01T03:52:43.000Z</time>
      </trkpt>
      <trkpt lat="45.03741" lon="5.57308">
        <ele>1522</ele>
        <time>2000-01-01T03:52:53.000Z</time>
      </trkpt>
      <trkpt lat="45.03749" lon="5.57254">
        <ele>1522</ele>
        <time>2000-01-01T03:53:03.000Z</time>
      </trkpt>
      <trkpt lat="45.03766" lon="5.57226">
        <ele>1522</ele>
        <time>2000-01-01T03:53:13.000Z</time>
      </trkpt>
      <trkpt lat="45.03787" lon="5.57193">
        <ele>1519</ele>
        <time>2000-01-01T03:53:23.000Z</time>
      </trkpt>
      <trkpt lat="45.0378" lon="5.57143">
        <ele>1524</ele>
        <time>2000-01-01T03:53:33.000Z</time>
      </trkpt>
      <trkpt lat="45.03755" lon="5.57109">
        <ele>1529</ele>
        <time>2000-01-01T03:53:43.000Z</time>
      </trkpt>
      <trkpt lat="45.03725" lon="5.57113">
        <ele>1537</ele>
        <time>2000-01-01T03:53:53.000Z</time>
      </trkpt>
      <trkpt lat="45.037" lon="5.57117">
        <ele>1543</ele>
        <time>2000-01-01T03:54:03.000Z</time>
      </trkpt>
      <trkpt lat="45.03673" lon="5.57122">
        <ele>1548</ele>
        <time>2000-01-01T03:54:13.000Z</time>
      </trkpt>
      <trkpt lat="45.03638" lon="5.57122">
        <ele>1559</ele>
        <time>2000-01-01T03:54:23.000Z</time>
      </trkpt>
      <trkpt lat="45.03604" lon="5.57122">
        <ele>1570</ele>
        <time>2000-01-01T03:54:33.000Z</time>
      </trkpt>
      <trkpt lat="45.03578" lon="5.57122">
        <ele>1571</ele>
        <time>2000-01-01T03:54:43.000Z</time>
      </trkpt>
      <trkpt lat="45.03546" lon="5.57122">
        <ele>1570</ele>
        <time>2000-01-01T03:54:53.000Z</time>
      </trkpt>
      <trkpt lat="45.03516" lon="5.57118">
        <ele>1569</ele>
        <time>2000-01-01T03:55:03.000Z</time>
      </trkpt>
      <trkpt lat="45.03491" lon="5.57115">
        <ele>1569</ele>
        <time>2000-01-01T03:55:13.000Z</time>
      </trkpt>
      <trkpt lat="45.03463" lon="5.57112">
        <ele>1574</ele>
        <time>2000-01-01T03:55:23.000Z</time>
      </trkpt>
      <trkpt lat="45.03437" lon="5.57093">
        <ele>1601</ele>
        <time>2000-01-01T03:55:33.000Z</time>
      </trkpt>
      <trkpt lat="45.03398" lon="5.57065">
        <ele>1609</ele>
        <time>2000-01-01T03:55:43.000Z</time>
      </trkpt>
      <trkpt lat="45.03362" lon="5.57024">
        <ele>1608</ele>
        <time>2000-01-01T03:55:53.000Z</time>
      </trkpt>
      <trkpt lat="45.03326" lon="5.57004">
        <ele>1609</ele>
        <time>2000-01-01T03:56:03.000Z</time>
      </trkpt>
      <trkpt lat="45.03313" lon="5.57004">
        <ele>1613.3</ele>
        <time>2000-01-01T03:56:13.000Z</time>
      </trkpt>
      <trkpt lat="45.033" lon="5.57005">
        <ele>1611</ele>
        <time>2000-01-01T03:56:23.000Z</time>
      </trkpt>
      <trkpt lat="45.0329" lon="5.5701">
        <ele>1617.7</ele>
        <time>2000-01-01T03:56:33.000Z</time>
      </trkpt>
      <trkpt lat="45.03281" lon="5.57013">
        <ele>1611</ele>
        <time>2000-01-01T03:56:43.000Z</time>
      </trkpt>
      <trkpt lat="45.03272" lon="5.57015">
        <ele>1621.1</ele>
        <time>2000-01-01T03:56:53.000Z</time>
      </trkpt>
      <trkpt lat="45.03266" lon="5.56999">
        <ele>1630</ele>
        <time>2000-01-01T03:57:03.000Z</time>
      </trkpt>
      <trkpt lat="45.03266" lon="5.56984">
        <ele>1623</ele>
        <time>2000-01-01T03:57:13.000Z</time>
      </trkpt>
      <trkpt lat="45.03266" lon="5.56962">
        <ele>1636</ele>
        <time>2000-01-01T03:57:23.000Z</time>
      </trkpt>
      <trkpt lat="45.03267" lon="5.56933">
        <ele>1645</ele>
        <time>2000-01-01T03:57:33.000Z</time>
      </trkpt>
      <trkpt lat="45.03267" lon="5.56895">
        <ele>1645</ele>
        <time>2000-01-01T03:57:43.000Z</time>
      </trkpt>
      <trkpt lat="45.03266" lon="5.56872">
        <ele>1635</ele>
        <time>2000-01-01T03:57:53.000Z</time>
      </trkpt>
      <trkpt lat="45.03267" lon="5.5684">
        <ele>1645</ele>
        <time>2000-01-01T03:58:03.000Z</time>
      </trkpt>
      <trkpt lat="45.03261" lon="5.56803">
        <ele>1645</ele>
        <time>2000-01-01T03:58:13.000Z</time>
      </trkpt>
      <trkpt lat="45.03244" lon="5.56774">
        <ele>1649</ele>
        <time>2000-01-01T03:58:23.000Z</time>
      </trkpt>
      <trkpt lat="45.03212" lon="5.56789">
        <ele>1660</ele>
        <time>2000-01-01T03:58:33.000Z</time>
      </trkpt>
      <trkpt lat="45.0319" lon="5.56758">
        <ele>1661</ele>
        <time>2000-01-01T03:58:43.000Z</time>
      </trkpt>
      <trkpt lat="45.03188" lon="5.56737">
        <ele>1655.8</ele>
        <time>2000-01-01T03:58:53.000Z</time>
      </trkpt>
      <trkpt lat="45.03182" lon="5.56723">
        <ele>1662</ele>
        <time>2000-01-01T03:59:03.000Z</time>
      </trkpt>
      <trkpt lat="45.03173" lon="5.56707">
        <ele>1652.3</ele>
        <time>2000-01-01T03:59:13.000Z</time>
      </trkpt>
      <trkpt lat="45.03154" lon="5.56691">
        <ele>1662</ele>
        <time>2000-01-01T03:59:23.000Z</time>
      </trkpt>
      <trkpt lat="45.03135" lon="5.56677">
        <ele>1663</ele>
        <time>2000-01-01T03:59:33.000Z</time>
      </trkpt>
      <trkpt lat="45.03116" lon="5.56681">
        <ele>1652.3</ele>
        <time>2000-01-01T03:59:43.000Z</time>
      </trkpt>
      <trkpt lat="45.03098" lon="5.56669">
        <ele>1663</ele>
        <time>2000-01-01T03:59:53.000Z</time>
      </trkpt>
      <trkpt lat="45.03067" lon="5.56639">
        <ele>1655</ele>
        <time>2000-01-01T04:00:03.000Z</time>
      </trkpt>
      <trkpt lat="45.0303" lon="5.56608">
        <ele>1647</ele>
        <time>2000-01-01T04:00:13.000Z</time>
      </trkpt>
      <trkpt lat="45.02989" lon="5.56592">
        <ele>1630</ele>
        <time>2000-01-01T04:00:23.000Z</time>
      </trkpt>
      <trkpt lat="45.02955" lon="5.56584">
        <ele>1631</ele>
        <time>2000-01-01T04:00:33.000Z</time>
      </trkpt>
      <trkpt lat="45.02925" lon="5.56578">
        <ele>1630</ele>
        <time>2000-01-01T04:00:43.000Z</time>
      </trkpt>
      <trkpt lat="45.02884" lon="5.5656">
        <ele>1632</ele>
        <time>2000-01-01T04:00:53.000Z</time>
      </trkpt>
      <trkpt lat="45.02869" lon="5.56537">
        <ele>1628</ele>
        <time>2000-01-01T04:01:03.000Z</time>
      </trkpt>
      <trkpt lat="45.0287" lon="5.56501">
        <ele>1625</ele>
        <time>2000-01-01T04:01:13.000Z</time>
      </trkpt>
      <trkpt lat="45.02868" lon="5.56454">
        <ele>1609</ele>
        <time>2000-01-01T04:01:23.000Z</time>
      </trkpt>
      <trkpt lat="45.02859" lon="5.56406">
        <ele>1602</ele>
        <time>2000-01-01T04:01:33.000Z</time>
      </trkpt>
      <trkpt lat="45.02852" lon="5.56362">
        <ele>1599</ele>
        <time>2000-01-01T04:01:43.000Z</time>
      </trkpt>
      <trkpt lat="45.02855" lon="5.56336">
        <ele>1591.6</ele>
        <time>2000-01-01T04:01:53.000Z</time>
      </trkpt>
      <trkpt lat="45.02848" lon="5.56307">
        <ele>1598</ele>
        <time>2000-01-01T04:02:03.000Z</time>
      </trkpt>
      <trkpt lat="45.02837" lon="5.56276">
        <ele>1586</ele>
        <time>2000-01-01T04:02:13.000Z</time>
      </trkpt>
      <trkpt lat="45.02824" lon="5.56242">
        <ele>1585</ele>
        <time>2000-01-01T04:02:23.000Z</time>
      </trkpt>
      <trkpt lat="45.02794" lon="5.56232">
        <ele>1584</ele>
        <time>2000-01-01T04:02:33.000Z</time>
      </trkpt>
      <trkpt lat="45.02769" lon="5.56223">
        <ele>1583</ele>
        <time>2000-01-01T04:02:43.000Z</time>
      </trkpt>
      <trkpt lat="45.02739" lon="5.56212">
        <ele>1574</ele>
        <time>2000-01-01T04:02:53.000Z</time>
      </trkpt>
      <trkpt lat="45.02723" lon="5.56183">
        <ele>1574</ele>
        <time>2000-01-01T04:03:03.000Z</time>
      </trkpt>
      <trkpt lat="45.02713" lon="5.56138">
        <ele>1574</ele>
        <time>2000-01-01T04:03:13.000Z</time>
      </trkpt>
      <trkpt lat="45.02698" lon="5.56109">
        <ele>1574</ele>
        <time>2000-01-01T04:03:23.000Z</time>
      </trkpt>
      <trkpt lat="45.02682" lon="5.56076">
        <ele>1575</ele>
        <time>2000-01-01T04:03:33.000Z</time>
      </trkpt>
      <trkpt lat="45.02669" lon="5.56051">
        <ele>1576</ele>
        <time>2000-01-01T04:03:43.000Z</time>
      </trkpt>
      <trkpt lat="45.02657" lon="5.56025">
        <ele>1576</ele>
        <time>2000-01-01T04:03:53.000Z</time>
      </trkpt>
      <trkpt lat="45.02639" lon="5.55985">
        <ele>1570</ele>
        <time>2000-01-01T04:04:03.000Z</time>
      </trkpt>
      <trkpt lat="45.02621" lon="5.55948">
        <ele>1567</ele>
        <time>2000-01-01T04:04:13.000Z</time>
      </trkpt>
      <trkpt lat="45.02609" lon="5.55918">
        <ele>1562</ele>
        <time>2000-01-01T04:04:23.000Z</time>
      </trkpt>
      <trkpt lat="45.02596" lon="5.55888">
        <ele>1559</ele>
        <time>2000-01-01T04:04:33.000Z</time>
      </trkpt>
      <trkpt lat="45.02577" lon="5.5584">
        <ele>1556</ele>
        <time>2000-01-01T04:04:43.000Z</time>
      </trkpt>
      <trkpt lat="45.02555" lon="5.55805">
        <ele>1554</ele>
        <time>2000-01-01T04:04:53.000Z</time>
      </trkpt>
      <trkpt lat="45.02543" lon="5.55773">
        <ele>1553</ele>
        <time>2000-01-01T04:05:03.000Z</time>
      </trkpt>
      <trkpt lat="45.0253" lon="5.55736">
        <ele>1553</ele>
        <time>2000-01-01T04:05:13.000Z</time>
      </trkpt>
      <trkpt lat="45.02514" lon="5.55706">
        <ele>1553</ele>
        <time>2000-01-01T04:05:23.000Z</time>
      </trkpt>
      <trkpt lat="45.02496" lon="5.55671">
        <ele>1553</ele>
        <time>2000-01-01T04:05:33.000Z</time>
      </trkpt>
      <trkpt lat="45.02475" lon="5.55641">
        <ele>1551</ele>
        <time>2000-01-01T04:05:43.000Z</time>
      </trkpt>
      <trkpt lat="45.02442" lon="5.55594">
        <ele>1551</ele>
        <time>2000-01-01T04:05:53.000Z</time>
      </trkpt>
      <trkpt lat="45.02422" lon="5.55563">
        <ele>1551</ele>
        <time>2000-01-01T04:06:03.000Z</time>
      </trkpt>
      <trkpt lat="45.02409" lon="5.5552">
        <ele>1549</ele>
        <time>2000-01-01T04:06:13.000Z</time>
      </trkpt>
      <trkpt lat="45.02393" lon="5.55474">
        <ele>1547</ele>
        <time>2000-01-01T04:06:23.000Z</time>
      </trkpt>
      <trkpt lat="45.02366" lon="5.55439">
        <ele>1546</ele>
        <time>2000-01-01T04:06:33.000Z</time>
      </trkpt>
      <trkpt lat="45.02337" lon="5.55412">
        <ele>1546</ele>
        <time>2000-01-01T04:06:43.000Z</time>
      </trkpt>
      <trkpt lat="45.0231" lon="5.55376">
        <ele>1527</ele>
        <time>2000-01-01T04:06:53.000Z</time>
      </trkpt>
      <trkpt lat="45.02284" lon="5.55326">
        <ele>1523</ele>
        <time>2000-01-01T04:07:03.000Z</time>
      </trkpt>
      <trkpt lat="45.02292" lon="5.55292">
        <ele>1523</ele>
        <time>2000-01-01T04:07:13.000Z</time>
      </trkpt>
      <trkpt lat="45.0231" lon="5.55242">
        <ele>1521</ele>
        <time>2000-01-01T04:07:23.000Z</time>
      </trkpt>
      <trkpt lat="45.02294" lon="5.55212">
        <ele>1521</ele>
        <time>2000-01-01T04:07:33.000Z</time>
      </trkpt>
      <trkpt lat="45.02302" lon="5.55163">
        <ele>1504</ele>
        <time>2000-01-01T04:07:43.000Z</time>
      </trkpt>
      <trkpt lat="45.02317" lon="5.55123">
        <ele>1501</ele>
        <time>2000-01-01T04:07:53.000Z</time>
      </trkpt>
      <trkpt lat="45.02325" lon="5.55083">
        <ele>1498</ele>
        <time>2000-01-01T04:08:03.000Z</time>
      </trkpt>
      <trkpt lat="45.02317" lon="5.55062">
        <ele>1489.4</ele>
        <time>2000-01-01T04:08:13.000Z</time>
      </trkpt>
      <trkpt lat="45.02296" lon="5.55011">
        <ele>1493</ele>
        <time>2000-01-01T04:08:23.000Z</time>
      </trkpt>
      <trkpt lat="45.02287" lon="5.54979">
        <ele>1492</ele>
        <time>2000-01-01T04:08:33.000Z</time>
      </trkpt>
      <trkpt lat="45.02278" lon="5.54945">
        <ele>1492</ele>
        <time>2000-01-01T04:08:43.000Z</time>
      </trkpt>
      <trkpt lat="45.02284" lon="5.54916">
        <ele>1491</ele>
        <time>2000-01-01T04:08:53.000Z</time>
      </trkpt>
      <trkpt lat="45.023" lon="5.54883">
        <ele>1491</ele>
        <time>2000-01-01T04:09:03.000Z</time>
      </trkpt>
      <trkpt lat="45.02297" lon="5.5484">
        <ele>1488</ele>
        <time>2000-01-01T04:09:13.000Z</time>
      </trkpt>
      <trkpt lat="45.02288" lon="5.54781">
        <ele>1481</ele>
        <time>2000-01-01T04:09:23.000Z</time>
      </trkpt>
      <trkpt lat="45.0227" lon="5.54756">
        <ele>1477</ele>
        <time>2000-01-01T04:09:33.000Z</time>
      </trkpt>
      <trkpt lat="45.02241" lon="5.54745">
        <ele>1477</ele>
        <time>2000-01-01T04:09:43.000Z</time>
      </trkpt>
      <trkpt lat="45.02214" lon="5.54732">
        <ele>1470</ele>
        <time>2000-01-01T04:09:53.000Z</time>
      </trkpt>
      <trkpt lat="45.02203" lon="5.54694">
        <ele>1463</ele>
        <time>2000-01-01T04:10:03.000Z</time>
      </trkpt>
      <trkpt lat="45.02192" lon="5.5465">
        <ele>1465</ele>
        <time>2000-01-01T04:10:13.000Z</time>
      </trkpt>
      <trkpt lat="45.02189" lon="5.54616">
        <ele>1462</ele>
        <time>2000-01-01T04:10:23.000Z</time>
      </trkpt>
      <trkpt lat="45.02194" lon="5.54583">
        <ele>1460</ele>
        <time>2000-01-01T04:10:33.000Z</time>
      </trkpt>
      <trkpt lat="45.02205" lon="5.54547">
        <ele>1457</ele>
        <time>2000-01-01T04:10:43.000Z</time>
      </trkpt>
      <trkpt lat="45.0223" lon="5.5454">
        <ele>1446</ele>
        <time>2000-01-01T04:10:53.000Z</time>
      </trkpt>
      <trkpt lat="45.02255" lon="5.5454">
        <ele>1447</ele>
        <time>2000-01-01T04:11:03.000Z</time>
      </trkpt>
      <trkpt lat="45.02238" lon="5.5451">
        <ele>1448</ele>
        <time>2000-01-01T04:11:13.000Z</time>
      </trkpt>
      <trkpt lat="45.02216" lon="5.54471">
        <ele>1451</ele>
        <time>2000-01-01T04:11:23.000Z</time>
      </trkpt>
      <trkpt lat="45.02211" lon="5.54431">
        <ele>1452</ele>
        <time>2000-01-01T04:11:33.000Z</time>
      </trkpt>
      <trkpt lat="45.02181" lon="5.54388">
        <ele>1453</ele>
        <time>2000-01-01T04:11:43.000Z</time>
      </trkpt>
      <trkpt lat="45.02154" lon="5.54379">
        <ele>1453</ele>
        <time>2000-01-01T04:11:53.000Z</time>
      </trkpt>
      <trkpt lat="45.02117" lon="5.54355">
        <ele>1459</ele>
        <time>2000-01-01T04:12:03.000Z</time>
      </trkpt>
      <trkpt lat="45.02089" lon="5.54327">
        <ele>1470</ele>
        <time>2000-01-01T04:12:13.000Z</time>
      </trkpt>
      <trkpt lat="45.02078" lon="5.54277">
        <ele>1472</ele>
        <time>2000-01-01T04:12:23.000Z</time>
      </trkpt>
      <trkpt lat="45.02069" lon="5.54245">
        <ele>1472</ele>
        <time>2000-01-01T04:12:33.000Z</time>
      </trkpt>
      <trkpt lat="45.0206" lon="5.54212">
        <ele>1472</ele>
        <time>2000-01-01T04:12:43.000Z</time>
      </trkpt>
      <trkpt lat="45.0206" lon="5.54164">
        <ele>1468</ele>
        <time>2000-01-01T04:12:53.000Z</time>
      </trkpt>
      <trkpt lat="45.02061" lon="5.54121">
        <ele>1468</ele>
        <time>2000-01-01T04:13:03.000Z</time>
      </trkpt>
      <trkpt lat="45.02065" lon="5.54086">
        <ele>1464</ele>
        <time>2000-01-01T04:13:13.000Z</time>
      </trkpt>
      <trkpt lat="45.02069" lon="5.54047">
        <ele>1459</ele>
        <time>2000-01-01T04:13:23.000Z</time>
      </trkpt>
      <trkpt lat="45.02073" lon="5.54012">
        <ele>1457</ele>
        <time>2000-01-01T04:13:33.000Z</time>
      </trkpt>
      <trkpt lat="45.02084" lon="5.53976">
        <ele>1455</ele>
        <time>2000-01-01T04:13:43.000Z</time>
      </trkpt>
      <trkpt lat="45.02105" lon="5.53938">
        <ele>1448</ele>
        <time>2000-01-01T04:13:53.000Z</time>
      </trkpt>
      <trkpt lat="45.02117" lon="5.53916">
        <ele>1448</ele>
        <time>2000-01-01T04:14:03.000Z</time>
      </trkpt>
      <trkpt lat="45.02133" lon="5.53905">
        <ele>1438</ele>
        <time>2000-01-01T04:14:13.000Z</time>
      </trkpt>
      <trkpt lat="45.02142" lon="5.53917">
        <ele>1443</ele>
        <time>2000-01-01T04:14:23.000Z</time>
      </trkpt>
      <trkpt lat="45.02159" lon="5.5392">
        <ele>1434.2</ele>
        <time>2000-01-01T04:14:33.000Z</time>
      </trkpt>
      <trkpt lat="45.02175" lon="5.53949">
        <ele>1433</ele>
        <time>2000-01-01T04:14:43.000Z</time>
      </trkpt>
      <trkpt lat="45.02188" lon="5.53946">
        <ele>1430.9</ele>
        <time>2000-01-01T04:14:53.000Z</time>
      </trkpt>
      <trkpt lat="45.022" lon="5.53942">
        <ele>1433</ele>
        <time>2000-01-01T04:15:03.000Z</time>
      </trkpt>
      <trkpt lat="45.02221" lon="5.53933">
        <ele>1434</ele>
        <time>2000-01-01T04:15:13.000Z</time>
      </trkpt>
      <trkpt lat="45.02212" lon="5.53896">
        <ele>1435</ele>
        <time>2000-01-01T04:15:23.000Z</time>
      </trkpt>
      <trkpt lat="45.0219" lon="5.5386">
        <ele>1441</ele>
        <time>2000-01-01T04:15:33.000Z</time>
      </trkpt>
      <trkpt lat="45.02165" lon="5.53854">
        <ele>1441</ele>
        <time>2000-01-01T04:15:43.000Z</time>
      </trkpt>
      <trkpt lat="45.02138" lon="5.53848">
        <ele>1446</ele>
        <time>2000-01-01T04:15:53.000Z</time>
      </trkpt>
      <trkpt lat="45.02116" lon="5.53835">
        <ele>1444</ele>
        <time>2000-01-01T04:16:03.000Z</time>
      </trkpt>
      <trkpt lat="45.02093" lon="5.53822">
        <ele>1442</ele>
        <time>2000-01-01T04:16:13.000Z</time>
      </trkpt>
      <trkpt lat="45.02078" lon="5.53805">
        <ele>1437</ele>
        <time>2000-01-01T04:16:23.000Z</time>
      </trkpt>
      <trkpt lat="45.02073" lon="5.53776">
        <ele>1436</ele>
        <time>2000-01-01T04:16:33.000Z</time>
      </trkpt>
      <trkpt lat="45.02075" lon="5.53725">
        <ele>1436</ele>
        <time>2000-01-01T04:16:43.000Z</time>
      </trkpt>
      <trkpt lat="45.02068" lon="5.5368">
        <ele>1405</ele>
        <time>2000-01-01T04:16:53.000Z</time>
      </trkpt>
      <trkpt lat="45.02068" lon="5.5364">
        <ele>1391</ele>
        <time>2000-01-01T04:17:03.000Z</time>
      </trkpt>
      <trkpt lat="45.02072" lon="5.53599">
        <ele>1365</ele>
        <time>2000-01-01T04:17:13.000Z</time>
      </trkpt>
      <trkpt lat="45.02053" lon="5.53578">
        <ele>1358</ele>
        <time>2000-01-01T04:17:23.000Z</time>
      </trkpt>
      <trkpt lat="45.02024" lon="5.53551">
        <ele>1346</ele>
        <time>2000-01-01T04:17:33.000Z</time>
      </trkpt>
      <trkpt lat="45.01999" lon="5.53517">
        <ele>1331</ele>
        <time>2000-01-01T04:17:43.000Z</time>
      </trkpt>
      <trkpt lat="45.01982" lon="5.53493">
        <ele>1327</ele>
        <time>2000-01-01T04:17:53.000Z</time>
      </trkpt>
      <trkpt lat="45.01972" lon="5.53459">
        <ele>1312</ele>
        <time>2000-01-01T04:18:03.000Z</time>
      </trkpt>
      <trkpt lat="45.01985" lon="5.53439">
        <ele>1306</ele>
        <time>2000-01-01T04:18:13.000Z</time>
      </trkpt>
      <trkpt lat="45.01988" lon="5.53414">
        <ele>1299.8</ele>
        <time>2000-01-01T04:18:23.000Z</time>
      </trkpt>
      <trkpt lat="45.01976" lon="5.53391">
        <ele>1295</ele>
        <time>2000-01-01T04:18:33.000Z</time>
      </trkpt>
      <trkpt lat="45.01975" lon="5.53371">
        <ele>1288.4</ele>
        <time>2000-01-01T04:18:43.000Z</time>
      </trkpt>
      <trkpt lat="45.0199" lon="5.53357">
        <ele>1288</ele>
        <time>2000-01-01T04:18:53.000Z</time>
      </trkpt>
      <trkpt lat="45.02007" lon="5.5332">
        <ele>1282</ele>
        <time>2000-01-01T04:19:03.000Z</time>
      </trkpt>
      <trkpt lat="45.0201" lon="5.53312">
        <ele>1271.5</ele>
        <time>2000-01-01T04:19:13.000Z</time>
      </trkpt>
      <trkpt lat="45.02038" lon="5.53311">
        <ele>1280</ele>
        <time>2000-01-01T04:19:23.000Z</time>
      </trkpt>
      <trkpt lat="45.02059" lon="5.53303">
        <ele>1279</ele>
        <time>2000-01-01T04:19:33.000Z</time>
      </trkpt>
      <trkpt lat="45.02071" lon="5.53293">
        <ele>1260.9</ele>
        <time>2000-01-01T04:19:43.000Z</time>
      </trkpt>
      <trkpt lat="45.02082" lon="5.53277">
        <ele>1265</ele>
        <time>2000-01-01T04:19:53.000Z</time>
      </trkpt>
      <trkpt lat="45.0209" lon="5.53248">
        <ele>1261</ele>
        <time>2000-01-01T04:20:03.000Z</time>
      </trkpt>
      <trkpt lat="45.02099" lon="5.53213">
        <ele>1251</ele>
        <time>2000-01-01T04:20:13.000Z</time>
      </trkpt>
      <trkpt lat="45.02118" lon="5.53201">
        <ele>1249</ele>
        <time>2000-01-01T04:20:23.000Z</time>
      </trkpt>
      <trkpt lat="45.02089" lon="5.5318">
        <ele>1248</ele>
        <time>2000-01-01T04:20:33.000Z</time>
      </trkpt>
      <trkpt lat="45.02095" lon="5.53165">
        <ele>1234.3</ele>
        <time>2000-01-01T04:20:43.000Z</time>
      </trkpt>
      <trkpt lat="45.02109" lon="5.53129">
        <ele>1247</ele>
        <time>2000-01-01T04:20:53.000Z</time>
      </trkpt>
      <trkpt lat="45.02118" lon="5.5309">
        <ele>1247</ele>
        <time>2000-01-01T04:21:03.000Z</time>
      </trkpt>
      <trkpt lat="45.02106" lon="5.53066">
        <ele>1244</ele>
        <time>2000-01-01T04:21:13.000Z</time>
      </trkpt>
      <trkpt lat="45.02087" lon="5.53037">
        <ele>1240</ele>
        <time>2000-01-01T04:21:23.000Z</time>
      </trkpt>
      <trkpt lat="45.02056" lon="5.52991">
        <ele>1231</ele>
        <time>2000-01-01T04:21:33.000Z</time>
      </trkpt>
      <trkpt lat="45.02049" lon="5.52963">
        <ele>1227</ele>
        <time>2000-01-01T04:21:43.000Z</time>
      </trkpt>
      <trkpt lat="45.02067" lon="5.52954">
        <ele>1222</ele>
        <time>2000-01-01T04:21:53.000Z</time>
      </trkpt>
      <trkpt lat="45.02102" lon="5.52944">
        <ele>1217</ele>
        <time>2000-01-01T04:22:03.000Z</time>
      </trkpt>
      <trkpt lat="45.02125" lon="5.52932">
        <ele>1217</ele>
        <time>2000-01-01T04:22:13.000Z</time>
      </trkpt>
      <trkpt lat="45.02149" lon="5.5292">
        <ele>1215</ele>
        <time>2000-01-01T04:22:23.000Z</time>
      </trkpt>
      <trkpt lat="45.02172" lon="5.52905">
        <ele>1216</ele>
        <time>2000-01-01T04:22:33.000Z</time>
      </trkpt>
      <trkpt lat="45.02196" lon="5.52888">
        <ele>1216</ele>
        <time>2000-01-01T04:22:43.000Z</time>
      </trkpt>
      <trkpt lat="45.02229" lon="5.52875">
        <ele>1216</ele>
        <time>2000-01-01T04:22:53.000Z</time>
      </trkpt>
      <trkpt lat="45.02258" lon="5.52892">
        <ele>1207</ele>
        <time>2000-01-01T04:23:03.000Z</time>
      </trkpt>
      <trkpt lat="45.02282" lon="5.52889">
        <ele>1202</ele>
        <time>2000-01-01T04:23:13.000Z</time>
      </trkpt>
      <trkpt lat="45.02308" lon="5.52886">
        <ele>1201</ele>
        <time>2000-01-01T04:23:23.000Z</time>
      </trkpt>
      <trkpt lat="45.02337" lon="5.52885">
        <ele>1200</ele>
        <time>2000-01-01T04:23:33.000Z</time>
      </trkpt>
      <trkpt lat="45.02368" lon="5.52883">
        <ele>1197</ele>
        <time>2000-01-01T04:23:43.000Z</time>
      </trkpt>
      <trkpt lat="45.02395" lon="5.52881">
        <ele>1191</ele>
        <time>2000-01-01T04:23:53.000Z</time>
      </trkpt>
      <trkpt lat="45.0243" lon="5.52878">
        <ele>1189</ele>
        <time>2000-01-01T04:24:03.000Z</time>
      </trkpt>
      <trkpt lat="45.02451" lon="5.52858">
        <ele>1189</ele>
        <time>2000-01-01T04:24:13.000Z</time>
      </trkpt>
      <trkpt lat="45.02476" lon="5.52839">
        <ele>1187</ele>
        <time>2000-01-01T04:24:23.000Z</time>
      </trkpt>
      <trkpt lat="45.02517" lon="5.52829">
        <ele>1185</ele>
        <time>2000-01-01T04:24:33.000Z</time>
      </trkpt>
      <trkpt lat="45.0256" lon="5.52809">
        <ele>1169</ele>
        <time>2000-01-01T04:24:43.000Z</time>
      </trkpt>
      <trkpt lat="45.02592" lon="5.5284">
        <ele>1168</ele>
        <time>2000-01-01T04:24:53.000Z</time>
      </trkpt>
      <trkpt lat="45.02613" lon="5.52832">
        <ele>1168</ele>
        <time>2000-01-01T04:25:03.000Z</time>
      </trkpt>
      <trkpt lat="45.02642" lon="5.52845">
        <ele>1160</ele>
        <time>2000-01-01T04:25:13.000Z</time>
      </trkpt>
      <trkpt lat="45.02676" lon="5.52849">
        <ele>1155</ele>
        <time>2000-01-01T04:25:23.000Z</time>
      </trkpt>
      <trkpt lat="45.02707" lon="5.52876">
        <ele>1150</ele>
        <time>2000-01-01T04:25:33.000Z</time>
      </trkpt>
      <trkpt lat="45.02747" lon="5.52899">
        <ele>1144</ele>
        <time>2000-01-01T04:25:43.000Z</time>
      </trkpt>
      <trkpt lat="45.02773" lon="5.52915">
        <ele>1138</ele>
        <time>2000-01-01T04:25:53.000Z</time>
      </trkpt>
      <trkpt lat="45.02794" lon="5.52932">
        <ele>1138</ele>
        <time>2000-01-01T04:26:03.000Z</time>
      </trkpt>
      <trkpt lat="45.02817" lon="5.52951">
        <ele>1135</ele>
        <time>2000-01-01T04:26:13.000Z</time>
      </trkpt>
      <trkpt lat="45.02836" lon="5.5291">
        <ele>1122</ele>
        <time>2000-01-01T04:26:23.000Z</time>
      </trkpt>
      <trkpt lat="45.02857" lon="5.52887">
        <ele>1122</ele>
        <time>2000-01-01T04:26:33.000Z</time>
      </trkpt>
      <trkpt lat="45.0288" lon="5.52843">
        <ele>1121</ele>
        <time>2000-01-01T04:26:43.000Z</time>
      </trkpt>
      <trkpt lat="45.02899" lon="5.52791">
        <ele>1121</ele>
        <time>2000-01-01T04:26:53.000Z</time>
      </trkpt>
      <trkpt lat="45.02933" lon="5.52788">
        <ele>1112</ele>
        <time>2000-01-01T04:27:03.000Z</time>
      </trkpt>
      <trkpt lat="45.02958" lon="5.52782">
        <ele>1110</ele>
        <time>2000-01-01T04:27:13.000Z</time>
      </trkpt>
      <trkpt lat="45.02988" lon="5.52775">
        <ele>1109</ele>
        <time>2000-01-01T04:27:23.000Z</time>
      </trkpt>
      <trkpt lat="45.0302" lon="5.52775">
        <ele>1107</ele>
        <time>2000-01-01T04:27:33.000Z</time>
      </trkpt>
      <trkpt lat="45.0306" lon="5.52766">
        <ele>1103</ele>
        <time>2000-01-01T04:27:43.000Z</time>
      </trkpt>
      <trkpt lat="45.03087" lon="5.52751">
        <ele>1105</ele>
        <time>2000-01-01T04:27:53.000Z</time>
      </trkpt>
      <trkpt lat="45.03122" lon="5.52711">
        <ele>1107</ele>
        <time>2000-01-01T04:28:03.000Z</time>
      </trkpt>
      <trkpt lat="45.03153" lon="5.52694">
        <ele>1104</ele>
        <time>2000-01-01T04:28:13.000Z</time>
      </trkpt>
      <trkpt lat="45.03176" lon="5.52676">
        <ele>1101</ele>
        <time>2000-01-01T04:28:23.000Z</time>
      </trkpt>
      <trkpt lat="45.03189" lon="5.52641">
        <ele>1100</ele>
        <time>2000-01-01T04:28:33.000Z</time>
      </trkpt>
      <trkpt lat="45.03209" lon="5.5259">
        <ele>1097</ele>
        <time>2000-01-01T04:28:43.000Z</time>
      </trkpt>
      <trkpt lat="45.03233" lon="5.52596">
        <ele>1098</ele>
        <time>2000-01-01T04:28:53.000Z</time>
      </trkpt>
      <trkpt lat="45.0326" lon="5.52603">
        <ele>1098</ele>
        <time>2000-01-01T04:29:03.000Z</time>
      </trkpt>
      <trkpt lat="45.03242" lon="5.5258">
        <ele>1098</ele>
        <time>2000-01-01T04:29:13.000Z</time>
      </trkpt>
      <trkpt lat="45.03223" lon="5.52555">
        <ele>1097</ele>
        <time>2000-01-01T04:29:23.000Z</time>
      </trkpt>
      <trkpt lat="45.03238" lon="5.52516">
        <ele>1097</ele>
        <time>2000-01-01T04:29:33.000Z</time>
      </trkpt>
      <trkpt lat="45.03251" lon="5.52484">
        <ele>1097</ele>
        <time>2000-01-01T04:29:43.000Z</time>
      </trkpt>
      <trkpt lat="45.03267" lon="5.52443">
        <ele>1098</ele>
        <time>2000-01-01T04:29:53.000Z</time>
      </trkpt>
      <trkpt lat="45.03286" lon="5.52405">
        <ele>1104</ele>
        <time>2000-01-01T04:30:03.000Z</time>
      </trkpt>
      <trkpt lat="45.03306" lon="5.52367">
        <ele>1111</ele>
        <time>2000-01-01T04:30:13.000Z</time>
      </trkpt>
      <trkpt lat="45.03332" lon="5.52315">
        <ele>1109</ele>
        <time>2000-01-01T04:30:23.000Z</time>
      </trkpt>
      <trkpt lat="45.033" lon="5.52307">
        <ele>1109</ele>
        <time>2000-01-01T04:30:33.000Z</time>
      </trkpt>
      <trkpt lat="45.03273" lon="5.52299">
        <ele>1109</ele>
        <time>2000-01-01T04:30:43.000Z</time>
      </trkpt>
      <trkpt lat="45.03237" lon="5.52289">
        <ele>1108</ele>
        <time>2000-01-01T04:30:53.000Z</time>
      </trkpt>
      <trkpt lat="45.03207" lon="5.52284">
        <ele>1108</ele>
        <time>2000-01-01T04:31:03.000Z</time>
      </trkpt>
      <trkpt lat="45.03182" lon="5.5228">
        <ele>1105</ele>
        <time>2000-01-01T04:31:13.000Z</time>
      </trkpt>
      <trkpt lat="45.03155" lon="5.52276">
        <ele>1105</ele>
        <time>2000-01-01T04:31:23.000Z</time>
      </trkpt>
      <trkpt lat="45.03128" lon="5.5226">
        <ele>1105</ele>
        <time>2000-01-01T04:31:33.000Z</time>
      </trkpt>
      <trkpt lat="45.03088" lon="5.52236">
        <ele>1110</ele>
        <time>2000-01-01T04:31:43.000Z</time>
      </trkpt>
      <trkpt lat="45.03058" lon="5.52216">
        <ele>1112</ele>
        <time>2000-01-01T04:31:53.000Z</time>
      </trkpt>
      <trkpt lat="45.03027" lon="5.52195">
        <ele>1112</ele>
        <time>2000-01-01T04:32:03.000Z</time>
      </trkpt>
      <trkpt lat="45.02984" lon="5.52167">
        <ele>1112</ele>
        <time>2000-01-01T04:32:13.000Z</time>
      </trkpt>
      <trkpt lat="45.02957" lon="5.52149">
        <ele>1112</ele>
        <time>2000-01-01T04:32:23.000Z</time>
      </trkpt>
      <trkpt lat="45.02919" lon="5.52113">
        <ele>1111</ele>
        <time>2000-01-01T04:32:33.000Z</time>
      </trkpt>
      <trkpt lat="45.02879" lon="5.52079">
        <ele>1111</ele>
        <time>2000-01-01T04:32:43.000Z</time>
      </trkpt>
      <trkpt lat="45.02853" lon="5.52091">
        <ele>1111</ele>
        <time>2000-01-01T04:32:53.000Z</time>
      </trkpt>
      <trkpt lat="45.02817" lon="5.52108">
        <ele>1111</ele>
        <time>2000-01-01T04:33:03.000Z</time>
      </trkpt>
      <trkpt lat="45.02791" lon="5.52109">
        <ele>1111</ele>
        <time>2000-01-01T04:33:13.000Z</time>
      </trkpt>
      <trkpt lat="45.0276" lon="5.5211">
        <ele>1115</ele>
        <time>2000-01-01T04:33:23.000Z</time>
      </trkpt>
      <trkpt lat="45.02748" lon="5.52126">
        <ele>1113.1</ele>
        <time>2000-01-01T04:33:33.000Z</time>
      </trkpt>
      <trkpt lat="45.02738" lon="5.52158">
        <ele>1118</ele>
        <time>2000-01-01T04:33:43.000Z</time>
      </trkpt>
      <trkpt lat="45.02716" lon="5.52187">
        <ele>1119</ele>
        <time>2000-01-01T04:33:53.000Z</time>
      </trkpt>
      <trkpt lat="45.02687" lon="5.52222">
        <ele>1122</ele>
        <time>2000-01-01T04:34:03.000Z</time>
      </trkpt>
      <trkpt lat="45.0266" lon="5.52188">
        <ele>1122</ele>
        <time>2000-01-01T04:34:13.000Z</time>
      </trkpt>
      <trkpt lat="45.02625" lon="5.52169">
        <ele>1122</ele>
        <time>2000-01-01T04:34:23.000Z</time>
      </trkpt>
      <trkpt lat="45.02605" lon="5.5215">
        <ele>1119</ele>
        <time>2000-01-01T04:34:33.000Z</time>
      </trkpt>
      <trkpt lat="45.02585" lon="5.52132">
        <ele>1118</ele>
        <time>2000-01-01T04:34:43.000Z</time>
      </trkpt>
      <trkpt lat="45.02576" lon="5.52102">
        <ele>1118</ele>
        <time>2000-01-01T04:34:53.000Z</time>
      </trkpt>
      <trkpt lat="45.02601" lon="5.52076">
        <ele>1119</ele>
        <time>2000-01-01T04:35:03.000Z</time>
      </trkpt>
      <trkpt lat="45.02619" lon="5.5205">
        <ele>1124</ele>
        <time>2000-01-01T04:35:13.000Z</time>
      </trkpt>
      <trkpt lat="45.02587" lon="5.52018">
        <ele>1137</ele>
        <time>2000-01-01T04:35:23.000Z</time>
      </trkpt>
      <trkpt lat="45.0255" lon="5.51977">
        <ele>1139</ele>
        <time>2000-01-01T04:35:33.000Z</time>
      </trkpt>
      <trkpt lat="45.02527" lon="5.51957">
        <ele>1141</ele>
        <time>2000-01-01T04:35:43.000Z</time>
      </trkpt>
      <trkpt lat="45.02511" lon="5.51917">
        <ele>1147</ele>
        <time>2000-01-01T04:35:53.000Z</time>
      </trkpt>
      <trkpt lat="45.02492" lon="5.51882">
        <ele>1150</ele>
        <time>2000-01-01T04:36:03.000Z</time>
      </trkpt>
      <trkpt lat="45.02473" lon="5.51859">
        <ele>1157</ele>
        <time>2000-01-01T04:36:13.000Z</time>
      </trkpt>
      <trkpt lat="45.02443" lon="5.5182">
        <ele>1166</ele>
        <time>2000-01-01T04:36:23.000Z</time>
      </trkpt>
      <trkpt lat="45.02445" lon="5.51784">
        <ele>1166</ele>
        <time>2000-01-01T04:36:33.000Z</time>
      </trkpt>
      <trkpt lat="45.02448" lon="5.51744">
        <ele>1163</ele>
        <time>2000-01-01T04:36:43.000Z</time>
      </trkpt>
      <trkpt lat="45.02432" lon="5.51716">
        <ele>1161</ele>
        <time>2000-01-01T04:36:53.000Z</time>
      </trkpt>
      <trkpt lat="45.02415" lon="5.51685">
        <ele>1161</ele>
        <time>2000-01-01T04:37:03.000Z</time>
      </trkpt>
      <trkpt lat="45.02404" lon="5.51649">
        <ele>1162</ele>
        <time>2000-01-01T04:37:13.000Z</time>
      </trkpt>
      <trkpt lat="45.02388" lon="5.516">
        <ele>1167</ele>
        <time>2000-01-01T04:37:23.000Z</time>
      </trkpt>
      <trkpt lat="45.02418" lon="5.51584">
        <ele>1167</ele>
        <time>2000-01-01T04:37:33.000Z</time>
      </trkpt>
      <trkpt lat="45.02449" lon="5.51568">
        <ele>1167</ele>
        <time>2000-01-01T04:37:43.000Z</time>
      </trkpt>
      <trkpt lat="45.02485" lon="5.5156">
        <ele>1166</ele>
        <time>2000-01-01T04:37:53.000Z</time>
      </trkpt>
      <trkpt lat="45.02513" lon="5.51552">
        <ele>1165</ele>
        <time>2000-01-01T04:38:03.000Z</time>
      </trkpt>
      <trkpt lat="45.02547" lon="5.51532">
        <ele>1167</ele>
        <time>2000-01-01T04:38:13.000Z</time>
      </trkpt>
      <trkpt lat="45.02587" lon="5.51521">
        <ele>1169</ele>
        <time>2000-01-01T04:38:23.000Z</time>
      </trkpt>
      <trkpt lat="45.02595" lon="5.51489">
        <ele>1177</ele>
        <time>2000-01-01T04:38:33.000Z</time>
      </trkpt>
      <trkpt lat="45.02603" lon="5.51455">
        <ele>1178</ele>
        <time>2000-01-01T04:38:43.000Z</time>
      </trkpt>
      <trkpt lat="45.02601" lon="5.51419">
        <ele>1180</ele>
        <time>2000-01-01T04:38:53.000Z</time>
      </trkpt>
      <trkpt lat="45.02599" lon="5.51376">
        <ele>1183</ele>
        <time>2000-01-01T04:39:03.000Z</time>
      </trkpt>
      <trkpt lat="45.02564" lon="5.51396">
        <ele>1183</ele>
        <time>2000-01-01T04:39:13.000Z</time>
      </trkpt>
      <trkpt lat="45.02531" lon="5.51403">
        <ele>1182</ele>
        <time>2000-01-01T04:39:23.000Z</time>
      </trkpt>
      <trkpt lat="45.02498" lon="5.5141">
        <ele>1182</ele>
        <time>2000-01-01T04:39:33.000Z</time>
      </trkpt>
      <trkpt lat="45.02453" lon="5.51419">
        <ele>1182</ele>
        <time>2000-01-01T04:39:43.000Z</time>
      </trkpt>
      <trkpt lat="45.02461" lon="5.51378">
        <ele>1182</ele>
        <time>2000-01-01T04:39:53.000Z</time>
      </trkpt>
      <trkpt lat="45.02468" lon="5.51344">
        <ele>1184</ele>
        <time>2000-01-01T04:40:03.000Z</time>
      </trkpt>
      <trkpt lat="45.02476" lon="5.51307">
        <ele>1183</ele>
        <time>2000-01-01T04:40:13.000Z</time>
      </trkpt>
      <trkpt lat="45.02467" lon="5.51274">
        <ele>1183</ele>
        <time>2000-01-01T04:40:23.000Z</time>
      </trkpt>
      <trkpt lat="45.02457" lon="5.51239">
        <ele>1192</ele>
        <time>2000-01-01T04:40:33.000Z</time>
      </trkpt>
      <trkpt lat="45.02461" lon="5.51187">
        <ele>1208</ele>
        <time>2000-01-01T04:40:43.000Z</time>
      </trkpt>
      <trkpt lat="45.02466" lon="5.51141">
        <ele>1209</ele>
        <time>2000-01-01T04:40:53.000Z</time>
      </trkpt>
      <trkpt lat="45.02476" lon="5.51101">
        <ele>1211</ele>
        <time>2000-01-01T04:41:03.000Z</time>
      </trkpt>
      <trkpt lat="45.0248" lon="5.51061">
        <ele>1211</ele>
        <time>2000-01-01T04:41:13.000Z</time>
      </trkpt>
      <trkpt lat="45.02491" lon="5.51034">
        <ele>1210</ele>
        <time>2000-01-01T04:41:23.000Z</time>
      </trkpt>
      <trkpt lat="45.0251" lon="5.50996">
        <ele>1211</ele>
        <time>2000-01-01T04:41:33.000Z</time>
      </trkpt>
      <trkpt lat="45.02488" lon="5.5098">
        <ele>1212</ele>
        <time>2000-01-01T04:41:43.000Z</time>
      </trkpt>
      <trkpt lat="45.02464" lon="5.50963">
        <ele>1212</ele>
        <time>2000-01-01T04:41:53.000Z</time>
      </trkpt>
      <trkpt lat="45.02432" lon="5.5093">
        <ele>1224</ele>
        <time>2000-01-01T04:42:03.000Z</time>
      </trkpt>
      <trkpt lat="45.02421" lon="5.50899">
        <ele>1227</ele>
        <time>2000-01-01T04:42:13.000Z</time>
      </trkpt>
      <trkpt lat="45.02411" lon="5.50868">
        <ele>1220</ele>
        <time>2000-01-01T04:42:23.000Z</time>
      </trkpt>
      <trkpt lat="45.02369" lon="5.50861">
        <ele>1221</ele>
        <time>2000-01-01T04:42:33.000Z</time>
      </trkpt>
      <trkpt lat="45.02389" lon="5.50835">
        <ele>1223</ele>
        <time>2000-01-01T04:42:43.000Z</time>
      </trkpt>
      <trkpt lat="45.02415" lon="5.50801">
        <ele>1228</ele>
        <time>2000-01-01T04:42:53.000Z</time>
      </trkpt>
      <trkpt lat="45.02421" lon="5.50759">
        <ele>1233</ele>
        <time>2000-01-01T04:43:03.000Z</time>
      </trkpt>
      <trkpt lat="45.0244" lon="5.50733">
        <ele>1237</ele>
        <time>2000-01-01T04:43:13.000Z</time>
      </trkpt>
      <trkpt lat="45.02463" lon="5.507">
        <ele>1260</ele>
        <time>2000-01-01T04:43:23.000Z</time>
      </trkpt>
      <trkpt lat="45.02454" lon="5.50646">
        <ele>1260</ele>
        <time>2000-01-01T04:43:33.000Z</time>
      </trkpt>
      <trkpt lat="45.02446" lon="5.50605">
        <ele>1260</ele>
        <time>2000-01-01T04:43:43.000Z</time>
      </trkpt>
      <trkpt lat="45.02428" lon="5.50554">
        <ele>1260</ele>
        <time>2000-01-01T04:43:53.000Z</time>
      </trkpt>
      <trkpt lat="45.02419" lon="5.50523">
        <ele>1260</ele>
        <time>2000-01-01T04:44:03.000Z</time>
      </trkpt>
      <trkpt lat="45.02411" lon="5.50491">
        <ele>1261</ele>
        <time>2000-01-01T04:44:13.000Z</time>
      </trkpt>
      <trkpt lat="45.02444" lon="5.5045">
        <ele>1264</ele>
        <time>2000-01-01T04:44:23.000Z</time>
      </trkpt>
      <trkpt lat="45.02461" lon="5.50406">
        <ele>1268</ele>
        <time>2000-01-01T04:44:33.000Z</time>
      </trkpt>
      <trkpt lat="45.02464" lon="5.5037">
        <ele>1271</ele>
        <time>2000-01-01T04:44:43.000Z</time>
      </trkpt>
      <trkpt lat="45.02467" lon="5.50329">
        <ele>1270</ele>
        <time>2000-01-01T04:44:53.000Z</time>
      </trkpt>
      <trkpt lat="45.02467" lon="5.50296">
        <ele>1270</ele>
        <time>2000-01-01T04:45:03.000Z</time>
      </trkpt>
      <trkpt lat="45.02488" lon="5.50269">
        <ele>1278</ele>
        <time>2000-01-01T04:45:13.000Z</time>
      </trkpt>
      <trkpt lat="45.02488" lon="5.50228">
        <ele>1280</ele>
        <time>2000-01-01T04:45:23.000Z</time>
      </trkpt>
      <trkpt lat="45.02505" lon="5.50168">
        <ele>1287</ele>
        <time>2000-01-01T04:45:33.000Z</time>
      </trkpt>
      <trkpt lat="45.02509" lon="5.50134">
        <ele>1293</ele>
        <time>2000-01-01T04:45:43.000Z</time>
      </trkpt>
      <trkpt lat="45.02514" lon="5.50097">
        <ele>1293</ele>
        <time>2000-01-01T04:45:53.000Z</time>
      </trkpt>
      <trkpt lat="45.02538" lon="5.50079">
        <ele>1293</ele>
        <time>2000-01-01T04:46:03.000Z</time>
      </trkpt>
      <trkpt lat="45.02562" lon="5.50023">
        <ele>1293</ele>
        <time>2000-01-01T04:46:13.000Z</time>
      </trkpt>
      <trkpt lat="45.02566" lon="5.49966">
        <ele>1297</ele>
        <time>2000-01-01T04:46:23.000Z</time>
      </trkpt>
      <trkpt lat="45.02534" lon="5.49937">
        <ele>1300</ele>
        <time>2000-01-01T04:46:33.000Z</time>
      </trkpt>
      <trkpt lat="45.02505" lon="5.49972">
        <ele>1299</ele>
        <time>2000-01-01T04:46:43.000Z</time>
      </trkpt>
      <trkpt lat="45.02484" lon="5.50017">
        <ele>1298</ele>
        <time>2000-01-01T04:46:53.000Z</time>
      </trkpt>
      <trkpt lat="45.02458" lon="5.50047">
        <ele>1295</ele>
        <time>2000-01-01T04:47:03.000Z</time>
      </trkpt>
      <trkpt lat="45.02431" lon="5.50056">
        <ele>1294</ele>
        <time>2000-01-01T04:47:13.000Z</time>
      </trkpt>
      <trkpt lat="45.02413" lon="5.50082">
        <ele>1289</ele>
        <time>2000-01-01T04:47:23.000Z</time>
      </trkpt>
      <trkpt lat="45.02389" lon="5.50095">
        <ele>1289</ele>
        <time>2000-01-01T04:47:33.000Z</time>
      </trkpt>
      <trkpt lat="45.02362" lon="5.50109">
        <ele>1279</ele>
        <time>2000-01-01T04:47:43.000Z</time>
      </trkpt>
      <trkpt lat="45.02344" lon="5.50134">
        <ele>1274</ele>
        <time>2000-01-01T04:47:53.000Z</time>
      </trkpt>
      <trkpt lat="45.02322" lon="5.50163">
        <ele>1262</ele>
        <time>2000-01-01T04:48:03.000Z</time>
      </trkpt>
      <trkpt lat="45.02287" lon="5.50201">
        <ele>1254</ele>
        <time>2000-01-01T04:48:13.000Z</time>
      </trkpt>
      <trkpt lat="45.02264" lon="5.50211">
        <ele>1246</ele>
        <time>2000-01-01T04:48:23.000Z</time>
      </trkpt>
      <trkpt lat="45.02241" lon="5.50222">
        <ele>1246</ele>
        <time>2000-01-01T04:48:33.000Z</time>
      </trkpt>
      <trkpt lat="45.02208" lon="5.50201">
        <ele>1260</ele>
        <time>2000-01-01T04:48:43.000Z</time>
      </trkpt>
      <trkpt lat="45.02174" lon="5.50165">
        <ele>1282</ele>
        <time>2000-01-01T04:48:53.000Z</time>
      </trkpt>
      <trkpt lat="45.02146" lon="5.50122">
        <ele>1296</ele>
        <time>2000-01-01T04:49:03.000Z</time>
      </trkpt>
      <trkpt lat="45.02127" lon="5.50091">
        <ele>1304</ele>
        <time>2000-01-01T04:49:13.000Z</time>
      </trkpt>
      <trkpt lat="45.021" lon="5.50087">
        <ele>1305</ele>
        <time>2000-01-01T04:49:23.000Z</time>
      </trkpt>
      <trkpt lat="45.02062" lon="5.50082">
        <ele>1305</ele>
        <time>2000-01-01T04:49:33.000Z</time>
      </trkpt>
      <trkpt lat="45.02038" lon="5.5007">
        <ele>1305</ele>
        <time>2000-01-01T04:49:43.000Z</time>
      </trkpt>
      <trkpt lat="45.0201" lon="5.50056">
        <ele>1306</ele>
        <time>2000-01-01T04:49:53.000Z</time>
      </trkpt>
      <trkpt lat="45.01982" lon="5.50056">
        <ele>1307</ele>
        <time>2000-01-01T04:50:03.000Z</time>
      </trkpt>
      <trkpt lat="45.01952" lon="5.5005">
        <ele>1308</ele>
        <time>2000-01-01T04:50:13.000Z</time>
      </trkpt>
      <trkpt lat="45.01917" lon="5.50057">
        <ele>1307</ele>
        <time>2000-01-01T04:50:23.000Z</time>
      </trkpt>
      <trkpt lat="45.01884" lon="5.50059">
        <ele>1307</ele>
        <time>2000-01-01T04:50:33.000Z</time>
      </trkpt>
      <trkpt lat="45.0185" lon="5.50062">
        <ele>1315</ele>
        <time>2000-01-01T04:50:43.000Z</time>
      </trkpt>
      <trkpt lat="45.01815" lon="5.50062">
        <ele>1315</ele>
        <time>2000-01-01T04:50:53.000Z</time>
      </trkpt>
      <trkpt lat="45.0178" lon="5.50062">
        <ele>1314</ele>
        <time>2000-01-01T04:51:03.000Z</time>
      </trkpt>
      <trkpt lat="45.01754" lon="5.50058">
        <ele>1314</ele>
        <time>2000-01-01T04:51:13.000Z</time>
      </trkpt>
      <trkpt lat="45.01725" lon="5.50053">
        <ele>1311</ele>
        <time>2000-01-01T04:51:23.000Z</time>
      </trkpt>
      <trkpt lat="45.01694" lon="5.5007">
        <ele>1307</ele>
        <time>2000-01-01T04:51:33.000Z</time>
      </trkpt>
      <trkpt lat="45.01674" lon="5.50095">
        <ele>1306</ele>
        <time>2000-01-01T04:51:43.000Z</time>
      </trkpt>
      <trkpt lat="45.01649" lon="5.50127">
        <ele>1305</ele>
        <time>2000-01-01T04:51:53.000Z</time>
      </trkpt>
      <trkpt lat="45.01617" lon="5.50163">
        <ele>1297</ele>
        <time>2000-01-01T04:52:03.000Z</time>
      </trkpt>
      <trkpt lat="45.01592" lon="5.50179">
        <ele>1299</ele>
        <time>2000-01-01T04:52:13.000Z</time>
      </trkpt>
      <trkpt lat="45.01558" lon="5.502">
        <ele>1296</ele>
        <time>2000-01-01T04:52:23.000Z</time>
      </trkpt>
      <trkpt lat="45.01525" lon="5.50222">
        <ele>1297</ele>
        <time>2000-01-01T04:52:33.000Z</time>
      </trkpt>
      <trkpt lat="45.01499" lon="5.50218">
        <ele>1298</ele>
        <time>2000-01-01T04:52:43.000Z</time>
      </trkpt>
      <trkpt lat="45.01466" lon="5.50213">
        <ele>1301</ele>
        <time>2000-01-01T04:52:53.000Z</time>
      </trkpt>
      <trkpt lat="45.01444" lon="5.50188">
        <ele>1315</ele>
        <time>2000-01-01T04:53:03.000Z</time>
      </trkpt>
      <trkpt lat="45.01415" lon="5.50164">
        <ele>1316</ele>
        <time>2000-01-01T04:53:13.000Z</time>
      </trkpt>
      <trkpt lat="45.0139" lon="5.50133">
        <ele>1315</ele>
        <time>2000-01-01T04:53:23.000Z</time>
      </trkpt>
      <trkpt lat="45.01362" lon="5.50105">
        <ele>1315</ele>
        <time>2000-01-01T04:53:33.000Z</time>
      </trkpt>
      <trkpt lat="45.01333" lon="5.50087">
        <ele>1316</ele>
        <time>2000-01-01T04:53:43.000Z</time>
      </trkpt>
      <trkpt lat="45.01296" lon="5.50085">
        <ele>1316</ele>
        <time>2000-01-01T04:53:53.000Z</time>
      </trkpt>
      <trkpt lat="45.0125" lon="5.50073">
        <ele>1317</ele>
        <time>2000-01-01T04:54:03.000Z</time>
      </trkpt>
      <trkpt lat="45.01234" lon="5.50039">
        <ele>1321</ele>
        <time>2000-01-01T04:54:13.000Z</time>
      </trkpt>
      <trkpt lat="45.0121" lon="5.49987">
        <ele>1326</ele>
        <time>2000-01-01T04:54:23.000Z</time>
      </trkpt>
      <trkpt lat="45.01195" lon="5.49961">
        <ele>1326</ele>
        <time>2000-01-01T04:54:33.000Z</time>
      </trkpt>
      <trkpt lat="45.01214" lon="5.4993">
        <ele>1327</ele>
        <time>2000-01-01T04:54:43.000Z</time>
      </trkpt>
      <trkpt lat="45.01244" lon="5.4988">
        <ele>1329</ele>
        <time>2000-01-01T04:54:53.000Z</time>
      </trkpt>
      <trkpt lat="45.01206" lon="5.4986">
        <ele>1338</ele>
        <time>2000-01-01T04:55:03.000Z</time>
      </trkpt>
      <trkpt lat="45.01199" lon="5.49809">
        <ele>1344</ele>
        <time>2000-01-01T04:55:13.000Z</time>
      </trkpt>
      <trkpt lat="45.01189" lon="5.49776">
        <ele>1350</ele>
        <time>2000-01-01T04:55:23.000Z</time>
      </trkpt>
      <trkpt lat="45.01174" lon="5.49744">
        <ele>1351</ele>
        <time>2000-01-01T04:55:33.000Z</time>
      </trkpt>
      <trkpt lat="45.01141" lon="5.49719">
        <ele>1350</ele>
        <time>2000-01-01T04:55:43.000Z</time>
      </trkpt>
      <trkpt lat="45.01105" lon="5.4971">
        <ele>1352</ele>
        <time>2000-01-01T04:55:53.000Z</time>
      </trkpt>
      <trkpt lat="45.01081" lon="5.49705">
        <ele>1354</ele>
        <time>2000-01-01T04:56:03.000Z</time>
      </trkpt>
      <trkpt lat="45.01057" lon="5.49699">
        <ele>1354</ele>
        <time>2000-01-01T04:56:13.000Z</time>
      </trkpt>
      <trkpt lat="45.01038" lon="5.49703">
        <ele>1360</ele>
        <time>2000-01-01T04:56:23.000Z</time>
      </trkpt>
      <trkpt lat="45.01" lon="5.49681">
        <ele>1361</ele>
        <time>2000-01-01T04:56:33.000Z</time>
      </trkpt>
      <trkpt lat="45.00963" lon="5.4968">
        <ele>1361</ele>
        <time>2000-01-01T04:56:43.000Z</time>
      </trkpt>
      <trkpt lat="45.00918" lon="5.4969">
        <ele>1361</ele>
        <time>2000-01-01T04:56:53.000Z</time>
      </trkpt>
      <trkpt lat="45.00927" lon="5.49654">
        <ele>1361</ele>
        <time>2000-01-01T04:57:03.000Z</time>
      </trkpt>
      <trkpt lat="45.00948" lon="5.49607">
        <ele>1367</ele>
        <time>2000-01-01T04:57:13.000Z</time>
      </trkpt>
      <trkpt lat="45.00971" lon="5.49575">
        <ele>1370</ele>
        <time>2000-01-01T04:57:23.000Z</time>
      </trkpt>
      <trkpt lat="45.00994" lon="5.49544">
        <ele>1374</ele>
        <time>2000-01-01T04:57:33.000Z</time>
      </trkpt>
      <trkpt lat="45.01019" lon="5.4951">
        <ele>1379</ele>
        <time>2000-01-01T04:57:43.000Z</time>
      </trkpt>
      <trkpt lat="45.01053" lon="5.49465">
        <ele>1382</ele>
        <time>2000-01-01T04:57:53.000Z</time>
      </trkpt>
      <trkpt lat="45.01072" lon="5.49438">
        <ele>1385</ele>
        <time>2000-01-01T04:58:03.000Z</time>
      </trkpt>
      <trkpt lat="45.01097" lon="5.49402">
        <ele>1390</ele>
        <time>2000-01-01T04:58:13.000Z</time>
      </trkpt>
      <trkpt lat="45.01099" lon="5.49365">
        <ele>1393</ele>
        <time>2000-01-01T04:58:23.000Z</time>
      </trkpt>
      <trkpt lat="45.01101" lon="5.49322">
        <ele>1403</ele>
        <time>2000-01-01T04:58:33.000Z</time>
      </trkpt>
      <trkpt lat="45.01102" lon="5.49281">
        <ele>1405</ele>
        <time>2000-01-01T04:58:43.000Z</time>
      </trkpt>
      <trkpt lat="45.01102" lon="5.49247">
        <ele>1408</ele>
        <time>2000-01-01T04:58:53.000Z</time>
      </trkpt>
      <trkpt lat="45.01104" lon="5.49202">
        <ele>1411</ele>
        <time>2000-01-01T04:59:03.000Z</time>
      </trkpt>
      <trkpt lat="45.01105" lon="5.49157">
        <ele>1418</ele>
        <time>2000-01-01T04:59:13.000Z</time>
      </trkpt>
      <trkpt lat="45.01107" lon="5.49111">
        <ele>1420</ele>
        <time>2000-01-01T04:59:23.000Z</time>
      </trkpt>
      <trkpt lat="45.01093" lon="5.49077">
        <ele>1422</ele>
        <time>2000-01-01T04:59:33.000Z</time>
      </trkpt>
      <trkpt lat="45.01082" lon="5.49061">
        <ele>1402.1</ele>
        <time>2000-01-01T04:59:43.000Z</time>
      </trkpt>
      <trkpt lat="45.01077" lon="5.49014">
        <ele>1420</ele>
        <time>2000-01-01T04:59:53.000Z</time>
      </trkpt>
      <trkpt lat="45.01034" lon="5.49002">
        <ele>1419</ele>
        <time>2000-01-01T05:00:03.000Z</time>
      </trkpt>
      <trkpt lat="45.01019" lon="5.48984">
        <ele>1413</ele>
        <time>2000-01-01T05:00:13.000Z</time>
      </trkpt>
      <trkpt lat="45.01021" lon="5.48927">
        <ele>1409</ele>
        <time>2000-01-01T05:00:23.000Z</time>
      </trkpt>
      <trkpt lat="45.01019" lon="5.4889">
        <ele>1407</ele>
        <time>2000-01-01T05:00:33.000Z</time>
      </trkpt>
      <trkpt lat="45.01017" lon="5.48844">
        <ele>1407</ele>
        <time>2000-01-01T05:00:43.000Z</time>
      </trkpt>
      <trkpt lat="45.01004" lon="5.48803">
        <ele>1407</ele>
        <time>2000-01-01T05:00:53.000Z</time>
      </trkpt>
      <trkpt lat="45.00988" lon="5.48779">
        <ele>1411</ele>
        <time>2000-01-01T05:01:03.000Z</time>
      </trkpt>
      <trkpt lat="45.00981" lon="5.48738">
        <ele>1415</ele>
        <time>2000-01-01T05:01:13.000Z</time>
      </trkpt>
      <trkpt lat="45.00969" lon="5.48692">
        <ele>1423</ele>
        <time>2000-01-01T05:01:23.000Z</time>
      </trkpt>
      <trkpt lat="45.00952" lon="5.4866">
        <ele>1425</ele>
        <time>2000-01-01T05:01:33.000Z</time>
      </trkpt>
      <trkpt lat="45.00938" lon="5.48633">
        <ele>1427</ele>
        <time>2000-01-01T05:01:43.000Z</time>
      </trkpt>
      <trkpt lat="45.00923" lon="5.48605">
        <ele>1431</ele>
        <time>2000-01-01T05:01:53.000Z</time>
      </trkpt>
      <trkpt lat="45.00916" lon="5.4855">
        <ele>1433</ele>
        <time>2000-01-01T05:02:03.000Z</time>
      </trkpt>
      <trkpt lat="45.00907" lon="5.48488">
        <ele>1435</ele>
        <time>2000-01-01T05:02:13.000Z</time>
      </trkpt>
      <trkpt lat="45.00915" lon="5.48439">
        <ele>1434</ele>
        <time>2000-01-01T05:02:23.000Z</time>
      </trkpt>
      <trkpt lat="45.00921" lon="5.48401">
        <ele>1434</ele>
        <time>2000-01-01T05:02:33.000Z</time>
      </trkpt>
      <trkpt lat="45.00931" lon="5.48378">
        <ele>1430.4</ele>
        <time>2000-01-01T05:02:43.000Z</time>
      </trkpt>
      <trkpt lat="45.00943" lon="5.48349">
        <ele>1435</ele>
        <time>2000-01-01T05:02:53.000Z</time>
      </trkpt>
      <trkpt lat="45.00969" lon="5.48334">
        <ele>1438</ele>
        <time>2000-01-01T05:03:03.000Z</time>
      </trkpt>
      <trkpt lat="45.00996" lon="5.48292">
        <ele>1442</ele>
        <time>2000-01-01T05:03:13.000Z</time>
      </trkpt>
      <trkpt lat="45.01025" lon="5.48272">
        <ele>1458</ele>
        <time>2000-01-01T05:03:23.000Z</time>
      </trkpt>
      <trkpt lat="45.01063" lon="5.4827">
        <ele>1459</ele>
        <time>2000-01-01T05:03:33.000Z</time>
      </trkpt>
      <trkpt lat="45.01082" lon="5.48262">
        <ele>1461</ele>
        <time>2000-01-01T05:03:43.000Z</time>
      </trkpt>
      <trkpt lat="45.01109" lon="5.48247">
        <ele>1466</ele>
        <time>2000-01-01T05:03:53.000Z</time>
      </trkpt>
      <trkpt lat="45.01132" lon="5.48255">
        <ele>1471</ele>
        <time>2000-01-01T05:04:03.000Z</time>
      </trkpt>
      <trkpt lat="45.01156" lon="5.48263">
        <ele>1471</ele>
        <time>2000-01-01T05:04:13.000Z</time>
      </trkpt>
      <trkpt lat="45.01181" lon="5.48252">
        <ele>1463</ele>
        <time>2000-01-01T05:04:23.000Z</time>
      </trkpt>
      <trkpt lat="45.01212" lon="5.48249">
        <ele>1458</ele>
        <time>2000-01-01T05:04:33.000Z</time>
      </trkpt>
      <trkpt lat="45.01244" lon="5.48245">
        <ele>1453</ele>
        <time>2000-01-01T05:04:43.000Z</time>
      </trkpt>
      <trkpt lat="45.01271" lon="5.48238">
        <ele>1446</ele>
        <time>2000-01-01T05:04:53.000Z</time>
      </trkpt>
      <trkpt lat="45.01316" lon="5.48235">
        <ele>1453</ele>
        <time>2000-01-01T05:05:03.000Z</time>
      </trkpt>
      <trkpt lat="45.01353" lon="5.48221">
        <ele>1461</ele>
        <time>2000-01-01T05:05:13.000Z</time>
      </trkpt>
      <trkpt lat="45.01376" lon="5.48212">
        <ele>1461</ele>
        <time>2000-01-01T05:05:23.000Z</time>
      </trkpt>
      <trkpt lat="45.01401" lon="5.48203">
        <ele>1472</ele>
        <time>2000-01-01T05:05:33.000Z</time>
      </trkpt>
      <trkpt lat="45.01445" lon="5.48182">
        <ele>1493</ele>
        <time>2000-01-01T05:05:43.000Z</time>
      </trkpt>
      <trkpt lat="45.0147" lon="5.48176">
        <ele>1494</ele>
        <time>2000-01-01T05:05:53.000Z</time>
      </trkpt>
      <trkpt lat="45.015" lon="5.48168">
        <ele>1498</ele>
        <time>2000-01-01T05:06:03.000Z</time>
      </trkpt>
      <trkpt lat="45.01531" lon="5.48188">
        <ele>1504</ele>
        <time>2000-01-01T05:06:13.000Z</time>
      </trkpt>
      <trkpt lat="45.01552" lon="5.48194">
        <ele>1513</ele>
        <time>2000-01-01T05:06:23.000Z</time>
      </trkpt>
      <trkpt lat="45.01575" lon="5.4822">
        <ele>1513</ele>
        <time>2000-01-01T05:06:33.000Z</time>
      </trkpt>
      <trkpt lat="45.01615" lon="5.48215">
        <ele>1513</ele>
        <time>2000-01-01T05:06:43.000Z</time>
      </trkpt>
      <trkpt lat="45.01653" lon="5.48197">
        <ele>1522</ele>
        <time>2000-01-01T05:06:53.000Z</time>
      </trkpt>
      <trkpt lat="45.01676" lon="5.48218">
        <ele>1522</ele>
        <time>2000-01-01T05:07:03.000Z</time>
      </trkpt>
      <trkpt lat="45.01704" lon="5.48218">
        <ele>1528</ele>
        <time>2000-01-01T05:07:13.000Z</time>
      </trkpt>
      <trkpt lat="45.0175" lon="5.48224">
        <ele>1536</ele>
        <time>2000-01-01T05:07:23.000Z</time>
      </trkpt>
      <trkpt lat="45.01778" lon="5.48235">
        <ele>1538</ele>
        <time>2000-01-01T05:07:33.000Z</time>
      </trkpt>
      <trkpt lat="45.0181" lon="5.48212">
        <ele>1542</ele>
        <time>2000-01-01T05:07:43.000Z</time>
      </trkpt>
      <trkpt lat="45.01833" lon="5.48223">
        <ele>1545</ele>
        <time>2000-01-01T05:07:53.000Z</time>
      </trkpt>
      <trkpt lat="45.01857" lon="5.48235">
        <ele>1551</ele>
        <time>2000-01-01T05:08:03.000Z</time>
      </trkpt>
      <trkpt lat="45.01888" lon="5.48225">
        <ele>1552</ele>
        <time>2000-01-01T05:08:13.000Z</time>
      </trkpt>
      <trkpt lat="45.01928" lon="5.48209">
        <ele>1559</ele>
        <time>2000-01-01T05:08:23.000Z</time>
      </trkpt>
      <trkpt lat="45.01955" lon="5.48216">
        <ele>1559</ele>
        <time>2000-01-01T05:08:33.000Z</time>
      </trkpt>
      <trkpt lat="45.01994" lon="5.48237">
        <ele>1548</ele>
        <time>2000-01-01T05:08:43.000Z</time>
      </trkpt>
      <trkpt lat="45.02024" lon="5.48248">
        <ele>1548</ele>
        <time>2000-01-01T05:08:53.000Z</time>
      </trkpt>
      <trkpt lat="45.02057" lon="5.48267">
        <ele>1549</ele>
        <time>2000-01-01T05:09:03.000Z</time>
      </trkpt>
      <trkpt lat="45.02085" lon="5.48276">
        <ele>1555</ele>
        <time>2000-01-01T05:09:13.000Z</time>
      </trkpt>
      <trkpt lat="45.02121" lon="5.48289">
        <ele>1553</ele>
        <time>2000-01-01T05:09:23.000Z</time>
      </trkpt>
      <trkpt lat="45.02147" lon="5.48304">
        <ele>1553</ele>
        <time>2000-01-01T05:09:33.000Z</time>
      </trkpt>
      <trkpt lat="45.0219" lon="5.48316">
        <ele>1553</ele>
        <time>2000-01-01T05:09:43.000Z</time>
      </trkpt>
      <trkpt lat="45.02213" lon="5.48333">
        <ele>1553</ele>
        <time>2000-01-01T05:09:53.000Z</time>
      </trkpt>
      <trkpt lat="45.02236" lon="5.4835">
        <ele>1553</ele>
        <time>2000-01-01T05:10:03.000Z</time>
      </trkpt>
      <trkpt lat="45.02259" lon="5.48358">
        <ele>1555</ele>
        <time>2000-01-01T05:10:13.000Z</time>
      </trkpt>
      <trkpt lat="45.02278" lon="5.48363">
        <ele>1557</ele>
        <time>2000-01-01T05:10:23.000Z</time>
      </trkpt>
      <trkpt lat="45.02307" lon="5.48392">
        <ele>1561</ele>
        <time>2000-01-01T05:10:33.000Z</time>
      </trkpt>
      <trkpt lat="45.02329" lon="5.48412">
        <ele>1564</ele>
        <time>2000-01-01T05:10:43.000Z</time>
      </trkpt>
      <trkpt lat="45.02354" lon="5.48435">
        <ele>1559</ele>
        <time>2000-01-01T05:10:53.000Z</time>
      </trkpt>
      <trkpt lat="45.02354" lon="5.48458">
        <ele>1538.5</ele>
        <time>2000-01-01T05:11:03.000Z</time>
      </trkpt>
      <trkpt lat="45.02361" lon="5.48471">
        <ele>1555</ele>
        <time>2000-01-01T05:11:13.000Z</time>
      </trkpt>
      <trkpt lat="45.02381" lon="5.48482">
        <ele>1548</ele>
        <time>2000-01-01T05:11:23.000Z</time>
      </trkpt>
      <trkpt lat="45.02383" lon="5.48504">
        <ele>1519.5</ele>
        <time>2000-01-01T05:11:33.000Z</time>
      </trkpt>
      <trkpt lat="45.02403" lon="5.4849">
        <ele>1545</ele>
        <time>2000-01-01T05:11:43.000Z</time>
      </trkpt>
      <trkpt lat="45.02419" lon="5.48494">
        <ele>1504.3</ele>
        <time>2000-01-01T05:11:53.000Z</time>
      </trkpt>
      <trkpt lat="45.02436" lon="5.48465">
        <ele>1537</ele>
        <time>2000-01-01T05:12:03.000Z</time>
      </trkpt>
      <trkpt lat="45.02448" lon="5.4849">
        <ele>1521</ele>
        <time>2000-01-01T05:12:13.000Z</time>
      </trkpt>
      <trkpt lat="45.02459" lon="5.48482">
        <ele>1485</ele>
        <time>2000-01-01T05:12:23.000Z</time>
      </trkpt>
      <trkpt lat="45.02459" lon="5.485">
        <ele>1521</ele>
        <time>2000-01-01T05:12:33.000Z</time>
      </trkpt>
      <trkpt lat="45.02478" lon="5.48484">
        <ele>1514</ele>
        <time>2000-01-01T05:12:43.000Z</time>
      </trkpt>
      <trkpt lat="45.02484" lon="5.48509">
        <ele>1471.8</ele>
        <time>2000-01-01T05:12:53.000Z</time>
      </trkpt>
      <trkpt lat="45.02515" lon="5.4848">
        <ele>1493</ele>
        <time>2000-01-01T05:13:03.000Z</time>
      </trkpt>
      <trkpt lat="45.02522" lon="5.48518">
        <ele>1470</ele>
        <time>2000-01-01T05:13:13.000Z</time>
      </trkpt>
      <trkpt lat="45.02531" lon="5.48557">
        <ele>1468</ele>
        <time>2000-01-01T05:13:23.000Z</time>
      </trkpt>
      <trkpt lat="45.02538" lon="5.48594">
        <ele>1466</ele>
        <time>2000-01-01T05:13:33.000Z</time>
      </trkpt>
      <trkpt lat="45.02566" lon="5.48608">
        <ele>1459</ele>
        <time>2000-01-01T05:13:43.000Z</time>
      </trkpt>
      <trkpt lat="45.02572" lon="5.48559">
        <ele>1458</ele>
        <time>2000-01-01T05:13:53.000Z</time>
      </trkpt>
      <trkpt lat="45.02572" lon="5.48521">
        <ele>1457</ele>
        <time>2000-01-01T05:14:03.000Z</time>
      </trkpt>
      <trkpt lat="45.02572" lon="5.4847">
        <ele>1457</ele>
        <time>2000-01-01T05:14:13.000Z</time>
      </trkpt>
      <trkpt lat="45.02583" lon="5.48437">
        <ele>1459</ele>
        <time>2000-01-01T05:14:23.000Z</time>
      </trkpt>
      <trkpt lat="45.02597" lon="5.48396">
        <ele>1460</ele>
        <time>2000-01-01T05:14:33.000Z</time>
      </trkpt>
      <trkpt lat="45.02589" lon="5.48363">
        <ele>1459</ele>
        <time>2000-01-01T05:14:43.000Z</time>
      </trkpt>
      <trkpt lat="45.02589" lon="5.48341">
        <ele>1432.4</ele>
        <time>2000-01-01T05:14:53.000Z</time>
      </trkpt>
      <trkpt lat="45.02585" lon="5.48324">
        <ele>1458</ele>
        <time>2000-01-01T05:15:03.000Z</time>
      </trkpt>
      <trkpt lat="45.02585" lon="5.48298">
        <ele>1424.4</ele>
        <time>2000-01-01T05:15:13.000Z</time>
      </trkpt>
      <trkpt lat="45.02645" lon="5.48252">
        <ele>1441</ele>
        <time>2000-01-01T05:15:23.000Z</time>
      </trkpt>
      <trkpt lat="45.0262" lon="5.48245">
        <ele>1436</ele>
        <time>2000-01-01T05:15:33.000Z</time>
      </trkpt>
      <trkpt lat="45.02589" lon="5.48238">
        <ele>1436</ele>
        <time>2000-01-01T05:15:43.000Z</time>
      </trkpt>
      <trkpt lat="45.02571" lon="5.48201">
        <ele>1431</ele>
        <time>2000-01-01T05:15:53.000Z</time>
      </trkpt>
      <trkpt lat="45.02552" lon="5.48167">
        <ele>1430</ele>
        <time>2000-01-01T05:16:03.000Z</time>
      </trkpt>
      <trkpt lat="45.02527" lon="5.48137">
        <ele>1430</ele>
        <time>2000-01-01T05:16:13.000Z</time>
      </trkpt>
      <trkpt lat="45.02491" lon="5.481">
        <ele>1424</ele>
        <time>2000-01-01T05:16:23.000Z</time>
      </trkpt>
      <trkpt lat="45.02457" lon="5.48065">
        <ele>1410</ele>
        <time>2000-01-01T05:16:33.000Z</time>
      </trkpt>
      <trkpt lat="45.02428" lon="5.48033">
        <ele>1395</ele>
        <time>2000-01-01T05:16:43.000Z</time>
      </trkpt>
      <trkpt lat="45.02404" lon="5.48011">
        <ele>1385</ele>
        <time>2000-01-01T05:16:53.000Z</time>
      </trkpt>
      <trkpt lat="45.02385" lon="5.47994">
        <ele>1385</ele>
        <time>2000-01-01T05:17:03.000Z</time>
      </trkpt>
      <trkpt lat="45.0236" lon="5.47974">
        <ele>1380</ele>
        <time>2000-01-01T05:17:13.000Z</time>
      </trkpt>
      <trkpt lat="45.02333" lon="5.47961">
        <ele>1375</ele>
        <time>2000-01-01T05:17:23.000Z</time>
      </trkpt>
      <trkpt lat="45.02295" lon="5.47935">
        <ele>1375</ele>
        <time>2000-01-01T05:17:33.000Z</time>
      </trkpt>
      <trkpt lat="45.02266" lon="5.47922">
        <ele>1375</ele>
        <time>2000-01-01T05:17:43.000Z</time>
      </trkpt>
      <trkpt lat="45.0223" lon="5.47894">
        <ele>1360</ele>
        <time>2000-01-01T05:17:53.000Z</time>
      </trkpt>
      <trkpt lat="45.02212" lon="5.47871">
        <ele>1349</ele>
        <time>2000-01-01T05:18:03.000Z</time>
      </trkpt>
      <trkpt lat="45.02192" lon="5.47847">
        <ele>1351</ele>
        <time>2000-01-01T05:18:13.000Z</time>
      </trkpt>
      <trkpt lat="45.02165" lon="5.47821">
        <ele>1342</ele>
        <time>2000-01-01T05:18:23.000Z</time>
      </trkpt>
      <trkpt lat="45.02137" lon="5.47785">
        <ele>1333</ele>
        <time>2000-01-01T05:18:33.000Z</time>
      </trkpt>
      <trkpt lat="45.02111" lon="5.47763">
        <ele>1324</ele>
        <time>2000-01-01T05:18:43.000Z</time>
      </trkpt>
      <trkpt lat="45.02102" lon="5.47747">
        <ele>1313</ele>
        <time>2000-01-01T05:18:53.000Z</time>
      </trkpt>
      <trkpt lat="45.0214" lon="5.47738">
        <ele>1321</ele>
        <time>2000-01-01T05:19:03.000Z</time>
      </trkpt>
      <trkpt lat="45.02115" lon="5.47735">
        <ele>1318</ele>
        <time>2000-01-01T05:19:13.000Z</time>
      </trkpt>
      <trkpt lat="45.02085" lon="5.47733">
        <ele>1318</ele>
        <time>2000-01-01T05:19:23.000Z</time>
      </trkpt>
      <trkpt lat="45.0205" lon="5.47731">
        <ele>1324</ele>
        <time>2000-01-01T05:19:33.000Z</time>
      </trkpt>
      <trkpt lat="45.02024" lon="5.47719">
        <ele>1334</ele>
        <time>2000-01-01T05:19:43.000Z</time>
      </trkpt>
      <trkpt lat="45.01987" lon="5.47703">
        <ele>1343</ele>
        <time>2000-01-01T05:19:53.000Z</time>
      </trkpt>
      <trkpt lat="45.01959" lon="5.47694">
        <ele>1347</ele>
        <time>2000-01-01T05:20:03.000Z</time>
      </trkpt>
      <trkpt lat="45.01924" lon="5.4768">
        <ele>1349</ele>
        <time>2000-01-01T05:20:13.000Z</time>
      </trkpt>
      <trkpt lat="45.01884" lon="5.47665">
        <ele>1349</ele>
        <time>2000-01-01T05:20:23.000Z</time>
      </trkpt>
      <trkpt lat="45.01844" lon="5.47649">
        <ele>1349</ele>
        <time>2000-01-01T05:20:33.000Z</time>
      </trkpt>
      <trkpt lat="45.01804" lon="5.47636">
        <ele>1354</ele>
        <time>2000-01-01T05:20:43.000Z</time>
      </trkpt>
      <trkpt lat="45.01762" lon="5.47624">
        <ele>1355</ele>
        <time>2000-01-01T05:20:53.000Z</time>
      </trkpt>
      <trkpt lat="45.01749" lon="5.47623">
        <ele>1324.6</ele>
        <time>2000-01-01T05:21:03.000Z</time>
      </trkpt>
      <trkpt lat="45.01718" lon="5.47625">
        <ele>1347</ele>
        <time>2000-01-01T05:21:13.000Z</time>
      </trkpt>
      <trkpt lat="45.01684" lon="5.47627">
        <ele>1340</ele>
        <time>2000-01-01T05:21:23.000Z</time>
      </trkpt>
      <trkpt lat="45.01656" lon="5.47629">
        <ele>1340</ele>
        <time>2000-01-01T05:21:33.000Z</time>
      </trkpt>
      <trkpt lat="45.01611" lon="5.47634">
        <ele>1341</ele>
        <time>2000-01-01T05:21:43.000Z</time>
      </trkpt>
      <trkpt lat="45.01579" lon="5.47622">
        <ele>1342</ele>
        <time>2000-01-01T05:21:53.000Z</time>
      </trkpt>
      <trkpt lat="45.0154" lon="5.47605">
        <ele>1338</ele>
        <time>2000-01-01T05:22:03.000Z</time>
      </trkpt>
      <trkpt lat="45.01519" lon="5.47595">
        <ele>1338</ele>
        <time>2000-01-01T05:22:13.000Z</time>
      </trkpt>
      <trkpt lat="45.01479" lon="5.47581">
        <ele>1338</ele>
        <time>2000-01-01T05:22:23.000Z</time>
      </trkpt>
      <trkpt lat="45.01466" lon="5.47554">
        <ele>1334</ele>
        <time>2000-01-01T05:22:33.000Z</time>
      </trkpt>
      <trkpt lat="45.01423" lon="5.47551">
        <ele>1330</ele>
        <time>2000-01-01T05:22:43.000Z</time>
      </trkpt>
      <trkpt lat="45.01403" lon="5.47539">
        <ele>1330</ele>
        <time>2000-01-01T05:22:53.000Z</time>
      </trkpt>
      <trkpt lat="45.0136" lon="5.47511">
        <ele>1324</ele>
        <time>2000-01-01T05:23:03.000Z</time>
      </trkpt>
      <trkpt lat="45.0132" lon="5.47518">
        <ele>1318</ele>
        <time>2000-01-01T05:23:13.000Z</time>
      </trkpt>
      <trkpt lat="45.01293" lon="5.47548">
        <ele>1318</ele>
        <time>2000-01-01T05:23:23.000Z</time>
      </trkpt>
      <trkpt lat="45.01266" lon="5.47562">
        <ele>1320</ele>
        <time>2000-01-01T05:23:33.000Z</time>
      </trkpt>
      <trkpt lat="45.01244" lon="5.47573">
        <ele>1322</ele>
        <time>2000-01-01T05:23:43.000Z</time>
      </trkpt>
      <trkpt lat="45.01221" lon="5.47585">
        <ele>1319</ele>
        <time>2000-01-01T05:23:53.000Z</time>
      </trkpt>
      <trkpt lat="45.01181" lon="5.47595">
        <ele>1320</ele>
        <time>2000-01-01T05:24:03.000Z</time>
      </trkpt>
      <trkpt lat="45.01157" lon="5.47605">
        <ele>1321</ele>
        <time>2000-01-01T05:24:13.000Z</time>
      </trkpt>
      <trkpt lat="45.01116" lon="5.47618">
        <ele>1321</ele>
        <time>2000-01-01T05:24:23.000Z</time>
      </trkpt>
      <trkpt lat="45.01091" lon="5.47632">
        <ele>1317</ele>
        <time>2000-01-01T05:24:33.000Z</time>
      </trkpt>
      <trkpt lat="45.01075" lon="5.47634">
        <ele>1309.8</ele>
        <time>2000-01-01T05:24:43.000Z</time>
      </trkpt>
      <trkpt lat="45.01048" lon="5.47624">
        <ele>1314</ele>
        <time>2000-01-01T05:24:53.000Z</time>
      </trkpt>
      <trkpt lat="45.01021" lon="5.47599">
        <ele>1310</ele>
        <time>2000-01-01T05:25:03.000Z</time>
      </trkpt>
      <trkpt lat="45.01049" lon="5.47578">
        <ele>1310</ele>
        <time>2000-01-01T05:25:13.000Z</time>
      </trkpt>
      <trkpt lat="45.01059" lon="5.47551">
        <ele>1306</ele>
        <time>2000-01-01T05:25:23.000Z</time>
      </trkpt>
      <trkpt lat="45.01072" lon="5.47496">
        <ele>1306</ele>
        <time>2000-01-01T05:25:33.000Z</time>
      </trkpt>
      <trkpt lat="45.01087" lon="5.4746">
        <ele>1307</ele>
        <time>2000-01-01T05:25:43.000Z</time>
      </trkpt>
      <trkpt lat="45.01116" lon="5.47446">
        <ele>1304</ele>
        <time>2000-01-01T05:25:53.000Z</time>
      </trkpt>
      <trkpt lat="45.01129" lon="5.47443">
        <ele>1302.7</ele>
        <time>2000-01-01T05:26:03.000Z</time>
      </trkpt>
      <trkpt lat="45.01138" lon="5.47432">
        <ele>1301</ele>
        <time>2000-01-01T05:26:13.000Z</time>
      </trkpt>
      <trkpt lat="45.01155" lon="5.47393">
        <ele>1300</ele>
        <time>2000-01-01T05:26:23.000Z</time>
      </trkpt>
      <trkpt lat="45.01177" lon="5.47371">
        <ele>1298</ele>
        <time>2000-01-01T05:26:33.000Z</time>
      </trkpt>
      <trkpt lat="45.01195" lon="5.47332">
        <ele>1298</ele>
        <time>2000-01-01T05:26:43.000Z</time>
      </trkpt>
      <trkpt lat="45.01203" lon="5.47322">
        <ele>1295.3</ele>
        <time>2000-01-01T05:26:53.000Z</time>
      </trkpt>
      <trkpt lat="45.01225" lon="5.47318">
        <ele>1298</ele>
        <time>2000-01-01T05:27:03.000Z</time>
      </trkpt>
      <trkpt lat="45.01239" lon="5.47306">
        <ele>1294</ele>
        <time>2000-01-01T05:27:13.000Z</time>
      </trkpt>
      <trkpt lat="45.01256" lon="5.47278">
        <ele>1298</ele>
        <time>2000-01-01T05:27:23.000Z</time>
      </trkpt>
      <trkpt lat="45.01266" lon="5.47262">
        <ele>1290.3</ele>
        <time>2000-01-01T05:27:33.000Z</time>
      </trkpt>
      <trkpt lat="45.01285" lon="5.47246">
        <ele>1298</ele>
        <time>2000-01-01T05:27:43.000Z</time>
      </trkpt>
      <trkpt lat="45.01301" lon="5.47223">
        <ele>1298</ele>
        <time>2000-01-01T05:27:53.000Z</time>
      </trkpt>
      <trkpt lat="45.01305" lon="5.47159">
        <ele>1291</ele>
        <time>2000-01-01T05:28:03.000Z</time>
      </trkpt>
      <trkpt lat="45.01345" lon="5.47146">
        <ele>1291</ele>
        <time>2000-01-01T05:28:13.000Z</time>
      </trkpt>
      <trkpt lat="45.01349" lon="5.4709">
        <ele>1291</ele>
        <time>2000-01-01T05:28:23.000Z</time>
      </trkpt>
      <trkpt lat="45.01366" lon="5.47066">
        <ele>1291</ele>
        <time>2000-01-01T05:28:33.000Z</time>
      </trkpt>
      <trkpt lat="45.01384" lon="5.47041">
        <ele>1291</ele>
        <time>2000-01-01T05:28:43.000Z</time>
      </trkpt>
      <trkpt lat="45.01395" lon="5.47019">
        <ele>1286.6</ele>
        <time>2000-01-01T05:28:53.000Z</time>
      </trkpt>
      <trkpt lat="45.01438" lon="5.47001">
        <ele>1291</ele>
        <time>2000-01-01T05:29:03.000Z</time>
      </trkpt>
      <trkpt lat="45.0145" lon="5.47">
        <ele>1293.4</ele>
        <time>2000-01-01T05:29:13.000Z</time>
      </trkpt>
      <trkpt lat="45.01485" lon="5.46959">
        <ele>1286</ele>
        <time>2000-01-01T05:29:23.000Z</time>
      </trkpt>
      <trkpt lat="45.01505" lon="5.46943">
        <ele>1284</ele>
        <time>2000-01-01T05:29:33.000Z</time>
      </trkpt>
      <trkpt lat="45.01525" lon="5.46923">
        <ele>1282</ele>
        <time>2000-01-01T05:29:43.000Z</time>
      </trkpt>
      <trkpt lat="45.01535" lon="5.46919">
        <ele>1285.2</ele>
        <time>2000-01-01T05:29:53.000Z</time>
      </trkpt>
      <trkpt lat="45.01545" lon="5.46891">
        <ele>1285</ele>
        <time>2000-01-01T05:30:03.000Z</time>
      </trkpt>
      <trkpt lat="45.01573" lon="5.46888">
        <ele>1284</ele>
        <time>2000-01-01T05:30:13.000Z</time>
      </trkpt>
      <trkpt lat="45.01617" lon="5.46873">
        <ele>1283</ele>
        <time>2000-01-01T05:30:23.000Z</time>
      </trkpt>
      <trkpt lat="45.01633" lon="5.46867">
        <ele>1284.5</ele>
        <time>2000-01-01T05:30:33.000Z</time>
      </trkpt>
      <trkpt lat="45.01639" lon="5.46842">
        <ele>1282</ele>
        <time>2000-01-01T05:30:43.000Z</time>
      </trkpt>
      <trkpt lat="45.01658" lon="5.46825">
        <ele>1282</ele>
        <time>2000-01-01T05:30:53.000Z</time>
      </trkpt>
      <trkpt lat="45.01687" lon="5.46784">
        <ele>1260</ele>
        <time>2000-01-01T05:31:03.000Z</time>
      </trkpt>
      <trkpt lat="45.01692" lon="5.46767">
        <ele>1258</ele>
        <time>2000-01-01T05:31:13.000Z</time>
      </trkpt>
      <trkpt lat="45.01719" lon="5.46733">
        <ele>1252</ele>
        <time>2000-01-01T05:31:23.000Z</time>
      </trkpt>
      <trkpt lat="45.01746" lon="5.46706">
        <ele>1244</ele>
        <time>2000-01-01T05:31:33.000Z</time>
      </trkpt>
      <trkpt lat="45.01761" lon="5.46677">
        <ele>1242</ele>
        <time>2000-01-01T05:31:43.000Z</time>
      </trkpt>
      <trkpt lat="45.0179" lon="5.46646">
        <ele>1247</ele>
        <time>2000-01-01T05:31:53.000Z</time>
      </trkpt>
      <trkpt lat="45.01804" lon="5.4662">
        <ele>1242</ele>
        <time>2000-01-01T05:32:03.000Z</time>
      </trkpt>
      <trkpt lat="45.01805" lon="5.46593">
        <ele>1231.3</ele>
        <time>2000-01-01T05:32:13.000Z</time>
      </trkpt>
      <trkpt lat="45.01824" lon="5.46557">
        <ele>1238</ele>
        <time>2000-01-01T05:32:23.000Z</time>
      </trkpt>
      <trkpt lat="45.01837" lon="5.46527">
        <ele>1235</ele>
        <time>2000-01-01T05:32:33.000Z</time>
      </trkpt>
      <trkpt lat="45.0184" lon="5.46495">
        <ele>1232</ele>
        <time>2000-01-01T05:32:43.000Z</time>
      </trkpt>
      <trkpt lat="45.01833" lon="5.46473">
        <ele>1202.2</ele>
        <time>2000-01-01T05:32:53.000Z</time>
      </trkpt>
      <trkpt lat="45.01846" lon="5.46457">
        <ele>1227</ele>
        <time>2000-01-01T05:33:03.000Z</time>
      </trkpt>
      <trkpt lat="45.01852" lon="5.46424">
        <ele>1222</ele>
        <time>2000-01-01T05:33:13.000Z</time>
      </trkpt>
      <trkpt lat="45.01857" lon="5.46456">
        <ele>1222</ele>
        <time>2000-01-01T05:33:23.000Z</time>
      </trkpt>
      <trkpt lat="45.0188" lon="5.46472">
        <ele>1218</ele>
        <time>2000-01-01T05:33:33.000Z</time>
      </trkpt>
      <trkpt lat="45.01903" lon="5.46483">
        <ele>1218</ele>
        <time>2000-01-01T05:33:43.000Z</time>
      </trkpt>
      <trkpt lat="45.01936" lon="5.46526">
        <ele>1218</ele>
        <time>2000-01-01T05:33:53.000Z</time>
      </trkpt>
      <trkpt lat="45.01962" lon="5.46538">
        <ele>1223</ele>
        <time>2000-01-01T05:34:03.000Z</time>
      </trkpt>
      <trkpt lat="45.01974" lon="5.46545">
        <ele>1227.4</ele>
        <time>2000-01-01T05:34:13.000Z</time>
      </trkpt>
      <trkpt lat="45.01994" lon="5.46553">
        <ele>1253</ele>
        <time>2000-01-01T05:34:23.000Z</time>
      </trkpt>
      <trkpt lat="45.02012" lon="5.4655">
        <ele>1235.8</ele>
        <time>2000-01-01T05:34:33.000Z</time>
      </trkpt>
      <trkpt lat="45.02042" lon="5.46559">
        <ele>1262</ele>
        <time>2000-01-01T05:34:43.000Z</time>
      </trkpt>
      <trkpt lat="45.02038" lon="5.46584">
        <ele>1269</ele>
        <time>2000-01-01T05:34:53.000Z</time>
      </trkpt>
      <trkpt lat="45.0205" lon="5.46591">
        <ele>1278</ele>
        <time>2000-01-01T05:35:03.000Z</time>
      </trkpt>
      <trkpt lat="45.02073" lon="5.46587">
        <ele>1282</ele>
        <time>2000-01-01T05:35:13.000Z</time>
      </trkpt>
      <trkpt lat="45.02097" lon="5.46585">
        <ele>1282</ele>
        <time>2000-01-01T05:35:23.000Z</time>
      </trkpt>
      <trkpt lat="45.02132" lon="5.46576">
        <ele>1271</ele>
        <time>2000-01-01T05:35:33.000Z</time>
      </trkpt>
      <trkpt lat="45.02161" lon="5.46563">
        <ele>1260</ele>
        <time>2000-01-01T05:35:43.000Z</time>
      </trkpt>
      <trkpt lat="45.02178" lon="5.46547">
        <ele>1259</ele>
        <time>2000-01-01T05:35:53.000Z</time>
      </trkpt>
      <trkpt lat="45.02203" lon="5.46528">
        <ele>1259</ele>
        <time>2000-01-01T05:36:03.000Z</time>
      </trkpt>
      <trkpt lat="45.02228" lon="5.46528">
        <ele>1271</ele>
        <time>2000-01-01T05:36:13.000Z</time>
      </trkpt>
      <trkpt lat="45.02257" lon="5.46528">
        <ele>1276</ele>
        <time>2000-01-01T05:36:23.000Z</time>
      </trkpt>
      <trkpt lat="45.0229" lon="5.46483">
        <ele>1281</ele>
        <time>2000-01-01T05:36:33.000Z</time>
      </trkpt>
      <trkpt lat="45.02334" lon="5.46464">
        <ele>1266</ele>
        <time>2000-01-01T05:36:43.000Z</time>
      </trkpt>
      <trkpt lat="45.02356" lon="5.46439">
        <ele>1269</ele>
        <time>2000-01-01T05:36:53.000Z</time>
      </trkpt>
      <trkpt lat="45.02382" lon="5.46422">
        <ele>1251</ele>
        <time>2000-01-01T05:37:03.000Z</time>
      </trkpt>
      <trkpt lat="45.02403" lon="5.46402">
        <ele>1233</ele>
        <time>2000-01-01T05:37:13.000Z</time>
      </trkpt>
      <trkpt lat="45.02435" lon="5.46364">
        <ele>1225</ele>
        <time>2000-01-01T05:37:23.000Z</time>
      </trkpt>
      <trkpt lat="45.02453" lon="5.46347">
        <ele>1235</ele>
        <time>2000-01-01T05:37:33.000Z</time>
      </trkpt>
      <trkpt lat="45.02472" lon="5.46328">
        <ele>1218</ele>
        <time>2000-01-01T05:37:43.000Z</time>
      </trkpt>
      <trkpt lat="45.02496" lon="5.46317">
        <ele>1213</ele>
        <time>2000-01-01T05:37:53.000Z</time>
      </trkpt>
      <trkpt lat="45.02521" lon="5.46307">
        <ele>1208</ele>
        <time>2000-01-01T05:38:03.000Z</time>
      </trkpt>
      <trkpt lat="45.02546" lon="5.46319">
        <ele>1208</ele>
        <time>2000-01-01T05:38:13.000Z</time>
      </trkpt>
      <trkpt lat="45.0257" lon="5.46327">
        <ele>1301</ele>
        <time>2000-01-01T05:38:23.000Z</time>
      </trkpt>
      <trkpt lat="45.02582" lon="5.46358">
        <ele>1310</ele>
        <time>2000-01-01T05:38:33.000Z</time>
      </trkpt>
      <trkpt lat="45.02589" lon="5.46393">
        <ele>1312</ele>
        <time>2000-01-01T05:38:43.000Z</time>
      </trkpt>
      <trkpt lat="45.02585" lon="5.46428">
        <ele>1312</ele>
        <time>2000-01-01T05:38:53.000Z</time>
      </trkpt>
      <trkpt lat="45.02589" lon="5.46459">
        <ele>1313</ele>
        <time>2000-01-01T05:39:03.000Z</time>
      </trkpt>
      <trkpt lat="45.02598" lon="5.46495">
        <ele>1313</ele>
        <time>2000-01-01T05:39:13.000Z</time>
      </trkpt>
      <trkpt lat="45.02595" lon="5.4652">
        <ele>1311.4</ele>
        <time>2000-01-01T05:39:23.000Z</time>
      </trkpt>
      <trkpt lat="45.02589" lon="5.46585">
        <ele>1314</ele>
        <time>2000-01-01T05:39:33.000Z</time>
      </trkpt>
      <trkpt lat="45.02582" lon="5.4662">
        <ele>1314</ele>
        <time>2000-01-01T05:39:43.000Z</time>
      </trkpt>
      <trkpt lat="45.02574" lon="5.4666">
        <ele>1314</ele>
        <time>2000-01-01T05:39:53.000Z</time>
      </trkpt>
      <trkpt lat="45.02564" lon="5.46701">
        <ele>1313</ele>
        <time>2000-01-01T05:40:03.000Z</time>
      </trkpt>
      <trkpt lat="45.02548" lon="5.46771">
        <ele>1312</ele>
        <time>2000-01-01T05:40:13.000Z</time>
      </trkpt>
      <trkpt lat="45.02527" lon="5.46799">
        <ele>1312</ele>
        <time>2000-01-01T05:40:23.000Z</time>
      </trkpt>
      <trkpt lat="45.0252" lon="5.46839">
        <ele>1316</ele>
        <time>2000-01-01T05:40:33.000Z</time>
      </trkpt>
      <trkpt lat="45.02508" lon="5.469">
        <ele>1317</ele>
        <time>2000-01-01T05:40:43.000Z</time>
      </trkpt>
      <trkpt lat="45.02502" lon="5.4694">
        <ele>1318</ele>
        <time>2000-01-01T05:40:53.000Z</time>
      </trkpt>
      <trkpt lat="45.02493" lon="5.46999">
        <ele>1322</ele>
        <time>2000-01-01T05:41:03.000Z</time>
      </trkpt>
      <trkpt lat="45.02486" lon="5.47035">
        <ele>1322</ele>
        <time>2000-01-01T05:41:13.000Z</time>
      </trkpt>
      <trkpt lat="45.0249" lon="5.471">
        <ele>1314</ele>
        <time>2000-01-01T05:41:23.000Z</time>
      </trkpt>
      <trkpt lat="45.02475" lon="5.47143">
        <ele>1306</ele>
        <time>2000-01-01T05:41:33.000Z</time>
      </trkpt>
      <trkpt lat="45.02452" lon="5.47159">
        <ele>1293</ele>
        <time>2000-01-01T05:41:43.000Z</time>
      </trkpt>
      <trkpt lat="45.02425" lon="5.47177">
        <ele>1292</ele>
        <time>2000-01-01T05:41:53.000Z</time>
      </trkpt>
      <trkpt lat="45.02395" lon="5.47179">
        <ele>1292</ele>
        <time>2000-01-01T05:42:03.000Z</time>
      </trkpt>
      <trkpt lat="45.02342" lon="5.47184">
        <ele>1292</ele>
        <time>2000-01-01T05:42:13.000Z</time>
      </trkpt>
      <trkpt lat="45.02311" lon="5.4718">
        <ele>1293</ele>
        <time>2000-01-01T05:42:23.000Z</time>
      </trkpt>
      <trkpt lat="45.02252" lon="5.47175">
        <ele>1297</ele>
        <time>2000-01-01T05:42:33.000Z</time>
      </trkpt>
      <trkpt lat="45.02218" lon="5.47184">
        <ele>1297</ele>
        <time>2000-01-01T05:42:43.000Z</time>
      </trkpt>
      <trkpt lat="45.02184" lon="5.47194">
        <ele>1299</ele>
        <time>2000-01-01T05:42:53.000Z</time>
      </trkpt>
      <trkpt lat="45.02129" lon="5.47209">
        <ele>1294</ele>
        <time>2000-01-01T05:43:03.000Z</time>
      </trkpt>
      <trkpt lat="45.02101" lon="5.47224">
        <ele>1299</ele>
        <time>2000-01-01T05:43:13.000Z</time>
      </trkpt>
      <trkpt lat="45.02055" lon="5.47248">
        <ele>1305</ele>
        <time>2000-01-01T05:43:23.000Z</time>
      </trkpt>
      <trkpt lat="45.02031" lon="5.47278">
        <ele>1307</ele>
        <time>2000-01-01T05:43:33.000Z</time>
      </trkpt>
      <trkpt lat="45.02007" lon="5.47309">
        <ele>1308</ele>
        <time>2000-01-01T05:43:43.000Z</time>
      </trkpt>
      <trkpt lat="45.01981" lon="5.47342">
        <ele>1306</ele>
        <time>2000-01-01T05:43:53.000Z</time>
      </trkpt>
      <trkpt lat="45.01998" lon="5.47376">
        <ele>1304</ele>
        <time>2000-01-01T05:44:03.000Z</time>
      </trkpt>
      <trkpt lat="45.02026" lon="5.47432">
        <ele>1308</ele>
        <time>2000-01-01T05:44:13.000Z</time>
      </trkpt>
      <trkpt lat="45.02028" lon="5.47475">
        <ele>1309</ele>
        <time>2000-01-01T05:44:23.000Z</time>
      </trkpt>
      <trkpt lat="45.02031" lon="5.47548">
        <ele>1302</ele>
        <time>2000-01-01T05:44:33.000Z</time>
      </trkpt>
      <trkpt lat="45.02076" lon="5.47568">
        <ele>1296</ele>
        <time>2000-01-01T05:44:43.000Z</time>
      </trkpt>
      <trkpt lat="45.02103" lon="5.47576">
        <ele>1295</ele>
        <time>2000-01-01T05:44:53.000Z</time>
      </trkpt>
      <trkpt lat="45.02138" lon="5.47587">
        <ele>1293</ele>
        <time>2000-01-01T05:45:03.000Z</time>
      </trkpt>
      <trkpt lat="45.02173" lon="5.47594">
        <ele>1291</ele>
        <time>2000-01-01T05:45:13.000Z</time>
      </trkpt>
      <trkpt lat="45.02207" lon="5.47602">
        <ele>1291</ele>
        <time>2000-01-01T05:45:23.000Z</time>
      </trkpt>
      <trkpt lat="45.02264" lon="5.47615">
        <ele>1290</ele>
        <time>2000-01-01T05:45:33.000Z</time>
      </trkpt>
      <trkpt lat="45.02289" lon="5.47628">
        <ele>1289</ele>
        <time>2000-01-01T05:45:43.000Z</time>
      </trkpt>
      <trkpt lat="45.02317" lon="5.47643">
        <ele>1289</ele>
        <time>2000-01-01T05:45:53.000Z</time>
      </trkpt>
      <trkpt lat="45.02351" lon="5.47651">
        <ele>1288</ele>
        <time>2000-01-01T05:46:03.000Z</time>
      </trkpt>
      <trkpt lat="45.02385" lon="5.4766">
        <ele>1288</ele>
        <time>2000-01-01T05:46:13.000Z</time>
      </trkpt>
      <trkpt lat="45.02437" lon="5.47673">
        <ele>1281</ele>
        <time>2000-01-01T05:46:23.000Z</time>
      </trkpt>
      <trkpt lat="45.02471" lon="5.47677">
        <ele>1274</ele>
        <time>2000-01-01T05:46:33.000Z</time>
      </trkpt>
      <trkpt lat="45.02506" lon="5.47682">
        <ele>1276</ele>
        <time>2000-01-01T05:46:43.000Z</time>
      </trkpt>
      <trkpt lat="45.0256" lon="5.4769">
        <ele>1278</ele>
        <time>2000-01-01T05:46:53.000Z</time>
      </trkpt>
      <trkpt lat="45.02594" lon="5.477">
        <ele>1279</ele>
        <time>2000-01-01T05:47:03.000Z</time>
      </trkpt>
      <trkpt lat="45.02627" lon="5.47709">
        <ele>1279</ele>
        <time>2000-01-01T05:47:13.000Z</time>
      </trkpt>
      <trkpt lat="45.0268" lon="5.47724">
        <ele>1278</ele>
        <time>2000-01-01T05:47:23.000Z</time>
      </trkpt>
      <trkpt lat="45.02709" lon="5.47718">
        <ele>1278</ele>
        <time>2000-01-01T05:47:33.000Z</time>
      </trkpt>
      <trkpt lat="45.02757" lon="5.47707">
        <ele>1279</ele>
        <time>2000-01-01T05:47:43.000Z</time>
      </trkpt>
      <trkpt lat="45.02787" lon="5.47703">
        <ele>1281</ele>
        <time>2000-01-01T05:47:53.000Z</time>
      </trkpt>
      <trkpt lat="45.02838" lon="5.47696">
        <ele>1280</ele>
        <time>2000-01-01T05:48:03.000Z</time>
      </trkpt>
      <trkpt lat="45.02869" lon="5.47703">
        <ele>1280</ele>
        <time>2000-01-01T05:48:13.000Z</time>
      </trkpt>
      <trkpt lat="45.02901" lon="5.4771">
        <ele>1281</ele>
        <time>2000-01-01T05:48:23.000Z</time>
      </trkpt>
      <trkpt lat="45.02933" lon="5.47718">
        <ele>1282</ele>
        <time>2000-01-01T05:48:33.000Z</time>
      </trkpt>
      <trkpt lat="45.02975" lon="5.47719">
        <ele>1282</ele>
        <time>2000-01-01T05:48:43.000Z</time>
      </trkpt>
      <trkpt lat="45.03003" lon="5.47726">
        <ele>1281</ele>
        <time>2000-01-01T05:48:53.000Z</time>
      </trkpt>
      <trkpt lat="45.03044" lon="5.47737">
        <ele>1281</ele>
        <time>2000-01-01T05:49:03.000Z</time>
      </trkpt>
      <trkpt lat="45.03068" lon="5.47744">
        <ele>1286</ele>
        <time>2000-01-01T05:49:13.000Z</time>
      </trkpt>
      <trkpt lat="45.03096" lon="5.47757">
        <ele>1288</ele>
        <time>2000-01-01T05:49:23.000Z</time>
      </trkpt>
      <trkpt lat="45.03119" lon="5.47773">
        <ele>1289</ele>
        <time>2000-01-01T05:49:33.000Z</time>
      </trkpt>
      <trkpt lat="45.0316" lon="5.47781">
        <ele>1287</ele>
        <time>2000-01-01T05:49:43.000Z</time>
      </trkpt>
      <trkpt lat="45.03202" lon="5.47784">
        <ele>1285</ele>
        <time>2000-01-01T05:49:53.000Z</time>
      </trkpt>
      <trkpt lat="45.03229" lon="5.47787">
        <ele>1286</ele>
        <time>2000-01-01T05:50:03.000Z</time>
      </trkpt>
      <trkpt lat="45.0326" lon="5.47789">
        <ele>1288</ele>
        <time>2000-01-01T05:50:13.000Z</time>
      </trkpt>
      <trkpt lat="45.03289" lon="5.47823">
        <ele>1290</ele>
        <time>2000-01-01T05:50:23.000Z</time>
      </trkpt>
      <trkpt lat="45.03319" lon="5.47862">
        <ele>1292</ele>
        <time>2000-01-01T05:50:33.000Z</time>
      </trkpt>
      <trkpt lat="45.03336" lon="5.47888">
        <ele>1296</ele>
        <time>2000-01-01T05:50:43.000Z</time>
      </trkpt>
      <trkpt lat="45.03355" lon="5.47918">
        <ele>1298</ele>
        <time>2000-01-01T05:50:53.000Z</time>
      </trkpt>
      <trkpt lat="45.03388" lon="5.47958">
        <ele>1304</ele>
        <time>2000-01-01T05:51:03.000Z</time>
      </trkpt>
      <trkpt lat="45.03425" lon="5.47977">
        <ele>1304</ele>
        <time>2000-01-01T05:51:13.000Z</time>
      </trkpt>
      <trkpt lat="45.03467" lon="5.47976">
        <ele>1303</ele>
        <time>2000-01-01T05:51:23.000Z</time>
      </trkpt>
      <trkpt lat="45.03492" lon="5.47974">
        <ele>1303</ele>
        <time>2000-01-01T05:51:33.000Z</time>
      </trkpt>
      <trkpt lat="45.03522" lon="5.47971">
        <ele>1305</ele>
        <time>2000-01-01T05:51:43.000Z</time>
      </trkpt>
      <trkpt lat="45.03555" lon="5.4797">
        <ele>1318</ele>
        <time>2000-01-01T05:51:53.000Z</time>
      </trkpt>
      <trkpt lat="45.03587" lon="5.47969">
        <ele>1319</ele>
        <time>2000-01-01T05:52:03.000Z</time>
      </trkpt>
      <trkpt lat="45.03628" lon="5.47962">
        <ele>1320</ele>
        <time>2000-01-01T05:52:13.000Z</time>
      </trkpt>
      <trkpt lat="45.03669" lon="5.47939">
        <ele>1326</ele>
        <time>2000-01-01T05:52:23.000Z</time>
      </trkpt>
      <trkpt lat="45.03663" lon="5.47977">
        <ele>1327</ele>
        <time>2000-01-01T05:52:33.000Z</time>
      </trkpt>
      <trkpt lat="45.0366" lon="5.48001">
        <ele>1318.9</ele>
        <time>2000-01-01T05:52:43.000Z</time>
      </trkpt>
      <trkpt lat="45.03662" lon="5.48028">
        <ele>1329</ele>
        <time>2000-01-01T05:52:53.000Z</time>
      </trkpt>
      <trkpt lat="45.03677" lon="5.48049">
        <ele>1329</ele>
        <time>2000-01-01T05:53:03.000Z</time>
      </trkpt>
      <trkpt lat="45.03699" lon="5.48075">
        <ele>1331</ele>
        <time>2000-01-01T05:53:13.000Z</time>
      </trkpt>
      <trkpt lat="45.03725" lon="5.48115">
        <ele>1333</ele>
        <time>2000-01-01T05:53:23.000Z</time>
      </trkpt>
      <trkpt lat="45.03751" lon="5.48135">
        <ele>1335</ele>
        <time>2000-01-01T05:53:33.000Z</time>
      </trkpt>
      <trkpt lat="45.03785" lon="5.48157">
        <ele>1337</ele>
        <time>2000-01-01T05:53:43.000Z</time>
      </trkpt>
      <trkpt lat="45.03814" lon="5.48176">
        <ele>1343</ele>
        <time>2000-01-01T05:53:53.000Z</time>
      </trkpt>
      <trkpt lat="45.03839" lon="5.482">
        <ele>1353</ele>
        <time>2000-01-01T05:54:03.000Z</time>
      </trkpt>
      <trkpt lat="45.03871" lon="5.48224">
        <ele>1353</ele>
        <time>2000-01-01T05:54:13.000Z</time>
      </trkpt>
      <trkpt lat="45.03891" lon="5.48251">
        <ele>1357</ele>
        <time>2000-01-01T05:54:23.000Z</time>
      </trkpt>
      <trkpt lat="45.0392" lon="5.48285">
        <ele>1361</ele>
        <time>2000-01-01T05:54:33.000Z</time>
      </trkpt>
      <trkpt lat="45.03945" lon="5.48306">
        <ele>1369</ele>
        <time>2000-01-01T05:54:43.000Z</time>
      </trkpt>
      <trkpt lat="45.0398" lon="5.48328">
        <ele>1370</ele>
        <time>2000-01-01T05:54:53.000Z</time>
      </trkpt>
      <trkpt lat="45.04013" lon="5.4835">
        <ele>1372</ele>
        <time>2000-01-01T05:55:03.000Z</time>
      </trkpt>
      <trkpt lat="45.04037" lon="5.48357">
        <ele>1378</ele>
        <time>2000-01-01T05:55:13.000Z</time>
      </trkpt>
      <trkpt lat="45.04075" lon="5.48378">
        <ele>1390</ele>
        <time>2000-01-01T05:55:23.000Z</time>
      </trkpt>
      <trkpt lat="45.04112" lon="5.48408">
        <ele>1391</ele>
        <time>2000-01-01T05:55:33.000Z</time>
      </trkpt>
      <trkpt lat="45.04114" lon="5.4842">
        <ele>1379</ele>
        <time>2000-01-01T05:55:43.000Z</time>
      </trkpt>
      <trkpt lat="45.04115" lon="5.48459">
        <ele>1391</ele>
        <time>2000-01-01T05:55:53.000Z</time>
      </trkpt>
      <trkpt lat="45.04108" lon="5.48506">
        <ele>1401</ele>
        <time>2000-01-01T05:56:03.000Z</time>
      </trkpt>
      <trkpt lat="45.04099" lon="5.48524">
        <ele>1397.7</ele>
        <time>2000-01-01T05:56:13.000Z</time>
      </trkpt>
      <trkpt lat="45.04083" lon="5.48535">
        <ele>1409</ele>
        <time>2000-01-01T05:56:23.000Z</time>
      </trkpt>
      <trkpt lat="45.04057" lon="5.48557">
        <ele>1422</ele>
        <time>2000-01-01T05:56:33.000Z</time>
      </trkpt>
      <trkpt lat="45.04032" lon="5.48559">
        <ele>1429</ele>
        <time>2000-01-01T05:56:43.000Z</time>
      </trkpt>
      <trkpt lat="45.04057" lon="5.48579">
        <ele>1429</ele>
        <time>2000-01-01T05:56:53.000Z</time>
      </trkpt>
      <trkpt lat="45.04085" lon="5.48598">
        <ele>1430</ele>
        <time>2000-01-01T05:57:03.000Z</time>
      </trkpt>
      <trkpt lat="45.0412" lon="5.48619">
        <ele>1431</ele>
        <time>2000-01-01T05:57:13.000Z</time>
      </trkpt>
      <trkpt lat="45.04144" lon="5.48618">
        <ele>1431</ele>
        <time>2000-01-01T05:57:23.000Z</time>
      </trkpt>
      <trkpt lat="45.04171" lon="5.48628">
        <ele>1431</ele>
        <time>2000-01-01T05:57:33.000Z</time>
      </trkpt>
      <trkpt lat="45.04199" lon="5.48635">
        <ele>1454</ele>
        <time>2000-01-01T05:57:43.000Z</time>
      </trkpt>
      <trkpt lat="45.0424" lon="5.48645">
        <ele>1458</ele>
        <time>2000-01-01T05:57:53.000Z</time>
      </trkpt>
      <trkpt lat="45.04265" lon="5.48643">
        <ele>1459</ele>
        <time>2000-01-01T05:58:03.000Z</time>
      </trkpt>
      <trkpt lat="45.04295" lon="5.48639">
        <ele>1460</ele>
        <time>2000-01-01T05:58:13.000Z</time>
      </trkpt>
      <trkpt lat="45.04321" lon="5.48624">
        <ele>1480</ele>
        <time>2000-01-01T05:58:23.000Z</time>
      </trkpt>
      <trkpt lat="45.0436" lon="5.48601">
        <ele>1496</ele>
        <time>2000-01-01T05:58:33.000Z</time>
      </trkpt>
      <trkpt lat="45.04385" lon="5.48612">
        <ele>1502</ele>
        <time>2000-01-01T05:58:43.000Z</time>
      </trkpt>
      <trkpt lat="45.04414" lon="5.48626">
        <ele>1506</ele>
        <time>2000-01-01T05:58:53.000Z</time>
      </trkpt>
      <trkpt lat="45.04444" lon="5.48639">
        <ele>1508</ele>
        <time>2000-01-01T05:59:03.000Z</time>
      </trkpt>
      <trkpt lat="45.04477" lon="5.48603">
        <ele>1508</ele>
        <time>2000-01-01T05:59:13.000Z</time>
      </trkpt>
      <trkpt lat="45.04496" lon="5.48556">
        <ele>1509</ele>
        <time>2000-01-01T05:59:23.000Z</time>
      </trkpt>
      <trkpt lat="45.045" lon="5.48529">
        <ele>1511</ele>
        <time>2000-01-01T05:59:33.000Z</time>
      </trkpt>
      <trkpt lat="45.045" lon="5.48493">
        <ele>1511</ele>
        <time>2000-01-01T05:59:43.000Z</time>
      </trkpt>
      <trkpt lat="45.04492" lon="5.48451">
        <ele>1510</ele>
        <time>2000-01-01T05:59:53.000Z</time>
      </trkpt>
      <trkpt lat="45.04494" lon="5.48419">
        <ele>1510</ele>
        <time>2000-01-01T06:00:03.000Z</time>
      </trkpt>
      <trkpt lat="45.04502" lon="5.48387">
        <ele>1510</ele>
        <time>2000-01-01T06:00:13.000Z</time>
      </trkpt>
      <trkpt lat="45.04497" lon="5.48352">
        <ele>1511</ele>
        <time>2000-01-01T06:00:23.000Z</time>
      </trkpt>
      <trkpt lat="45.0448" lon="5.483">
        <ele>1513</ele>
        <time>2000-01-01T06:00:33.000Z</time>
      </trkpt>
      <trkpt lat="45.04487" lon="5.48297">
        <ele>1515</ele>
        <time>2000-01-01T06:00:43.000Z</time>
      </trkpt>
      <trkpt lat="45.04509" lon="5.4831">
        <ele>1521</ele>
        <time>2000-01-01T06:00:53.000Z</time>
      </trkpt>
      <trkpt lat="45.04521" lon="5.48245">
        <ele>1534</ele>
        <time>2000-01-01T06:01:03.000Z</time>
      </trkpt>
      <trkpt lat="45.04553" lon="5.48246">
        <ele>1536</ele>
        <time>2000-01-01T06:01:13.000Z</time>
      </trkpt>
      <trkpt lat="45.04578" lon="5.48249">
        <ele>1538</ele>
        <time>2000-01-01T06:01:23.000Z</time>
      </trkpt>
      <trkpt lat="45.04597" lon="5.48242">
        <ele>1538</ele>
        <time>2000-01-01T06:01:33.000Z</time>
      </trkpt>
      <trkpt lat="45.04616" lon="5.48233">
        <ele>1532</ele>
        <time>2000-01-01T06:01:43.000Z</time>
      </trkpt>
      <trkpt lat="45.04628" lon="5.48221">
        <ele>1540.4</ele>
        <time>2000-01-01T06:01:53.000Z</time>
      </trkpt>
      <trkpt lat="45.04652" lon="5.48224">
        <ele>1533</ele>
        <time>2000-01-01T06:02:03.000Z</time>
      </trkpt>
      <trkpt lat="45.04672" lon="5.48231">
        <ele>1532</ele>
        <time>2000-01-01T06:02:13.000Z</time>
      </trkpt>
      <trkpt lat="45.04702" lon="5.48223">
        <ele>1534</ele>
        <time>2000-01-01T06:02:23.000Z</time>
      </trkpt>
      <trkpt lat="45.04726" lon="5.48219">
        <ele>1537</ele>
        <time>2000-01-01T06:02:33.000Z</time>
      </trkpt>
      <trkpt lat="45.04745" lon="5.48233">
        <ele>1548</ele>
        <time>2000-01-01T06:02:43.000Z</time>
      </trkpt>
      <trkpt lat="45.04773" lon="5.48237">
        <ele>1554</ele>
        <time>2000-01-01T06:02:53.000Z</time>
      </trkpt>
      <trkpt lat="45.04779" lon="5.4821">
        <ele>1554</ele>
        <time>2000-01-01T06:03:03.000Z</time>
      </trkpt>
      <trkpt lat="45.0479" lon="5.48191">
        <ele>1543.5</ele>
        <time>2000-01-01T06:03:13.000Z</time>
      </trkpt>
      <trkpt lat="45.04796" lon="5.48185">
        <ele>1547</ele>
        <time>2000-01-01T06:03:23.000Z</time>
      </trkpt>
      <trkpt lat="45.04811" lon="5.48193">
        <ele>1541.8</ele>
        <time>2000-01-01T06:03:33.000Z</time>
      </trkpt>
      <trkpt lat="45.04826" lon="5.48203">
        <ele>1547</ele>
        <time>2000-01-01T06:03:43.000Z</time>
      </trkpt>
      <trkpt lat="45.04851" lon="5.48224">
        <ele>1547</ele>
        <time>2000-01-01T06:03:53.000Z</time>
      </trkpt>
      <trkpt lat="45.04884" lon="5.48239">
        <ele>1542</ele>
        <time>2000-01-01T06:04:03.000Z</time>
      </trkpt>
      <trkpt lat="45.04926" lon="5.48259">
        <ele>1543</ele>
        <time>2000-01-01T06:04:13.000Z</time>
      </trkpt>
      <trkpt lat="45.04946" lon="5.48278">
        <ele>1545</ele>
        <time>2000-01-01T06:04:23.000Z</time>
      </trkpt>
      <trkpt lat="45.04956" lon="5.48294">
        <ele>1538.7</ele>
        <time>2000-01-01T06:04:33.000Z</time>
      </trkpt>
      <trkpt lat="45.04978" lon="5.48306">
        <ele>1545</ele>
        <time>2000-01-01T06:04:43.000Z</time>
      </trkpt>
      <trkpt lat="45.04991" lon="5.4833">
        <ele>1535</ele>
        <time>2000-01-01T06:04:53.000Z</time>
      </trkpt>
      <trkpt lat="45.0502" lon="5.48338">
        <ele>1535</ele>
        <time>2000-01-01T06:05:03.000Z</time>
      </trkpt>
      <trkpt lat="45.05031" lon="5.48351">
        <ele>1529.6</ele>
        <time>2000-01-01T06:05:13.000Z</time>
      </trkpt>
      <trkpt lat="45.05051" lon="5.4837">
        <ele>1525</ele>
        <time>2000-01-01T06:05:23.000Z</time>
      </trkpt>
      <trkpt lat="45.05087" lon="5.48375">
        <ele>1522</ele>
        <time>2000-01-01T06:05:33.000Z</time>
      </trkpt>
      <trkpt lat="45.05128" lon="5.48393">
        <ele>1524</ele>
        <time>2000-01-01T06:05:43.000Z</time>
      </trkpt>
      <trkpt lat="45.05117" lon="5.48421">
        <ele>1524</ele>
        <time>2000-01-01T06:05:53.000Z</time>
      </trkpt>
      <trkpt lat="45.05098" lon="5.48464">
        <ele>1521</ele>
        <time>2000-01-01T06:06:03.000Z</time>
      </trkpt>
      <trkpt lat="45.0508" lon="5.48498">
        <ele>1519</ele>
        <time>2000-01-01T06:06:13.000Z</time>
      </trkpt>
      <trkpt lat="45.05059" lon="5.48514">
        <ele>1515</ele>
        <time>2000-01-01T06:06:23.000Z</time>
      </trkpt>
      <trkpt lat="45.05035" lon="5.48524">
        <ele>1508</ele>
        <time>2000-01-01T06:06:33.000Z</time>
      </trkpt>
      <trkpt lat="45.0501" lon="5.48532">
        <ele>1508</ele>
        <time>2000-01-01T06:06:43.000Z</time>
      </trkpt>
      <trkpt lat="45.04985" lon="5.4855">
        <ele>1508</ele>
        <time>2000-01-01T06:06:53.000Z</time>
      </trkpt>
      <trkpt lat="45.04962" lon="5.48562">
        <ele>1506</ele>
        <time>2000-01-01T06:07:03.000Z</time>
      </trkpt>
      <trkpt lat="45.04935" lon="5.48582">
        <ele>1507</ele>
        <time>2000-01-01T06:07:13.000Z</time>
      </trkpt>
      <trkpt lat="45.04915" lon="5.48608">
        <ele>1503</ele>
        <time>2000-01-01T06:07:23.000Z</time>
      </trkpt>
      <trkpt lat="45.04899" lon="5.48644">
        <ele>1502</ele>
        <time>2000-01-01T06:07:33.000Z</time>
      </trkpt>
      <trkpt lat="45.0488" lon="5.48696">
        <ele>1502</ele>
        <time>2000-01-01T06:07:43.000Z</time>
      </trkpt>
      <trkpt lat="45.04869" lon="5.48734">
        <ele>1503</ele>
        <time>2000-01-01T06:07:53.000Z</time>
      </trkpt>
      <trkpt lat="45.04853" lon="5.48794">
        <ele>1501</ele>
        <time>2000-01-01T06:08:03.000Z</time>
      </trkpt>
      <trkpt lat="45.04831" lon="5.48822">
        <ele>1504</ele>
        <time>2000-01-01T06:08:13.000Z</time>
      </trkpt>
      <trkpt lat="45.04814" lon="5.48845">
        <ele>1498</ele>
        <time>2000-01-01T06:08:23.000Z</time>
      </trkpt>
      <trkpt lat="45.04795" lon="5.48869">
        <ele>1493</ele>
        <time>2000-01-01T06:08:33.000Z</time>
      </trkpt>
      <trkpt lat="45.04772" lon="5.48898">
        <ele>1491</ele>
        <time>2000-01-01T06:08:43.000Z</time>
      </trkpt>
      <trkpt lat="45.04751" lon="5.48923">
        <ele>1491</ele>
        <time>2000-01-01T06:08:53.000Z</time>
      </trkpt>
      <trkpt lat="45.0472" lon="5.4896">
        <ele>1486</ele>
        <time>2000-01-01T06:09:03.000Z</time>
      </trkpt>
      <trkpt lat="45.04688" lon="5.4899">
        <ele>1476</ele>
        <time>2000-01-01T06:09:13.000Z</time>
      </trkpt>
      <trkpt lat="45.04655" lon="5.48997">
        <ele>1475</ele>
        <time>2000-01-01T06:09:23.000Z</time>
      </trkpt>
      <trkpt lat="45.04611" lon="5.49008">
        <ele>1470</ele>
        <time>2000-01-01T06:09:33.000Z</time>
      </trkpt>
      <trkpt lat="45.04597" lon="5.4904">
        <ele>1463</ele>
        <time>2000-01-01T06:09:43.000Z</time>
      </trkpt>
      <trkpt lat="45.04572" lon="5.49052">
        <ele>1460</ele>
        <time>2000-01-01T06:09:53.000Z</time>
      </trkpt>
      <trkpt lat="45.04551" lon="5.49082">
        <ele>1457</ele>
        <time>2000-01-01T06:10:03.000Z</time>
      </trkpt>
      <trkpt lat="45.04541" lon="5.49111">
        <ele>1456</ele>
        <time>2000-01-01T06:10:13.000Z</time>
      </trkpt>
      <trkpt lat="45.04532" lon="5.49161">
        <ele>1456</ele>
        <time>2000-01-01T06:10:23.000Z</time>
      </trkpt>
      <trkpt lat="45.04529" lon="5.49217">
        <ele>1441</ele>
        <time>2000-01-01T06:10:33.000Z</time>
      </trkpt>
      <trkpt lat="45.04524" lon="5.49275">
        <ele>1442</ele>
        <time>2000-01-01T06:10:43.000Z</time>
      </trkpt>
      <trkpt lat="45.04504" lon="5.49258">
        <ele>1439</ele>
        <time>2000-01-01T06:10:53.000Z</time>
      </trkpt>
      <trkpt lat="45.04466" lon="5.4928">
        <ele>1437</ele>
        <time>2000-01-01T06:11:03.000Z</time>
      </trkpt>
      <trkpt lat="45.04437" lon="5.49292">
        <ele>1437</ele>
        <time>2000-01-01T06:11:13.000Z</time>
      </trkpt>
      <trkpt lat="45.04411" lon="5.49303">
        <ele>1433</ele>
        <time>2000-01-01T06:11:23.000Z</time>
      </trkpt>
      <trkpt lat="45.0437" lon="5.49314">
        <ele>1430</ele>
        <time>2000-01-01T06:11:33.000Z</time>
      </trkpt>
      <trkpt lat="45.04335" lon="5.49323">
        <ele>1426</ele>
        <time>2000-01-01T06:11:43.000Z</time>
      </trkpt>
      <trkpt lat="45.04311" lon="5.49335">
        <ele>1426</ele>
        <time>2000-01-01T06:11:53.000Z</time>
      </trkpt>
      <trkpt lat="45.04276" lon="5.49339">
        <ele>1423</ele>
        <time>2000-01-01T06:12:03.000Z</time>
      </trkpt>
      <trkpt lat="45.04249" lon="5.49339">
        <ele>1417</ele>
        <time>2000-01-01T06:12:13.000Z</time>
      </trkpt>
      <trkpt lat="45.04216" lon="5.4934">
        <ele>1416</ele>
        <time>2000-01-01T06:12:23.000Z</time>
      </trkpt>
      <trkpt lat="45.0417" lon="5.4934">
        <ele>1414</ele>
        <time>2000-01-01T06:12:33.000Z</time>
      </trkpt>
      <trkpt lat="45.04138" lon="5.49347">
        <ele>1413</ele>
        <time>2000-01-01T06:12:43.000Z</time>
      </trkpt>
      <trkpt lat="45.0411" lon="5.49353">
        <ele>1409</ele>
        <time>2000-01-01T06:12:53.000Z</time>
      </trkpt>
      <trkpt lat="45.04083" lon="5.49357">
        <ele>1398</ele>
        <time>2000-01-01T06:13:03.000Z</time>
      </trkpt>
      <trkpt lat="45.04041" lon="5.49367">
        <ele>1394</ele>
        <time>2000-01-01T06:13:13.000Z</time>
      </trkpt>
      <trkpt lat="45.04012" lon="5.49372">
        <ele>1394</ele>
        <time>2000-01-01T06:13:23.000Z</time>
      </trkpt>
      <trkpt lat="45.03967" lon="5.49384">
        <ele>1378</ele>
        <time>2000-01-01T06:13:33.000Z</time>
      </trkpt>
      <trkpt lat="45.03937" lon="5.49396">
        <ele>1373</ele>
        <time>2000-01-01T06:13:43.000Z</time>
      </trkpt>
      <trkpt lat="45.03913" lon="5.494">
        <ele>1373</ele>
        <time>2000-01-01T06:13:53.000Z</time>
      </trkpt>
      <trkpt lat="45.03886" lon="5.49405">
        <ele>1375</ele>
        <time>2000-01-01T06:14:03.000Z</time>
      </trkpt>
      <trkpt lat="45.03871" lon="5.49405">
        <ele>1373.4</ele>
        <time>2000-01-01T06:14:13.000Z</time>
      </trkpt>
      <trkpt lat="45.0381" lon="5.49382">
        <ele>1383</ele>
        <time>2000-01-01T06:14:23.000Z</time>
      </trkpt>
      <trkpt lat="45.03767" lon="5.49377">
        <ele>1385</ele>
        <time>2000-01-01T06:14:33.000Z</time>
      </trkpt>
      <trkpt lat="45.03723" lon="5.49381">
        <ele>1387</ele>
        <time>2000-01-01T06:14:43.000Z</time>
      </trkpt>
      <trkpt lat="45.03698" lon="5.49383">
        <ele>1387</ele>
        <time>2000-01-01T06:14:53.000Z</time>
      </trkpt>
      <trkpt lat="45.03671" lon="5.49385">
        <ele>1387</ele>
        <time>2000-01-01T06:15:03.000Z</time>
      </trkpt>
      <trkpt lat="45.03656" lon="5.49376">
        <ele>1378.9</ele>
        <time>2000-01-01T06:15:13.000Z</time>
      </trkpt>
      <trkpt lat="45.03636" lon="5.49374">
        <ele>1388</ele>
        <time>2000-01-01T06:15:23.000Z</time>
      </trkpt>
      <trkpt lat="45.03617" lon="5.49382">
        <ele>1389</ele>
        <time>2000-01-01T06:15:33.000Z</time>
      </trkpt>
      <trkpt lat="45.03587" lon="5.49387">
        <ele>1392</ele>
        <time>2000-01-01T06:15:43.000Z</time>
      </trkpt>
      <trkpt lat="45.03549" lon="5.49403">
        <ele>1394</ele>
        <time>2000-01-01T06:15:53.000Z</time>
      </trkpt>
      <trkpt lat="45.03516" lon="5.49421">
        <ele>1390</ele>
        <time>2000-01-01T06:16:03.000Z</time>
      </trkpt>
      <trkpt lat="45.03489" lon="5.49439">
        <ele>1386</ele>
        <time>2000-01-01T06:16:13.000Z</time>
      </trkpt>
      <trkpt lat="45.03473" lon="5.49466">
        <ele>1381</ele>
        <time>2000-01-01T06:16:23.000Z</time>
      </trkpt>
      <trkpt lat="45.03456" lon="5.49491">
        <ele>1371</ele>
        <time>2000-01-01T06:16:33.000Z</time>
      </trkpt>
      <trkpt lat="45.03449" lon="5.49514">
        <ele>1344</ele>
        <time>2000-01-01T06:16:43.000Z</time>
      </trkpt>
      <trkpt lat="45.03442" lon="5.49544">
        <ele>1362</ele>
        <time>2000-01-01T06:16:53.000Z</time>
      </trkpt>
      <trkpt lat="45.03435" lon="5.49578">
        <ele>1340</ele>
        <time>2000-01-01T06:17:03.000Z</time>
      </trkpt>
      <trkpt lat="45.03418" lon="5.49631">
        <ele>1315</ele>
        <time>2000-01-01T06:17:13.000Z</time>
      </trkpt>
      <trkpt lat="45.03412" lon="5.49661">
        <ele>1314</ele>
        <time>2000-01-01T06:17:23.000Z</time>
      </trkpt>
      <trkpt lat="45.0343" lon="5.49687">
        <ele>1314</ele>
        <time>2000-01-01T06:17:33.000Z</time>
      </trkpt>
      <trkpt lat="45.03413" lon="5.49718">
        <ele>1316</ele>
        <time>2000-01-01T06:17:43.000Z</time>
      </trkpt>
      <trkpt lat="45.03408" lon="5.49756">
        <ele>1318</ele>
        <time>2000-01-01T06:17:53.000Z</time>
      </trkpt>
      <trkpt lat="45.03408" lon="5.49785">
        <ele>1322</ele>
        <time>2000-01-01T06:18:03.000Z</time>
      </trkpt>
      <trkpt lat="45.03419" lon="5.49818">
        <ele>1322</ele>
        <time>2000-01-01T06:18:13.000Z</time>
      </trkpt>
      <trkpt lat="45.03438" lon="5.49846">
        <ele>1323</ele>
        <time>2000-01-01T06:18:23.000Z</time>
      </trkpt>
      <trkpt lat="45.03453" lon="5.49874">
        <ele>1319</ele>
        <time>2000-01-01T06:18:33.000Z</time>
      </trkpt>
      <trkpt lat="45.03475" lon="5.49919">
        <ele>1316</ele>
        <time>2000-01-01T06:18:43.000Z</time>
      </trkpt>
      <trkpt lat="45.03485" lon="5.49966">
        <ele>1305</ele>
        <time>2000-01-01T06:18:53.000Z</time>
      </trkpt>
      <trkpt lat="45.0348" lon="5.4999">
        <ele>1303.5</ele>
        <time>2000-01-01T06:19:03.000Z</time>
      </trkpt>
      <trkpt lat="45.03469" lon="5.49999">
        <ele>1300</ele>
        <time>2000-01-01T06:19:13.000Z</time>
      </trkpt>
      <trkpt lat="45.03452" lon="5.5002">
        <ele>1300</ele>
        <time>2000-01-01T06:19:23.000Z</time>
      </trkpt>
      <trkpt lat="45.03442" lon="5.5004">
        <ele>1303</ele>
        <time>2000-01-01T06:19:33.000Z</time>
      </trkpt>
      <trkpt lat="45.03434" lon="5.50068">
        <ele>1299</ele>
        <time>2000-01-01T06:19:43.000Z</time>
      </trkpt>
      <trkpt lat="45.03434" lon="5.50089">
        <ele>1298</ele>
        <time>2000-01-01T06:19:53.000Z</time>
      </trkpt>
      <trkpt lat="45.03426" lon="5.50127">
        <ele>1299</ele>
        <time>2000-01-01T06:20:03.000Z</time>
      </trkpt>
      <trkpt lat="45.03431" lon="5.50157">
        <ele>1298</ele>
        <time>2000-01-01T06:20:13.000Z</time>
      </trkpt>
      <trkpt lat="45.03449" lon="5.50183">
        <ele>1300</ele>
        <time>2000-01-01T06:20:23.000Z</time>
      </trkpt>
      <trkpt lat="45.03474" lon="5.50207">
        <ele>1294</ele>
        <time>2000-01-01T06:20:33.000Z</time>
      </trkpt>
      <trkpt lat="45.03495" lon="5.50263">
        <ele>1288</ele>
        <time>2000-01-01T06:20:43.000Z</time>
      </trkpt>
      <trkpt lat="45.03522" lon="5.50288">
        <ele>1284</ele>
        <time>2000-01-01T06:20:53.000Z</time>
      </trkpt>
      <trkpt lat="45.03548" lon="5.50291">
        <ele>1284</ele>
        <time>2000-01-01T06:21:03.000Z</time>
      </trkpt>
      <trkpt lat="45.03585" lon="5.50298">
        <ele>1283</ele>
        <time>2000-01-01T06:21:13.000Z</time>
      </trkpt>
      <trkpt lat="45.03627" lon="5.50326">
        <ele>1279</ele>
        <time>2000-01-01T06:21:23.000Z</time>
      </trkpt>
      <trkpt lat="45.03625" lon="5.50363">
        <ele>1272</ele>
        <time>2000-01-01T06:21:33.000Z</time>
      </trkpt>
      <trkpt lat="45.03614" lon="5.50406">
        <ele>1265</ele>
        <time>2000-01-01T06:21:43.000Z</time>
      </trkpt>
      <trkpt lat="45.03618" lon="5.50423">
        <ele>1249.8</ele>
        <time>2000-01-01T06:21:53.000Z</time>
      </trkpt>
      <trkpt lat="45.03654" lon="5.50429">
        <ele>1260</ele>
        <time>2000-01-01T06:22:03.000Z</time>
      </trkpt>
      <trkpt lat="45.03655" lon="5.50457">
        <ele>1260</ele>
        <time>2000-01-01T06:22:13.000Z</time>
      </trkpt>
      <trkpt lat="45.03658" lon="5.50501">
        <ele>1259</ele>
        <time>2000-01-01T06:22:23.000Z</time>
      </trkpt>
      <trkpt lat="45.03658" lon="5.50557">
        <ele>1259</ele>
        <time>2000-01-01T06:22:33.000Z</time>
      </trkpt>
      <trkpt lat="45.03665" lon="5.50601">
        <ele>1257</ele>
        <time>2000-01-01T06:22:43.000Z</time>
      </trkpt>
      <trkpt lat="45.03674" lon="5.50631">
        <ele>1255</ele>
        <time>2000-01-01T06:22:53.000Z</time>
      </trkpt>
      <trkpt lat="45.03668" lon="5.50653">
        <ele>1238.9</ele>
        <time>2000-01-01T06:23:03.000Z</time>
      </trkpt>
      <trkpt lat="45.03665" lon="5.50703">
        <ele>1247</ele>
        <time>2000-01-01T06:23:13.000Z</time>
      </trkpt>
      <trkpt lat="45.03682" lon="5.50761">
        <ele>1247</ele>
        <time>2000-01-01T06:23:23.000Z</time>
      </trkpt>
      <trkpt lat="45.03688" lon="5.50802">
        <ele>1248</ele>
        <time>2000-01-01T06:23:33.000Z</time>
      </trkpt>
      <trkpt lat="45.03678" lon="5.50835">
        <ele>1248</ele>
        <time>2000-01-01T06:23:43.000Z</time>
      </trkpt>
      <trkpt lat="45.03678" lon="5.50878">
        <ele>1249</ele>
        <time>2000-01-01T06:23:53.000Z</time>
      </trkpt>
      <trkpt lat="45.03648" lon="5.50894">
        <ele>1255</ele>
        <time>2000-01-01T06:24:03.000Z</time>
      </trkpt>
      <trkpt lat="45.03615" lon="5.50899">
        <ele>1252</ele>
        <time>2000-01-01T06:24:13.000Z</time>
      </trkpt>
      <trkpt lat="45.03589" lon="5.50907">
        <ele>1249</ele>
        <time>2000-01-01T06:24:23.000Z</time>
      </trkpt>
      <trkpt lat="45.0357" lon="5.50911">
        <ele>1248</ele>
        <time>2000-01-01T06:24:33.000Z</time>
      </trkpt>
      <trkpt lat="45.03556" lon="5.50932">
        <ele>1248</ele>
        <time>2000-01-01T06:24:43.000Z</time>
      </trkpt>
      <trkpt lat="45.03549" lon="5.50964">
        <ele>1252</ele>
        <time>2000-01-01T06:24:53.000Z</time>
      </trkpt>
      <trkpt lat="45.03535" lon="5.5099">
        <ele>1252</ele>
        <time>2000-01-01T06:25:03.000Z</time>
      </trkpt>
      <trkpt lat="45.03531" lon="5.51008">
        <ele>1236.5</ele>
        <time>2000-01-01T06:25:13.000Z</time>
      </trkpt>
      <trkpt lat="45.0353" lon="5.51032">
        <ele>1253</ele>
        <time>2000-01-01T06:25:23.000Z</time>
      </trkpt>
      <trkpt lat="45.03522" lon="5.51059">
        <ele>1253</ele>
        <time>2000-01-01T06:25:33.000Z</time>
      </trkpt>
      <trkpt lat="45.03507" lon="5.51073">
        <ele>1237</ele>
        <time>2000-01-01T06:25:43.000Z</time>
      </trkpt>
      <trkpt lat="45.03496" lon="5.51089">
        <ele>1253</ele>
        <time>2000-01-01T06:25:53.000Z</time>
      </trkpt>
      <trkpt lat="45.03495" lon="5.5112">
        <ele>1254</ele>
        <time>2000-01-01T06:26:03.000Z</time>
      </trkpt>
      <trkpt lat="45.0348" lon="5.51124">
        <ele>1237.7</ele>
        <time>2000-01-01T06:26:13.000Z</time>
      </trkpt>
      <trkpt lat="45.03473" lon="5.51124">
        <ele>1254</ele>
        <time>2000-01-01T06:26:23.000Z</time>
      </trkpt>
      <trkpt lat="45.03462" lon="5.51158">
        <ele>1254</ele>
        <time>2000-01-01T06:26:33.000Z</time>
      </trkpt>
      <trkpt lat="45.03452" lon="5.51189">
        <ele>1255</ele>
        <time>2000-01-01T06:26:43.000Z</time>
      </trkpt>
      <trkpt lat="45.03458" lon="5.51222">
        <ele>1255</ele>
        <time>2000-01-01T06:26:53.000Z</time>
      </trkpt>
      <trkpt lat="45.03469" lon="5.51253">
        <ele>1256</ele>
        <time>2000-01-01T06:27:03.000Z</time>
      </trkpt>
      <trkpt lat="45.0347" lon="5.51284">
        <ele>1257</ele>
        <time>2000-01-01T06:27:13.000Z</time>
      </trkpt>
      <trkpt lat="45.03483" lon="5.51323">
        <ele>1255</ele>
        <time>2000-01-01T06:27:23.000Z</time>
      </trkpt>
      <trkpt lat="45.03476" lon="5.51358">
        <ele>1254</ele>
        <time>2000-01-01T06:27:33.000Z</time>
      </trkpt>
      <trkpt lat="45.03481" lon="5.5138">
        <ele>1248.7</ele>
        <time>2000-01-01T06:27:43.000Z</time>
      </trkpt>
      <trkpt lat="45.03506" lon="5.51385">
        <ele>1254</ele>
        <time>2000-01-01T06:27:53.000Z</time>
      </trkpt>
      <trkpt lat="45.03535" lon="5.51392">
        <ele>1250</ele>
        <time>2000-01-01T06:28:03.000Z</time>
      </trkpt>
      <trkpt lat="45.03558" lon="5.51415">
        <ele>1250</ele>
        <time>2000-01-01T06:28:13.000Z</time>
      </trkpt>
      <trkpt lat="45.03562" lon="5.51428">
        <ele>1248.7</ele>
        <time>2000-01-01T06:28:23.000Z</time>
      </trkpt>
      <trkpt lat="45.03578" lon="5.5143">
        <ele>1253</ele>
        <time>2000-01-01T06:28:33.000Z</time>
      </trkpt>
      <trkpt lat="45.0359" lon="5.51411">
        <ele>1250.3</ele>
        <time>2000-01-01T06:28:43.000Z</time>
      </trkpt>
      <trkpt lat="45.03602" lon="5.51381">
        <ele>1264</ele>
        <time>2000-01-01T06:28:53.000Z</time>
      </trkpt>
      <trkpt lat="45.03609" lon="5.51338">
        <ele>1265</ele>
        <time>2000-01-01T06:29:03.000Z</time>
      </trkpt>
      <trkpt lat="45.0363" lon="5.51314">
        <ele>1264</ele>
        <time>2000-01-01T06:29:13.000Z</time>
      </trkpt>
      <trkpt lat="45.03659" lon="5.513">
        <ele>1264</ele>
        <time>2000-01-01T06:29:23.000Z</time>
      </trkpt>
      <trkpt lat="45.03675" lon="5.51277">
        <ele>1265</ele>
        <time>2000-01-01T06:29:33.000Z</time>
      </trkpt>
      <trkpt lat="45.03692" lon="5.51274">
        <ele>1262.6</ele>
        <time>2000-01-01T06:29:43.000Z</time>
      </trkpt>
      <trkpt lat="45.03701" lon="5.51251">
        <ele>1274</ele>
        <time>2000-01-01T06:29:53.000Z</time>
      </trkpt>
      <trkpt lat="45.03703" lon="5.5121">
        <ele>1277</ele>
        <time>2000-01-01T06:30:03.000Z</time>
      </trkpt>
      <trkpt lat="45.03725" lon="5.51177">
        <ele>1274</ele>
        <time>2000-01-01T06:30:13.000Z</time>
      </trkpt>
      <trkpt lat="45.03748" lon="5.51145">
        <ele>1272</ele>
        <time>2000-01-01T06:30:23.000Z</time>
      </trkpt>
      <trkpt lat="45.0377" lon="5.51099">
        <ele>1269</ele>
        <time>2000-01-01T06:30:33.000Z</time>
      </trkpt>
      <trkpt lat="45.038" lon="5.51059">
        <ele>1264</ele>
        <time>2000-01-01T06:30:43.000Z</time>
      </trkpt>
      <trkpt lat="45.03815" lon="5.51031">
        <ele>1257</ele>
        <time>2000-01-01T06:30:53.000Z</time>
      </trkpt>
      <trkpt lat="45.03831" lon="5.51002">
        <ele>1253</ele>
        <time>2000-01-01T06:31:03.000Z</time>
      </trkpt>
      <trkpt lat="45.03842" lon="5.50978">
        <ele>1251</ele>
        <time>2000-01-01T06:31:13.000Z</time>
      </trkpt>
      <trkpt lat="45.03865" lon="5.50961">
        <ele>1251</ele>
        <time>2000-01-01T06:31:23.000Z</time>
      </trkpt>
      <trkpt lat="45.03902" lon="5.50964">
        <ele>1251</ele>
        <time>2000-01-01T06:31:33.000Z</time>
      </trkpt>
      <trkpt lat="45.03916" lon="5.50982">
        <ele>1252.5</ele>
        <time>2000-01-01T06:31:43.000Z</time>
      </trkpt>
      <trkpt lat="45.03937" lon="5.50989">
        <ele>1252</ele>
        <time>2000-01-01T06:31:53.000Z</time>
      </trkpt>
      <trkpt lat="45.03969" lon="5.50991">
        <ele>1258</ele>
        <time>2000-01-01T06:32:03.000Z</time>
      </trkpt>
      <trkpt lat="45.03997" lon="5.50999">
        <ele>1264</ele>
        <time>2000-01-01T06:32:13.000Z</time>
      </trkpt>
      <trkpt lat="45.04016" lon="5.51015">
        <ele>1264</ele>
        <time>2000-01-01T06:32:23.000Z</time>
      </trkpt>
      <trkpt lat="45.04042" lon="5.51022">
        <ele>1262</ele>
        <time>2000-01-01T06:32:33.000Z</time>
      </trkpt>
      <trkpt lat="45.04065" lon="5.51012">
        <ele>1261</ele>
        <time>2000-01-01T06:32:43.000Z</time>
      </trkpt>
      <trkpt lat="45.04094" lon="5.5101">
        <ele>1256</ele>
        <time>2000-01-01T06:32:53.000Z</time>
      </trkpt>
      <trkpt lat="45.04141" lon="5.51001">
        <ele>1258</ele>
        <time>2000-01-01T06:33:03.000Z</time>
      </trkpt>
      <trkpt lat="45.04177" lon="5.51023">
        <ele>1260</ele>
        <time>2000-01-01T06:33:13.000Z</time>
      </trkpt>
      <trkpt lat="45.04204" lon="5.51051">
        <ele>1259</ele>
        <time>2000-01-01T06:33:23.000Z</time>
      </trkpt>
      <trkpt lat="45.04221" lon="5.51053">
        <ele>1245.5</ele>
        <time>2000-01-01T06:33:33.000Z</time>
      </trkpt>
      <trkpt lat="45.04251" lon="5.51063">
        <ele>1262</ele>
        <time>2000-01-01T06:33:43.000Z</time>
      </trkpt>
      <trkpt lat="45.04275" lon="5.51072">
        <ele>1262</ele>
        <time>2000-01-01T06:33:53.000Z</time>
      </trkpt>
      <trkpt lat="45.04304" lon="5.51082">
        <ele>1263</ele>
        <time>2000-01-01T06:34:03.000Z</time>
      </trkpt>
      <trkpt lat="45.0433" lon="5.51092">
        <ele>1263</ele>
        <time>2000-01-01T06:34:13.000Z</time>
      </trkpt>
      <trkpt lat="45.04374" lon="5.51116">
        <ele>1261</ele>
        <time>2000-01-01T06:34:23.000Z</time>
      </trkpt>
      <trkpt lat="45.04402" lon="5.51119">
        <ele>1260</ele>
        <time>2000-01-01T06:34:33.000Z</time>
      </trkpt>
      <trkpt lat="45.04441" lon="5.51124">
        <ele>1246</ele>
        <time>2000-01-01T06:34:43.000Z</time>
      </trkpt>
      <trkpt lat="45.04468" lon="5.51124">
        <ele>1243</ele>
        <time>2000-01-01T06:34:53.000Z</time>
      </trkpt>
      <trkpt lat="45.04506" lon="5.51124">
        <ele>1239</ele>
        <time>2000-01-01T06:35:03.000Z</time>
      </trkpt>
      <trkpt lat="45.04531" lon="5.5113">
        <ele>1238</ele>
        <time>2000-01-01T06:35:13.000Z</time>
      </trkpt>
      <trkpt lat="45.04559" lon="5.51136">
        <ele>1238</ele>
        <time>2000-01-01T06:35:23.000Z</time>
      </trkpt>
      <trkpt lat="45.04578" lon="5.51157">
        <ele>1239</ele>
        <time>2000-01-01T06:35:33.000Z</time>
      </trkpt>
      <trkpt lat="45.04599" lon="5.51178">
        <ele>1237</ele>
        <time>2000-01-01T06:35:43.000Z</time>
      </trkpt>
      <trkpt lat="45.04625" lon="5.5119">
        <ele>1237</ele>
        <time>2000-01-01T06:35:53.000Z</time>
      </trkpt>
      <trkpt lat="45.04659" lon="5.51205">
        <ele>1233</ele>
        <time>2000-01-01T06:36:03.000Z</time>
      </trkpt>
      <trkpt lat="45.04699" lon="5.51222">
        <ele>1239</ele>
        <time>2000-01-01T06:36:13.000Z</time>
      </trkpt>
      <trkpt lat="45.04689" lon="5.51276">
        <ele>1240</ele>
        <time>2000-01-01T06:36:23.000Z</time>
      </trkpt>
      <trkpt lat="45.04694" lon="5.51312">
        <ele>1241</ele>
        <time>2000-01-01T06:36:33.000Z</time>
      </trkpt>
      <trkpt lat="45.04699" lon="5.51356">
        <ele>1240</ele>
        <time>2000-01-01T06:36:43.000Z</time>
      </trkpt>
      <trkpt lat="45.04714" lon="5.51415">
        <ele>1240</ele>
        <time>2000-01-01T06:36:53.000Z</time>
      </trkpt>
      <trkpt lat="45.04704" lon="5.51466">
        <ele>1243</ele>
        <time>2000-01-01T06:37:03.000Z</time>
      </trkpt>
      <trkpt lat="45.04709" lon="5.51507">
        <ele>1243</ele>
        <time>2000-01-01T06:37:13.000Z</time>
      </trkpt>
      <trkpt lat="45.04716" lon="5.51539">
        <ele>1238</ele>
        <time>2000-01-01T06:37:23.000Z</time>
      </trkpt>
      <trkpt lat="45.04723" lon="5.51572">
        <ele>1233</ele>
        <time>2000-01-01T06:37:33.000Z</time>
      </trkpt>
      <trkpt lat="45.04723" lon="5.51611">
        <ele>1231</ele>
        <time>2000-01-01T06:37:43.000Z</time>
      </trkpt>
      <trkpt lat="45.04713" lon="5.51655">
        <ele>1231</ele>
        <time>2000-01-01T06:37:53.000Z</time>
      </trkpt>
      <trkpt lat="45.04692" lon="5.51674">
        <ele>1232</ele>
        <time>2000-01-01T06:38:03.000Z</time>
      </trkpt>
      <trkpt lat="45.0467" lon="5.51694">
        <ele>1238</ele>
        <time>2000-01-01T06:38:13.000Z</time>
      </trkpt>
      <trkpt lat="45.04682" lon="5.51729">
        <ele>1240</ele>
        <time>2000-01-01T06:38:23.000Z</time>
      </trkpt>
      <trkpt lat="45.04692" lon="5.51758">
        <ele>1242</ele>
        <time>2000-01-01T06:38:33.000Z</time>
      </trkpt>
      <trkpt lat="45.04672" lon="5.51797">
        <ele>1247</ele>
        <time>2000-01-01T06:38:43.000Z</time>
      </trkpt>
      <trkpt lat="45.04654" lon="5.5182">
        <ele>1249</ele>
        <time>2000-01-01T06:38:53.000Z</time>
      </trkpt>
      <trkpt lat="45.04657" lon="5.51848">
        <ele>1249</ele>
        <time>2000-01-01T06:39:03.000Z</time>
      </trkpt>
      <trkpt lat="45.04669" lon="5.51879">
        <ele>1252</ele>
        <time>2000-01-01T06:39:13.000Z</time>
      </trkpt>
      <trkpt lat="45.04672" lon="5.51903">
        <ele>1230.7</ele>
        <time>2000-01-01T06:39:23.000Z</time>
      </trkpt>
      <trkpt lat="45.04658" lon="5.51926">
        <ele>1256</ele>
        <time>2000-01-01T06:39:33.000Z</time>
      </trkpt>
      <trkpt lat="45.04639" lon="5.51952">
        <ele>1256</ele>
        <time>2000-01-01T06:39:43.000Z</time>
      </trkpt>
      <trkpt lat="45.04604" lon="5.51989">
        <ele>1253</ele>
        <time>2000-01-01T06:39:53.000Z</time>
      </trkpt>
      <trkpt lat="45.04603" lon="5.52032">
        <ele>1250</ele>
        <time>2000-01-01T06:40:03.000Z</time>
      </trkpt>
      <trkpt lat="45.04602" lon="5.52077">
        <ele>1247</ele>
        <time>2000-01-01T06:40:13.000Z</time>
      </trkpt>
      <trkpt lat="45.04598" lon="5.52113">
        <ele>1246</ele>
        <time>2000-01-01T06:40:23.000Z</time>
      </trkpt>
      <trkpt lat="45.04591" lon="5.52158">
        <ele>1245</ele>
        <time>2000-01-01T06:40:33.000Z</time>
      </trkpt>
      <trkpt lat="45.0458" lon="5.52196">
        <ele>1245</ele>
        <time>2000-01-01T06:40:43.000Z</time>
      </trkpt>
      <trkpt lat="45.0457" lon="5.52206">
        <ele>1239.5</ele>
        <time>2000-01-01T06:40:53.000Z</time>
      </trkpt>
      <trkpt lat="45.04557" lon="5.52212">
        <ele>1245</ele>
        <time>2000-01-01T06:41:03.000Z</time>
      </trkpt>
      <trkpt lat="45.0453" lon="5.52232">
        <ele>1245</ele>
        <time>2000-01-01T06:41:13.000Z</time>
      </trkpt>
      <trkpt lat="45.04505" lon="5.52228">
        <ele>1245</ele>
        <time>2000-01-01T06:41:23.000Z</time>
      </trkpt>
      <trkpt lat="45.04475" lon="5.52223">
        <ele>1248</ele>
        <time>2000-01-01T06:41:33.000Z</time>
      </trkpt>
      <trkpt lat="45.04446" lon="5.52205">
        <ele>1254</ele>
        <time>2000-01-01T06:41:43.000Z</time>
      </trkpt>
      <trkpt lat="45.04423" lon="5.52196">
        <ele>1257</ele>
        <time>2000-01-01T06:41:53.000Z</time>
      </trkpt>
      <trkpt lat="45.0439" lon="5.52177">
        <ele>1266</ele>
        <time>2000-01-01T06:42:03.000Z</time>
      </trkpt>
      <trkpt lat="45.04367" lon="5.52163">
        <ele>1270</ele>
        <time>2000-01-01T06:42:13.000Z</time>
      </trkpt>
      <trkpt lat="45.04358" lon="5.52155">
        <ele>1244.6</ele>
        <time>2000-01-01T06:42:23.000Z</time>
      </trkpt>
      <trkpt lat="45.0434" lon="5.52141">
        <ele>1269</ele>
        <time>2000-01-01T06:42:33.000Z</time>
      </trkpt>
      <trkpt lat="45.04305" lon="5.52121">
        <ele>1268</ele>
        <time>2000-01-01T06:42:43.000Z</time>
      </trkpt>
      <trkpt lat="45.04278" lon="5.52107">
        <ele>1265</ele>
        <time>2000-01-01T06:42:53.000Z</time>
      </trkpt>
      <trkpt lat="45.04255" lon="5.52101">
        <ele>1261</ele>
        <time>2000-01-01T06:43:03.000Z</time>
      </trkpt>
      <trkpt lat="45.04215" lon="5.5211">
        <ele>1261</ele>
        <time>2000-01-01T06:43:13.000Z</time>
      </trkpt>
      <trkpt lat="45.04194" lon="5.52129">
        <ele>1256</ele>
        <time>2000-01-01T06:43:23.000Z</time>
      </trkpt>
      <trkpt lat="45.04171" lon="5.52149">
        <ele>1252</ele>
        <time>2000-01-01T06:43:33.000Z</time>
      </trkpt>
      <trkpt lat="45.04147" lon="5.52169">
        <ele>1246</ele>
        <time>2000-01-01T06:43:43.000Z</time>
      </trkpt>
      <trkpt lat="45.04114" lon="5.52192">
        <ele>1237</ele>
        <time>2000-01-01T06:43:53.000Z</time>
      </trkpt>
      <trkpt lat="45.04085" lon="5.52203">
        <ele>1235</ele>
        <time>2000-01-01T06:44:03.000Z</time>
      </trkpt>
      <trkpt lat="45.04058" lon="5.52214">
        <ele>1207</ele>
        <time>2000-01-01T06:44:13.000Z</time>
      </trkpt>
      <trkpt lat="45.04021" lon="5.52223">
        <ele>1201</ele>
        <time>2000-01-01T06:44:23.000Z</time>
      </trkpt>
      <trkpt lat="45.04" lon="5.52224">
        <ele>1201</ele>
        <time>2000-01-01T06:44:33.000Z</time>
      </trkpt>
      <trkpt lat="45.03967" lon="5.52226">
        <ele>1202</ele>
        <time>2000-01-01T06:44:43.000Z</time>
      </trkpt>
      <trkpt lat="45.03943" lon="5.52224">
        <ele>1202</ele>
        <time>2000-01-01T06:44:53.000Z</time>
      </trkpt>
      <trkpt lat="45.03917" lon="5.52223">
        <ele>1198</ele>
        <time>2000-01-01T06:45:03.000Z</time>
      </trkpt>
      <trkpt lat="45.0389" lon="5.52232">
        <ele>1198</ele>
        <time>2000-01-01T06:45:13.000Z</time>
      </trkpt>
      <trkpt lat="45.03879" lon="5.52255">
        <ele>1181</ele>
        <time>2000-01-01T06:45:23.000Z</time>
      </trkpt>
      <trkpt lat="45.03868" lon="5.52274">
        <ele>1170.7</ele>
        <time>2000-01-01T06:45:33.000Z</time>
      </trkpt>
      <trkpt lat="45.03846" lon="5.52279">
        <ele>1170</ele>
        <time>2000-01-01T06:45:43.000Z</time>
      </trkpt>
      <trkpt lat="45.03833" lon="5.5229">
        <ele>1162.3</ele>
        <time>2000-01-01T06:45:53.000Z</time>
      </trkpt>
      <trkpt lat="45.03831" lon="5.52305">
        <ele>1159</ele>
        <time>2000-01-01T06:46:03.000Z</time>
      </trkpt>
      <trkpt lat="45.03823" lon="5.52321">
        <ele>1154.5</ele>
        <time>2000-01-01T06:46:13.000Z</time>
      </trkpt>
      <trkpt lat="45.03818" lon="5.52334">
        <ele>1146</ele>
        <time>2000-01-01T06:46:23.000Z</time>
      </trkpt>
      <trkpt lat="45.03809" lon="5.52377">
        <ele>1141</ele>
        <time>2000-01-01T06:46:33.000Z</time>
      </trkpt>
      <trkpt lat="45.038" lon="5.52401">
        <ele>1131</ele>
        <time>2000-01-01T06:46:43.000Z</time>
      </trkpt>
      <trkpt lat="45.03781" lon="5.5241">
        <ele>1131</ele>
        <time>2000-01-01T06:46:53.000Z</time>
      </trkpt>
      <trkpt lat="45.03757" lon="5.52412">
        <ele>1127</ele>
        <time>2000-01-01T06:47:03.000Z</time>
      </trkpt>
      <trkpt lat="45.03726" lon="5.5242">
        <ele>1124</ele>
        <time>2000-01-01T06:47:13.000Z</time>
      </trkpt>
      <trkpt lat="45.03699" lon="5.52421">
        <ele>1120</ele>
        <time>2000-01-01T06:47:23.000Z</time>
      </trkpt>
      <trkpt lat="45.03663" lon="5.52422">
        <ele>1110</ele>
        <time>2000-01-01T06:47:33.000Z</time>
      </trkpt>
      <trkpt lat="45.03642" lon="5.5246">
        <ele>1105</ele>
        <time>2000-01-01T06:47:43.000Z</time>
      </trkpt>
      <trkpt lat="45.03621" lon="5.52474">
        <ele>1104</ele>
        <time>2000-01-01T06:47:53.000Z</time>
      </trkpt>
      <trkpt lat="45.0361" lon="5.52494">
        <ele>1105.5</ele>
        <time>2000-01-01T06:48:03.000Z</time>
      </trkpt>
      <trkpt lat="45.03598" lon="5.52529">
        <ele>1104</ele>
        <time>2000-01-01T06:48:13.000Z</time>
      </trkpt>
      <trkpt lat="45.03588" lon="5.5257">
        <ele>1104</ele>
        <time>2000-01-01T06:48:23.000Z</time>
      </trkpt>
      <trkpt lat="45.03558" lon="5.52523">
        <ele>1107</ele>
        <time>2000-01-01T06:48:33.000Z</time>
      </trkpt>
      <trkpt lat="45.03543" lon="5.52496">
        <ele>1110</ele>
        <time>2000-01-01T06:48:43.000Z</time>
      </trkpt>
      <trkpt lat="45.03514" lon="5.52475">
        <ele>1111</ele>
        <time>2000-01-01T06:48:53.000Z</time>
      </trkpt>
      <trkpt lat="45.03503" lon="5.52445">
        <ele>1111</ele>
        <time>2000-01-01T06:49:03.000Z</time>
      </trkpt>
      <trkpt lat="45.03496" lon="5.52413">
        <ele>1111</ele>
        <time>2000-01-01T06:49:13.000Z</time>
      </trkpt>
      <trkpt lat="45.03481" lon="5.52377">
        <ele>1112</ele>
        <time>2000-01-01T06:49:23.000Z</time>
      </trkpt>
      <trkpt lat="45.03458" lon="5.52357">
        <ele>1109</ele>
        <time>2000-01-01T06:49:33.000Z</time>
      </trkpt>
      <trkpt lat="45.03418" lon="5.52336">
        <ele>1108</ele>
        <time>2000-01-01T06:49:43.000Z</time>
      </trkpt>
      <trkpt lat="45.03395" lon="5.52323">
        <ele>1108</ele>
        <time>2000-01-01T06:49:53.000Z</time>
      </trkpt>
      <trkpt lat="45.03372" lon="5.52309">
        <ele>1107</ele>
        <time>2000-01-01T06:50:03.000Z</time>
      </trkpt>
      <trkpt lat="45.03351" lon="5.52299">
        <ele>1107</ele>
        <time>2000-01-01T06:50:13.000Z</time>
      </trkpt>
      <trkpt lat="45.03332" lon="5.52315">
        <ele>1113</ele>
        <time>2000-01-01T06:50:23.000Z</time>
      </trkpt>
      <trkpt lat="45.03314" lon="5.5235">
        <ele>1113</ele>
        <time>2000-01-01T06:50:33.000Z</time>
      </trkpt>
      <trkpt lat="45.03299" lon="5.52379">
        <ele>1108</ele>
        <time>2000-01-01T06:50:43.000Z</time>
      </trkpt>
      <trkpt lat="45.03282" lon="5.52413">
        <ele>1101</ele>
        <time>2000-01-01T06:50:53.000Z</time>
      </trkpt>
      <trkpt lat="45.03269" lon="5.52444">
        <ele>1098</ele>
        <time>2000-01-01T06:51:03.000Z</time>
      </trkpt>
      <trkpt lat="45.03252" lon="5.5248">
        <ele>1097</ele>
        <time>2000-01-01T06:51:13.000Z</time>
      </trkpt>
      <trkpt lat="45.03239" lon="5.52513">
        <ele>1097</ele>
        <time>2000-01-01T06:51:23.000Z</time>
      </trkpt>
      <trkpt lat="45.03223" lon="5.52555">
        <ele>1097</ele>
        <time>2000-01-01T06:51:33.000Z</time>
      </trkpt>
      <trkpt lat="45.03241" lon="5.52578">
        <ele>1098</ele>
        <time>2000-01-01T06:51:43.000Z</time>
      </trkpt>
      <trkpt lat="45.0326" lon="5.52603">
        <ele>1099</ele>
        <time>2000-01-01T06:51:53.000Z</time>
      </trkpt>
    </trkseg>
  </trk>
</gpx>